GFSWCAN_prec_cloud_003.txt.gz
Cloud_Cover
5 5 5 5 5 38 43 82 100 100 100 100 100 100 100 94 91 58 84 97 95 100 100 100 100 75 65 98 100 100 100 100 100 100 100 100 100 100 100 100 100 100 100 76 62 97 58 25 34 26 18 5 2 1
5 4 5 5 5 5 31 100 58 48 100 100 100 100 100 100 74 38 94 63 100 100 96 100 97 86 100 100 100 100 100 100 100 100 100 100 100 100 100 100 100 100 100 100 92 96 25 13 51 3 0 0 2 2
0 4 5 5 5 5 5 5 12 51 99 98 95 81 92 92 99 100 100 100 100 100 100 100 100 49 100 100 100 100 100 100 100 100 100 100 100 100 100 100 100 100 100 100 100 8 96 100 13 0 0 1 48 4
3 5 5 5 5 5 5 5 33 99 86 31 5 72 70 100 99 99 100 100 100 100 100 100 96 85 100 100 100 100 100 100 99 100 100 100 100 100 100 100 100 100 100 100 42 99 100 34 5 3 0 77 7 60
1 5 5 5 5 5 5 5 77 100 84 76 83 31 97 37 74 100 100 100 100 100 100 100 100 100 100 100 55 100 93 100 100 100 100 100 100 100 100 100 100 100 100 99 95 99 100 6 14 4 15 100 97 58
0 5 5 5 5 5 5 6 36 8 66 8 6 32 70 100 100 100 100 100 100 100 100 100 100 100 91 81 11 16 100 100 99 100 100 100 100 100 100 100 100 100 100 100 100 100 91 35 5 15 94 100 98 42
5 5 5 5 5 70 53 8 6 5 7 91 89 85 92 85 99 100 100 97 96 100 97 80 64 42 97 92 54 100 100 100 100 100 100 100 100 100 100 100 100 100 100 100 98 87 30 7 51 99 100 100 100 100
5 5 5 8 5 12 47 64 32 13 46 99 44 58 96 100 100 89 92 86 97 100 100 100 96 83 100 100 100 100 100 100 100 100 100 100 100 100 100 100 100 100 100 92 100 100 73 74 96 99 100 100 100 100
5 5 5 5 5 5 5 8 14 21 5 5 41 82 88 53 99 100 100 100 100 100 100 100 100 100 100 100 100 100 100 100 100 100 100 100 100 100 100 100 100 100 100 98 100 86 100 100 100 100 100 100 100 100
5 5 5 5 5 5 5 7 93 100 100 100 100 100 100 100 100 100 100 100 100 100 100 100 100 100 92 100 100 100 100 100 100 100 100 100 100 100 100 100 100 100 100 100 100 82 100 100 100 100 100 100 100 100
1 4 18 5 5 8 5 7 98 100 100 100 100 100 100 100 100 100 100 100 100 100 100 100 100 100 100 100 100 100 100 100 100 100 100 100 100 100 100 100 100 100 100 100 100 100 100 100 100 100 100 100 100 100
5 4 22 100 80 87 22 86 68 70 97 66 96 100 100 100 100 100 100 100 100 100 100 100 100 100 100 100 100 100 100 100 100 100 100 100 100 100 100 100 100 100 100 100 100 100 100 100 100 100 100 100 100 100
5 5 34 5 5 77 100 97 84 98 79 94 99 100 98 95 100 100 100 100 100 100 100 100 100 100 100 100 100 100 100 100 100 100 100 100 100 100 100 100 100 100 100 100 100 100 100 100 100 100 100 100 100 100
5 5 3 81 35 8 5 76 92 38 100 100 99 100 100 100 93 100 100 100 100 100 100 100 100 100 100 100 100 100 100 100 100 100 100 100 100 100 100 100 100 100 100 100 100 100 100 100 100 100 100 100 100 100
5 5 99 85 6 38 78 94 86 95 100 100 94 100 93 100 100 100 100 100 100 100 100 100 100 100 100 100 100 100 100 100 100 100 100 100 100 100 100 100 100 100 100 100 100 100 100 100 100 100 100 100 100 100
2 5 5 5 5 8 43 100 96 100 100 100 100 100 94 88 94 100 100 100 100 100 100 100 100 100 100 100 100 100 100 100 100 100 100 100 100 100 100 100 100 100 100 100 100 100 100 100 100 100 100 100 100 100
3 1 5 5 100 39 35 21 78 100 100 100 100 100 100 100 91 63 23 92 100 100 100 100 100 100 100 100 100 100 100 100 100 100 100 100 100 100 100 100 100 100 100 100 100 100 100 100 100 100 100 100 100 100
0 4 5 5 11 43 5 10 61 100 100 97 93 100 100 100 99 60 68 34 54 100 100 99 96 97 100 100 100 100 100 100 100 100 100 100 100 100 100 100 100 100 98 99 100 100 100 100 100 100 100 100 100 100
0 2 3 4 21 25 6 22 28 91 100 100 100 100 100 100 100 100 100 100 96 80 65 76 66 100 98 100 100 100 100 100 100 100 100 100 100 100 100 98 100 100 100 100 100 100 100 100 77 100 100 100 100 100
2 2 0 0 2 17 59 45 11 88 100 100 100 100 100 100 100 100 100 100 100 99 100 100 100 100 100 100 100 100 100 100 100 100 100 100 100 100 100 100 99 100 100 100 100 100 100 100 100 100 100 100 100 100
5 10 5 1 5 6 33 100 100 58 82 100 100 99 100 100 100 100 100 100 100 100 100 100 100 100 100 100 100 100 100 100 100 100 100 100 100 100 100 100 100 94 100 100 100 100 100 100 100 100 67 100 100 100
35 2 20 15 75 35 67 82 97 100 100 94 100 100 100 100 100 100 100 100 100 100 100 100 100 100 100 100 100 100 100 100 100 100 100 100 100 100 100 100 100 89 96 90 100 100 100 100 100 100 40 8 7 7
62 72 73 30 31 40 42 45 71 70 79 48 85 82 96 100 100 100 100 100 100 100 100 100 100 100 100 100 100 100 100 100 100 100 100 96 100 99 100 100 100 85 86 99 67 69 49 72 76 59 39 21 14 21
64 68 91 6 9 32 25 49 60 67 22 9 38 54 56 100 96 51 76 83 91 100 100 100 100 100 100 100 100 100 100 100 100 100 100 100 100 100 100 100 100 100 100 100 100 100 92 80 100 98 100 97 94 100
64 88 72 94 5 17 19 17 7 16 88 88 98 100 100 100 80 100 96 71 92 100 100 100 96 34 15 12 8 39 30 53 63 57 23 65 61 100 99 100 100 99 80 68 50 10 6 5 5 5 5 47 76 66
92 100 100 100 84 95 68 90 90 63 82 86 82 85 84 82 98 100 95 100 100 88 99 90 78 86 66 71 70 90 98 99 100 100 100 100 98 74 20 5 23 71 58 78 65 5 5 5 5 4 18 92 100 97
93 71 95 6 46 99 100 100 100 100 78 53 95 100 100 100 100 100 100 100 100 99 98 100 100 100 100 100 100 99 92 48 50 73 77 79 87 91 33 28 67 34 5 42 5 5 4 5 5 3 2 36 58 86
5 16 91 61 47 74 91 100 100 100 100 100 100 97 100 100 100 100 100 96 99 100 78 97 96 89 89 52 16 33 64 15 5 3 4 96 100 96 11 9 52 0 4 5 2 5 5 4 0 3 5 5 12 70
100 100 40 100 90 23 99 100 82 80 51 100 100 100 100 100 100 100 100 100 99 86 86 100 97 80 63 12 5 5 5 5 5 5 5 5 24 37 28 5 5 5 5 6 42 6 4 0 3 3 28 87 100 100
100 99 100 100 30 6 23 68 79 8 5 5 47 100 100 95 75 78 37 13 5 33 82 90 98 63 5 2 5 3 23 22 5 5 5 5 5 9 5 8 26 37 29 63 42 91 70 20 100 100 99 98 99 99
96 86 99 58 8 24 96 64 36 7 11 39 51 78 24 8 79 53 11 22 84 86 57 6 5 8 5 1 5 5 4 22 11 25 17 5 5 5 5 8 37 27 61 57 71 85 98 97 100 100 100 100 100 98
100 98 100 100 91 23 63 24 47 69 71 100 98 99 94 100 94 90 8 31 57 11 5 8 8 3 5 2 5 16 7 80 99 5 4 0 0 1 5 5 5 68 71 98 100 100 100 100 100 100 100 100 100 100
99 76 10 10 85 71 74 11 58 54 94 92 22 8 96 36 67 64 67 97 43 5 5 5 5 5 5 5 5 5 21 51 5 5 3 0 0 0 30 26 64 100 100 100 100 97 99 99 100 100 100 100 100 100

GFSWCAN_prec_cloud_006.txt.gz
Cloud_Cover
5 0 4 5 5 5 5 5 5 5 5 33 39 53 100 97 100 100 59 100 99 100 100 39 5 75 90 100 100 100 98 93 83 100 100 100 100 100 100 100 100 100 100 100 100 100 100 100 100 100 100 98 76 1
2 0 5 5 5 5 5 5 1 5 5 5 5 49 54 94 34 9 78 67 99 100 86 17 14 45 100 100 100 100 100 100 100 100 100 100 100 100 100 100 100 100 100 100 100 100 100 100 95 100 100 25 5 0
0 0 0 5 5 5 5 5 5 11 91 9 5 5 5 5 5 21 97 91 76 88 20 22 100 100 100 100 100 100 100 100 100 100 100 100 100 100 100 100 100 100 100 100 100 100 100 97 62 12 5 3 3 0
0 0 2 5 5 5 5 8 5 5 5 5 5 5 5 6 37 46 99 99 100 97 100 100 100 100 100 100 100 100 100 34 98 100 100 100 100 100 100 100 100 100 100 100 100 100 82 97 78 14 5 68 2 0
0 0 4 5 5 5 5 5 5 5 5 5 5 5 5 68 100 94 97 100 100 100 100 100 100 89 88 100 100 58 78 97 100 100 100 100 100 100 100 100 100 100 100 100 100 100 100 100 10 5 91 62 3 0
0 0 0 5 5 5 5 5 5 5 5 5 5 5 5 5 43 100 100 97 100 100 100 100 100 100 100 100 100 100 100 100 100 100 100 100 100 100 100 100 100 100 100 100 100 100 100 100 100 100 18 5 2 1
0 0 0 4 5 5 5 5 5 5 5 5 5 5 5 19 54 96 71 87 59 75 100 69 17 94 100 100 99 100 100 100 99 100 100 100 100 100 100 100 100 100 100 100 100 100 100 100 100 100 8 2 5 3
0 0 4 5 5 5 11 5 5 5 1 9 73 100 100 100 99 72 89 90 100 100 100 100 96 100 100 100 100 100 100 100 100 100 100 100 100 100 100 100 100 100 100 100 100 100 100 100 100 100 81 30 86 22
0 0 3 5 5 5 8 40 72 40 87 100 100 100 100 100 100 100 81 100 100 100 100 100 100 100 100 100 100 100 100 100 100 100 100 100 100 100 100 100 100 100 100 100 100 100 100 100 100 88 41 68 30 11
0 5 5 2 5 2 5 64 100 100 100 100 85 96 100 100 100 100 100 100 100 100 100 100 100 100 100 100 100 100 100 100 100 100 100 100 100 100 100 100 100 100 100 100 100 100 100 100 70 100 100 100 96 100
0 0 3 5 5 5 5 17 87 68 69 96 100 100 100 100 100 100 100 100 100 100 100 100 100 100 100 100 100 100 100 100 100 100 100 100 100 100 100 100 100 100 100 100 100 100 100 100 100 100 100 100 100 100
0 0 0 1 5 4 5 5 10 25 99 100 100 100 100 100 100 100 100 100 100 100 100 100 100 100 100 100 100 100 100 100 100 100 100 100 100 100 100 100 100 100 100 100 100 100 100 100 100 100 98 100 100 100
96 29 5 5 7 66 23 8 13 40 16 100 100 100 100 100 100 100 100 100 100 100 100 100 100 100 100 100 100 100 100 100 100 100 100 100 100 100 100 100 100 100 100 100 100 100 100 100 98 72 100 100 100 100
0 4 4 6 100 100 100 100 100 52 46 86 100 97 100 100 100 100 100 100 100 100 100 100 100 100 100 100 100 100 100 100 100 100 100 100 100 100 100 100 100 100 100 100 100 100 100 99 100 100 99 100 100 100
0 0 5 2 26 94 100 100 100 100 93 50 25 93 67 94 100 100 100 100 100 100 100 100 100 100 100 100 100 100 100 100 100 100 100 100 100 100 100 100 100 100 100 100 100 100 100 100 99 100 100 100 100 100
0 0 4 4 5 5 99 100 100 100 100 55 28 99 96 86 61 31 87 100 100 100 100 100 100 100 100 100 100 100 100 100 100 100 100 100 100 100 100 100 100 100 100 100 100 100 100 100 100 100 100 100 100 100
4 1 0 0 5 39 100 100 83 100 83 100 100 100 100 100 89 59 99 81 100 100 100 100 100 100 100 100 100 100 100 100 100 100 100 100 100 98 100 100 100 100 100 100 100 100 100 100 100 100 100 100 100 100
0 0 0 0 4 8 96 98 97 96 99 100 100 100 66 72 98 100 100 100 100 100 100 100 100 100 100 100 100 100 100 100 100 100 100 100 100 100 100 100 100 100 100 100 100 100 100 100 100 100 100 100 100 99
1 0 0 3 3 12 100 96 99 100 100 100 100 100 34 97 19 98 100 100 100 100 100 100 100 100 100 100 100 100 100 100 100 100 100 100 100 100 100 100 100 100 100 99 97 89 47 83 100 100 100 100 100 99
0 0 0 1 9 14 100 100 79 56 86 100 100 100 97 80 96 93 64 43 54 80 98 100 100 100 100 100 100 100 100 100 100 100 100 100 100 100 100 100 100 100 83 94 100 96 100 50 5 36 65 48 96 63
1 2 0 53 100 50 45 74 100 16 96 91 100 100 100 100 100 100 100 100 100 100 100 96 71 95 100 100 100 100 100 100 100 100 100 100 100 100 100 100 100 76 40 76 100 100 100 100 100 100 100 100 100 98
3 0 4 29 60 67 76 32 49 83 97 100 100 91 100 100 100 100 100 100 100 100 100 100 100 99 100 98 100 100 100 100 100 100 96 61 98 100 89 28 74 99 98 93 90 83 85 98 94 78 97 100 100 100
5 9 4 93 83 42 49 71 82 99 62 54 82 100 100 100 81 80 100 100 100 100 88 96 99 93 100 100 100 100 100 100 100 100 100 100 100 97 99 83 98 100 98 89 61 46 52 15 6 5 13 45 99 99
56 38 80 100 87 32 35 26 22 86 98 82 100 100 68 62 61 100 100 100 100 69 73 61 82 94 90 94 100 94 80 91 96 85 100 100 100 96 96 68 40 37 59 26 34 26 27 9 19 7 42 48 97 96
54 47 40 99 6 45 86 87 96 100 100 98 47 83 80 47 59 58 99 99 95 94 72 63 66 72 98 98 98 98 100 99 100 100 100 100 100 95 99 95 52 74 100 40 40 65 90 90 81 55 7 88 66 31
83 91 67 56 12 40 99 100 98 99 97 95 97 99 69 100 73 92 77 61 92 98 81 66 64 79 76 73 70 10 6 5 68 29 81 100 40 100 72 5 27 4 4 4 5 2 5 5 22 4 5 5 4 36
56 93 100 100 98 96 49 9 95 100 78 96 94 98 54 55 96 93 95 89 91 84 59 37 51 76 85 99 57 6 63 77 84 20 58 95 78 29 5 5 5 0 3 5 3 5 5 5 0 2 4 5 5 27
99 100 100 100 100 48 34 63 27 10 67 92 53 52 76 79 97 62 76 33 33 6 2 8 70 95 99 14 10 67 91 8 4 0 70 94 92 89 5 5 5 2 5 5 4 0 0 0 0 4 5 55 88 98
100 95 96 100 20 38 34 65 80 5 5 5 45 96 75 46 28 29 3 5 14 98 100 100 90 74 53 5 5 58 14 5 3 1 0 1 4 4 5 5 5 5 16 54 31 5 5 4 6 23 70 76 89 87
60 13 5 27 6 5 17 37 63 5 5 13 6 14 7 19 7 6 15 76 98 100 97 70 41 5 4 2 5 5 39 5 5 2 0 0 3 4 5 5 5 47 49 73 81 98 79 75 100 100 98 97 100 98
50 79 33 21 44 38 5 11 6 23 5 20 10 38 66 72 59 82 38 9 42 42 9 2 5 5 5 5 10 11 3 97 46 5 0 0 4 5 16 6 39 75 80 98 100 100 100 98 100 100 100 100 100 99
78 34 60 63 35 9 10 59 87 66 97 25 60 7 50 23 48 40 86 47 5 19 9 5 5 56 21 5 17 15 6 83 5 0 0 0 0 1 5 73 78 100 97 100 100 100 100 100 100 100 100 100 100 100
43 39 65 94 97 100 62 46 69 26 30 90 46 36 100 47 95 96 85 65 10 5 5 6 23 36 16 13 5 6 64 5 5 5 5 5 0 0 30 42 41 86 84 100 93 100 98 100 100 100 100 100 100 99

GFSWCAN_prec_cloud_009.txt.gz
Cloud_Cover
0 0 0 0 0 0 1 4 5 5 5 11 10 2 5 5 5 49 41 98 97 100 99 26 3 47 7 12 83 80 33 51 100 89 12 31 100 88 100 100 100 100 100 100 100 91 100 100 100 100 55 2 3 5
0 0 0 0 1 5 5 5 5 5 5 5 5 5 5 5 5 5 5 20 81 100 97 4 4 0 0 11 66 100 100 100 100 100 100 79 100 89 38 100 100 100 100 100 100 99 97 100 100 100 37 5 7 83
0 0 0 0 1 5 5 5 5 5 5 5 5 5 5 5 7 10 9 9 47 52 62 17 4 4 12 100 95 100 100 100 100 100 100 100 100 81 77 86 100 100 100 100 100 100 62 84 78 6 98 39 100 100
0 0 0 0 0 0 5 5 5 5 5 5 5 5 5 5 5 19 46 98 96 90 100 99 99 21 14 94 100 100 100 100 100 100 100 100 100 100 100 100 100 100 100 100 100 100 100 100 100 100 75 62 100 100
0 0 0 0 5 5 5 5 5 5 5 5 61 45 5 5 6 13 59 99 100 100 97 81 11 36 8 66 100 100 100 100 100 81 100 98 100 100 100 100 100 100 100 100 100 100 100 98 100 100 100 99 100 100
0 0 0 0 1 5 5 5 33 100 100 100 61 3 5 35 100 100 99 58 100 100 100 100 100 97 84 61 86 100 96 100 100 100 100 100 100 100 100 100 100 100 100 100 100 100 100 100 100 42 95 100 100 100
0 0 0 0 0 3 4 1 2 97 100 100 100 100 100 100 100 100 100 100 100 100 96 96 99 100 100 100 40 42 28 100 100 100 100 100 100 100 100 100 100 100 100 100 100 100 100 100 100 100 100 100 100 98
0 0 0 0 9 88 77 100 100 100 94 100 100 100 100 100 100 99 89 100 100 100 100 100 100 100 100 100 100 100 100 100 100 100 100 100 100 100 100 100 100 100 100 100 100 100 100 100 100 100 100 100 99 35
0 0 0 1 1 1 22 100 100 100 100 100 100 100 100 100 100 100 100 100 100 100 100 100 100 100 100 100 100 100 100 100 100 100 100 100 100 100 100 100 100 100 100 100 100 100 100 100 100 100 100 100 88 100
0 0 0 0 0 3 12 100 100 100 100 100 100 100 100 100 100 100 100 100 100 100 100 100 100 100 100 100 100 100 100 100 100 100 100 100 100 100 100 100 100 100 100 100 100 100 100 100 100 100 100 100 100 100
0 0 32 81 95 22 5 5 84 100 100 100 100 100 100 100 64 100 100 100 100 100 100 100 100 100 100 100 100 100 100 100 100 100 100 100 100 100 100 100 100 100 100 100 100 100 100 100 100 100 100 100 100 44
0 0 2 96 100 100 38 5 5 6 95 86 85 100 100 100 100 100 100 100 100 100 100 100 100 100 100 100 100 100 100 100 100 100 100 100 100 100 100 100 100 100 100 100 100 100 100 100 100 100 100 100 100 58
0 0 0 5 44 100 100 57 5 6 2 77 76 100 100 100 100 100 100 100 100 100 100 100 100 100 100 100 100 100 100 100 100 100 100 100 100 100 100 100 100 100 100 100 100 100 100 100 100 100 100 100 100 99
0 0 0 0 16 100 100 100 69 5 17 45 46 86 100 100 100 100 100 100 100 100 100 100 100 100 100 100 100 100 100 100 100 100 100 100 100 100 100 100 100 100 100 100 100 100 100 100 100 100 99 100 100 100
0 0 0 3 40 100 99 88 97 20 15 11 36 98 100 100 100 100 100 100 100 100 100 100 100 100 100 100 100 100 100 100 100 100 100 100 100 100 100 100 100 100 100 100 100 100 100 100 100 100 100 96 100 100
0 0 1 79 100 97 21 24 13 14 6 9 83 91 40 73 100 100 100 100 100 100 100 100 100 100 100 100 100 100 100 100 100 100 100 100 100 100 100 100 100 100 100 100 100 100 100 100 100 100 100 100 100 100
1 17 0 5 89 9 11 9 95 41 28 67 43 47 100 100 26 97 100 100 100 100 100 100 100 100 100 100 100 100 100 100 100 100 100 100 100 100 100 100 100 100 100 100 100 100 100 100 100 100 100 100 100 100
36 0 0 99 99 7 96 100 75 76 72 75 75 80 24 95 78 95 100 100 100 100 100 100 100 100 100 100 100 100 100 100 100 100 100 100 100 100 100 100 100 100 100 100 100 100 100 100 100 99 95 100 100 100
0 0 0 50 89 51 11 98 100 100 75 68 24 5 52 100 100 99 100 100 100 100 100 100 100 100 100 100 100 100 100 100 100 100 100 100 100 100 100 100 100 86 100 100 100 100 100 100 100 100 100 100 100 100
0 0 0 0 6 95 30 12 95 100 100 100 100 99 99 88 57 13 30 100 100 100 100 100 100 100 100 100 100 100 100 100 100 100 100 100 100 100 91 100 96 67 72 81 100 100 100 100 100 100 100 100 72 100
0 4 1 0 0 1 55 11 71 98 100 100 100 100 100 100 100 100 84 59 100 100 100 100 100 100 100 100 100 100 100 100 100 100 100 100 100 100 100 100 99 56 5 5 25 99 100 100 100 100 100 100 100 100
5 5 0 0 8 5 4 5 5 30 92 63 39 62 92 82 61 88 94 98 100 100 94 94 97 100 100 90 28 96 100 100 100 100 100 91 77 91 100 100 100 100 68 29 9 5 29 99 100 91 100 100 94 25
0 0 4 4 5 38 42 4 5 12 11 56 78 90 71 97 30 27 64 58 99 81 70 95 100 100 94 90 86 36 25 77 100 99 91 82 85 98 54 80 96 54 5 5 5 32 89 92 62 23 4 5 12 45
51 81 65 5 9 21 11 64 67 52 100 70 79 100 100 99 79 52 96 100 100 77 75 41 9 21 64 97 96 100 100 100 100 100 100 100 100 95 95 100 100 96 83 62 48 67 61 11 12 6 2 17 10 5
73 47 50 99 44 84 81 43 96 87 90 78 21 68 100 100 100 100 64 100 100 100 90 71 80 32 53 87 11 5 12 99 18 39 5 5 5 8 5 5 5 5 5 5 5 2 0 4 5 5 4 29 64 45
100 100 100 96 100 100 99 5 59 91 5 45 22 59 87 69 84 45 94 86 99 95 25 42 12 99 100 92 41 5 5 2 0 4 74 67 18 5 5 5 1 3 4 4 5 21 48 61 47 35 5 4 4 4
100 100 100 39 51 41 13 30 23 7 13 7 82 13 65 96 99 81 71 9 2 5 16 49 41 86 78 50 40 5 4 1 0 25 99 100 73 6 3 0 0 0 2 0 0 0 0 0 2 3 5 5 5 5
30 20 47 5 8 31 58 3 2 5 5 12 46 6 32 76 31 3 3 3 11 32 56 89 100 84 59 38 6 5 5 0 0 1 58 68 32 5 4 0 1 4 5 5 4 0 2 1 5 5 5 5 5 4
98 72 6 54 11 7 5 8 5 6 6 5 5 17 5 5 5 7 6 15 81 98 89 48 31 10 4 5 5 5 5 2 0 0 0 0 0 0 0 2 5 4 4 5 7 7 55 8 27 40 36 5 5 5
85 100 84 5 5 5 5 8 40 54 15 28 67 57 59 20 43 5 5 5 5 5 5 13 14 10 20 4 5 5 6 5 2 2 2 0 0 2 5 5 5 21 5 66 92 86 24 5 29 5 5 5 5 3
87 46 35 58 66 29 5 12 5 5 5 26 8 7 21 77 94 44 5 5 5 4 0 5 5 5 5 6 5 5 4 5 5 5 5 5 5 5 5 5 5 9 5 65 90 65 5 5 5 5 17 48 80 64
100 97 24 94 30 6 12 22 41 100 16 21 100 97 71 21 12 16 5 5 5 5 1 0 1 5 5 5 5 5 5 5 5 3 5 5 5 5 5 5 5 5 8 86 42 5 7 74 99 76 80 69 47 5
5 9 46 18 76 99 99 44 19 9 84 100 96 95 71 7 8 59 99 43 5 5 5 5 4 5 5 5 27 14 6 27 5 5 5 5 5 5 5 5 5 5 8 56 99 100 92 41 38 9 33 69 5 5

GFSWCAN_prec_cloud_012.txt.gz
Cloud_Cover
1 0 0 0 0 0 0 0 0 3 5 5 5 5 5 5 5 36 7 10 38 100 54 60 28 95 99 42 50 6 56 95 5 100 49 14 4 0 0 12 100 100 100 100 100 100 98 10 2 5 7 0 0 0
0 0 0 0 0 0 0 0 5 5 5 5 5 4 5 5 5 5 82 23 56 100 89 6 5 5 4 7 10 9 46 89 90 100 100 100 24 17 5 39 78 100 100 100 100 100 93 16 5 4 95 5 0 0
0 0 0 0 1 5 5 19 5 5 5 5 5 5 5 5 96 100 100 100 100 100 100 51 5 3 2 5 92 98 17 81 100 100 100 100 100 27 64 100 80 100 100 100 100 100 100 98 0 1 11 0 0 0
0 0 0 0 0 2 5 26 77 100 100 100 79 28 24 78 100 100 100 100 100 100 100 100 99 5 6 62 47 56 95 100 100 100 100 100 100 85 100 100 100 100 100 100 100 100 100 98 87 100 94 5 42 89
0 0 0 0 0 3 37 5 48 100 100 98 100 100 100 100 100 48 32 63 75 100 100 69 2 6 8 19 81 100 100 100 97 98 100 100 100 100 100 99 100 100 100 100 100 100 100 100 100 100 100 100 16 7
0 0 0 0 5 56 100 100 100 100 100 100 100 100 100 100 100 100 100 100 100 100 100 98 97 71 100 100 100 100 100 100 100 98 91 100 100 100 100 100 100 100 100 100 100 100 100 100 100 100 88 99 90 100
0 0 0 1 5 5 56 100 100 100 100 100 100 100 100 100 100 100 100 100 100 100 100 100 100 77 84 99 100 100 100 100 98 100 100 100 100 100 100 100 100 100 100 100 100 100 100 100 67 100 100 100 100 100
0 1 5 0 0 5 10 75 100 100 100 100 100 100 100 100 100 100 100 100 100 100 100 100 100 100 100 100 100 100 100 98 75 100 100 100 100 100 100 100 98 100 100 100 100 100 100 100 89 100 100 100 100 100
0 0 3 4 5 4 3 14 87 100 94 100 100 100 100 100 100 100 100 100 100 100 100 100 100 100 100 100 100 100 100 100 100 100 100 100 100 100 100 100 100 100 100 100 100 98 78 93 100 100 100 100 100 100
0 0 0 3 6 5 1 5 83 87 34 100 100 100 100 100 74 99 100 100 100 100 100 100 100 100 100 100 100 100 100 100 100 100 100 100 100 100 100 100 100 100 100 99 100 100 100 100 100 100 100 100 100 100
0 0 0 2 15 5 5 2 5 5 76 100 100 100 100 100 100 100 100 100 100 100 100 100 100 100 100 100 100 100 100 100 100 100 100 100 100 100 100 100 100 100 100 100 100 100 100 100 100 100 100 100 100 100
0 0 0 2 5 5 5 0 5 13 88 100 100 100 100 100 100 100 100 100 100 100 100 100 100 100 100 100 100 100 100 100 100 100 100 100 100 100 100 100 100 100 100 100 100 100 100 100 100 100 100 100 100 100
0 0 4 26 5 5 5 5 4 52 16 100 100 100 100 100 100 100 100 100 100 100 100 100 100 100 100 100 100 100 100 100 100 100 100 100 100 100 100 100 100 100 100 100 100 100 100 100 100 100 100 100 96 100
0 1 5 5 5 5 5 5 4 5 91 100 100 100 100 100 100 100 100 100 100 100 100 100 100 100 100 100 100 100 100 100 100 100 100 100 100 100 100 100 100 100 100 100 100 100 100 100 100 100 100 100 100 100
0 0 0 11 22 10 88 10 3 1 4 71 98 100 100 95 99 100 100 100 100 100 100 100 100 100 100 100 100 100 100 100 100 100 100 100 100 100 100 100 100 100 100 100 100 100 100 100 100 100 100 100 100 96
0 2 2 7 100 100 30 1 5 4 24 94 100 93 100 100 100 100 100 99 100 100 100 97 100 100 100 100 100 100 100 100 100 100 100 100 100 100 100 100 100 100 100 100 100 100 100 100 100 100 100 100 99 100
2 17 5 0 26 100 54 3 0 5 100 72 82 70 80 100 100 100 100 100 100 100 100 100 100 100 100 100 100 100 100 100 100 100 100 100 100 100 100 100 100 100 100 100 100 100 100 100 100 100 100 100 100 100
17 0 2 4 10 45 96 99 14 64 83 46 19 19 99 100 100 100 100 100 100 100 100 100 100 100 100 100 100 100 100 100 100 100 100 100 100 100 100 100 100 100 100 100 100 100 100 100 100 100 100 100 100 100
0 0 0 2 39 70 62 53 85 45 90 100 85 75 80 98 100 100 100 100 100 100 100 100 100 100 100 100 100 100 100 100 100 100 100 100 100 100 100 100 100 100 100 100 100 100 100 100 100 100 100 100 100 100
2 0 0 1 1 0 5 70 93 53 100 96 85 100 89 98 95 98 100 100 100 100 100 100 100 100 100 100 100 100 100 100 100 100 100 100 100 100 100 100 100 100 100 100 100 100 100 100 100 100 100 100 100 100
0 0 0 0 0 1 5 3 57 47 5 72 88 40 100 100 100 100 100 100 100 100 100 54 90 100 100 100 100 100 100 98 10 92 100 100 100 38 41 11 23 84 100 94 27 11 91 100 100 100 100 100 100 100
7 0 0 2 1 1 2 3 5 34 74 65 86 35 5 10 30 42 83 100 100 100 100 100 95 100 100 100 100 100 100 100 100 70 70 62 56 71 99 40 30 14 5 4 5 5 5 29 41 16 5 26 94 98
45 63 26 7 83 58 6 4 5 66 100 100 98 62 88 93 64 77 40 90 98 76 56 25 16 71 100 97 97 70 77 78 44 52 53 28 37 94 100 99 100 97 100 89 64 57 54 33 24 5 2 4 5 5
94 100 73 77 100 100 67 29 23 7 98 100 100 100 100 100 98 84 93 99 95 96 90 10 51 5 25 17 96 100 78 91 54 85 100 100 99 80 36 10 5 14 56 74 31 8 4 3 4 4 2 5 5 5
73 79 100 99 99 93 69 10 92 16 49 74 37 22 70 82 90 46 40 50 29 4 2 20 9 6 5 5 0 0 0 0 0 0 3 5 5 10 5 5 1 0 2 4 4 3 4 4 2 0 0 0 0 4
65 3 29 5 5 5 5 5 5 6 5 5 5 20 39 53 11 6 5 5 5 5 27 69 92 92 51 5 5 1 4 5 5 0 4 5 5 5 5 5 1 0 0 0 0 0 0 0 0 0 0 1 1 0
48 3 3 3 4 5 5 5 5 5 5 5 43 20 9 35 5 5 4 5 5 23 80 23 23 86 71 54 8 5 5 5 3 10 5 5 3 1 0 0 0 0 0 0 0 0 0 0 4 3 5 5 2 3
4 4 5 5 13 5 5 5 5 5 5 5 6 5 5 5 5 5 5 4 14 91 61 43 84 99 41 7 6 5 4 0 0 0 2 0 2 4 5 3 0 0 0 2 5 5 5 4 4 3 2 1 0 0
5 5 5 16 5 5 5 5 6 9 8 5 40 36 7 5 5 5 5 5 5 5 2 0 0 0 3 5 5 5 5 5 5 1 0 0 0 0 0 2 4 2 1 5 5 12 11 5 5 5 5 5 0 1
63 20 27 5 5 5 5 6 13 40 10 5 53 100 84 31 66 20 18 5 5 5 5 5 5 5 0 1 5 5 5 7 5 5 5 1 0 0 0 0 1 5 4 5 22 35 8 5 4 4 2 5 5 5
25 82 27 9 97 100 100 98 80 72 98 100 79 78 90 65 34 16 5 5 5 32 23 5 5 5 4 0 1 5 6 5 5 5 5 5 5 5 5 5 5 5 5 5 5 5 5 5 5 5 5 5 5 5
89 27 5 23 27 100 100 100 100 82 84 81 100 43 52 66 58 100 99 43 15 32 9 5 5 5 3 0 5 5 1 4 5 5 5 5 5 5 8 35 46 44 11 28 67 67 56 32 5 5 5 5 5 5
4 67 9 5 5 19 57 78 97 100 90 44 84 8 44 14 6 9 96 80 6 5 5 1 2 4 5 5 22 5 5 8 5 5 5 5 5 5 20 30 56 69 85 100 100 100 100 97 71 28 5 5 5 5

GFSWCAN_prec_cloud_015.txt.gz
Cloud_Cover
0 0 0 0 0 5 44 100 100 100 79 81 97 29 93 100 100 97 78 24 35 76 25 66 100 99 82 80 100 25 7 47 8 99 99 9 14 5 2 0 0 73 95 100 64 52 47 0 5 81 49 13 0 3
0 0 0 0 0 5 100 97 84 100 100 100 100 100 89 86 100 100 100 100 100 100 57 6 5 5 5 9 98 100 37 12 5 17 77 100 99 96 5 4 0 5 63 90 81 63 5 56 69 94 92 15 18 0
0 0 0 0 0 8 86 73 82 82 97 100 100 100 100 100 100 100 100 100 100 100 95 100 83 78 5 8 64 100 100 99 98 100 100 100 100 100 54 3 4 5 5 5 100 100 8 100 57 99 76 50 16 4
0 0 0 0 0 5 4 5 100 100 100 100 100 100 100 100 100 100 100 98 99 95 100 58 13 4 100 99 93 88 98 100 100 100 100 100 100 100 100 78 80 30 15 31 34 100 100 100 83 84 32 10 0 0
0 0 0 0 0 0 3 16 80 84 100 100 100 100 100 100 100 100 100 100 100 100 100 75 98 100 100 96 100 95 100 100 100 100 100 100 100 100 100 100 100 62 88 61 14 99 100 100 98 20 53 10 10 4
0 0 0 0 0 0 5 60 100 100 100 100 100 100 100 100 100 100 100 100 100 100 100 100 26 35 64 86 94 100 81 100 99 66 94 100 100 100 100 100 100 100 100 100 91 8 100 100 100 100 100 96 52 65
0 0 0 0 6 6 4 5 16 100 100 100 100 100 100 100 100 100 100 100 100 100 100 100 100 100 100 100 100 85 100 100 92 74 28 82 84 100 100 100 100 100 100 100 100 100 100 100 100 100 100 57 28 72
0 0 0 0 5 10 1 20 70 100 100 100 100 100 100 100 100 100 100 100 100 100 100 100 100 100 100 100 100 100 100 100 100 100 100 96 100 100 100 97 100 100 100 100 100 100 100 100 100 100 100 100 98 74
0 0 0 0 0 5 3 16 31 100 100 100 100 100 100 100 100 100 100 100 100 100 100 100 100 100 100 100 100 100 100 100 100 100 100 100 100 100 100 100 100 100 100 100 100 100 100 100 100 100 100 100 100 100
0 0 0 5 1 23 88 5 96 100 100 100 100 100 100 100 100 100 100 100 100 100 100 100 100 100 100 100 100 100 100 100 100 100 100 100 100 100 100 100 100 100 100 100 100 100 100 100 100 100 100 100 100 100
0 0 0 0 0 0 1 0 24 100 42 84 100 93 100 100 100 100 100 100 100 100 100 100 100 100 100 100 100 100 100 100 100 100 100 100 100 100 100 100 100 100 100 100 97 100 100 100 100 100 100 100 100 100
0 0 0 0 0 5 5 6 98 100 100 100 99 100 100 92 100 100 100 100 100 100 100 100 100 100 100 100 100 100 100 100 100 100 100 100 100 100 100 100 100 100 100 100 100 100 100 100 100 100 100 100 100 100
5 13 17 5 5 2 4 0 18 58 99 100 98 100 100 100 100 100 100 100 100 100 100 100 100 100 100 100 100 100 100 100 100 100 100 100 100 100 100 100 100 100 100 100 100 100 100 100 100 100 100 100 100 100
92 54 44 30 5 5 0 0 0 17 21 100 96 100 73 100 100 100 100 100 100 100 100 100 100 88 100 100 100 100 100 100 100 100 100 100 100 100 100 100 100 100 100 100 100 100 100 100 100 100 100 100 100 100
42 42 6 3 5 0 0 0 0 10 66 100 100 100 99 99 96 100 100 100 100 99 100 100 90 100 100 100 100 100 100 100 100 100 100 100 100 100 100 100 100 100 100 100 100 100 100 100 100 100 100 100 100 100
46 4 0 0 4 4 0 0 0 5 62 100 100 100 67 100 100 100 100 100 100 100 100 100 100 69 100 100 100 100 100 100 100 100 100 100 100 100 100 100 100 100 100 100 100 100 100 100 100 100 100 100 100 100
48 17 0 0 5 3 0 0 0 5 68 100 100 100 100 100 100 100 100 100 100 100 100 100 100 100 98 100 100 100 100 100 100 100 100 100 100 100 100 100 100 100 100 100 100 100 100 100 100 100 100 100 100 100
41 0 0 0 15 16 2 12 58 62 52 14 100 100 100 100 100 48 97 100 100 99 100 100 100 100 100 100 100 100 100 100 100 100 100 100 100 100 100 100 100 100 100 100 100 100 100 100 100 100 100 100 100 100
10 0 0 0 45 21 4 92 89 100 100 100 72 96 100 100 100 100 68 68 90 100 100 100 100 100 100 100 100 100 100 99 100 100 100 100 100 100 100 100 100 100 100 100 100 100 100 100 100 100 100 100 100 100
0 0 1 1 2 0 0 13 65 32 18 32 84 96 94 86 100 100 100 43 82 100 100 100 100 100 100 100 82 100 100 100 100 100 100 100 100 100 90 100 100 100 100 100 100 100 100 100 100 100 100 100 100 100
0 0 2 5 4 0 0 3 5 9 74 93 81 100 100 100 78 98 100 100 94 97 22 69 94 100 92 99 100 98 31 24 5 46 73 25 76 100 99 14 6 11 32 8 19 89 45 9 56 9 44 80 99 100
2 3 5 5 48 4 9 5 5 7 78 100 100 67 73 82 43 64 78 100 100 100 100 100 100 98 72 38 87 100 97 94 95 68 12 18 54 92 87 91 58 38 51 52 30 40 70 88 39 9 7 58 49 5
3 19 5 5 5 5 40 14 22 65 57 89 100 100 89 99 42 7 70 100 98 87 92 86 58 6 37 70 78 77 64 7 31 44 42 23 48 6 5 25 71 48 31 21 15 5 5 5 5 5 5 5 9 5
4 1 1 0 1 32 0 4 5 5 6 32 38 38 61 52 30 8 15 5 5 5 12 61 17 3 0 0 0 1 2 1 8 68 48 6 5 4 4 5 5 5 2 1 0 0 0 0 0 0 0 1 1 4
2 0 3 29 0 4 5 5 5 26 6 5 5 5 5 5 5 5 5 5 5 5 5 5 5 5 5 5 5 5 5 0 0 0 0 0 2 5 5 5 2 0 0 0 0 0 0 0 0 0 0 0 0 0
19 1 28 1 5 5 5 5 5 5 5 5 50 85 30 5 5 5 5 5 5 22 39 5 5 5 5 5 5 4 3 5 5 4 0 0 0 0 1 0 0 0 0 0 0 0 0 0 0 0 3 4 4 4
6 4 5 5 5 5 5 5 5 5 5 5 11 31 5 5 5 5 5 5 5 4 7 5 5 5 2 2 0 2 5 5 5 5 5 1 0 2 3 2 2 0 0 0 0 0 0 0 0 0 0 0 0 0
0 3 5 5 5 5 5 5 5 5 19 5 5 5 5 5 5 5 5 5 5 5 14 10 5 5 4 0 0 0 0 0 5 8 22 5 5 5 1 0 0 0 0 0 1 0 5 5 5 5 5 5 1 0
5 5 0 5 6 79 88 16 5 9 7 42 7 5 5 5 5 5 5 63 83 10 68 5 3 0 0 0 0 0 0 0 0 2 5 9 64 82 38 7 5 3 2 1 5 5 5 5 5 5 5 5 5 5
5 5 0 0 3 5 5 5 10 29 15 91 49 66 80 91 33 10 31 40 58 94 81 5 4 0 5 5 5 5 5 5 5 1 0 0 0 5 5 5 3 4 5 5 5 5 5 7 5 6 8 5 5 5
87 38 3 3 4 5 5 6 93 100 100 100 100 100 100 100 99 67 13 6 44 56 24 5 5 4 5 34 31 8 20 33 8 5 3 0 0 2 4 4 4 4 5 5 5 7 23 42 32 77 82 72 48 19
5 10 48 8 3 5 5 5 88 100 100 100 100 100 100 90 47 9 43 80 57 84 5 5 5 5 4 5 5 5 12 26 8 5 5 5 5 5 5 5 5 5 13 53 68 94 96 99 100 100 100 100 100 100
12 16 21 4 4 5 5 4 5 6 5 5 5 74 88 45 66 81 88 87 96 56 5 5 5 5 4 0 0 2 5 5 5 5 5 5 5 5 5 5 7 47 96 100 100 100 100 100 100 100 100 100 98 56

GFSWCAN_prec_cloud_021.txt.gz
Cloud_Cover
100 98 100 96 0 0 0 0 0 52 49 6 30 100 100 100 100 100 100 100 100 100 98 100 100 100 96 100 91 97 51 57 99 68 99 97 85 17 4 0 0 2 6 16 4 4 0 0 0 0 2 4 11 9
100 97 100 69 0 0 0 0 0 3 44 72 98 100 100 100 100 100 100 100 100 100 100 100 100 100 100 98 100 100 66 41 96 90 73 100 80 44 11 44 23 4 2 63 1 0 0 0 0 0 0 0 0 5
88 100 100 5 0 0 0 0 0 4 6 12 100 100 100 100 100 100 100 100 100 100 100 100 99 100 94 10 20 99 100 95 27 14 86 98 75 71 69 86 69 15 5 10 1 3 2 0 0 0 0 0 0 63
100 98 100 15 0 0 0 0 0 0 29 77 100 100 100 100 100 100 100 100 100 100 100 100 93 88 92 100 93 100 100 100 100 100 100 100 100 50 90 39 55 38 35 5 5 1 0 0 0 0 0 0 8 33
91 100 100 5 0 0 17 0 0 8 36 87 100 100 100 100 100 100 100 100 100 100 100 100 100 100 92 67 100 100 100 100 100 100 100 100 100 100 84 98 100 38 8 16 5 4 16 0 0 2 0 0 31 39
100 100 100 5 0 2 38 0 5 54 44 99 100 100 100 100 100 100 100 100 100 100 100 100 100 100 100 100 100 100 100 100 100 100 100 100 100 100 100 85 100 100 26 5 3 5 0 28 0 2 0 45 19 98
100 100 19 1 0 1 0 4 90 57 100 100 100 100 100 76 100 100 100 100 100 100 100 100 100 100 100 100 100 100 100 100 100 100 100 100 100 100 100 98 100 100 100 100 38 6 4 2 7 20 53 74 84 100
100 100 8 0 5 57 88 100 88 87 100 100 100 100 99 99 100 100 100 100 100 100 100 100 100 100 100 100 100 100 100 100 100 100 100 100 100 100 100 99 100 100 100 100 100 38 5 28 20 83 100 100 94 100
100 76 53 90 100 100 100 100 100 100 100 100 60 70 82 93 100 100 100 100 100 100 100 100 100 100 100 100 100 100 100 100 100 100 100 100 100 100 100 100 100 100 100 100 100 96 74 87 63 100 100 100 100 100
97 100 100 100 100 100 100 100 100 97 79 4 99 18 91 99 100 100 100 100 100 100 100 100 100 100 100 100 100 100 100 100 100 100 100 100 100 100 100 100 100 100 100 100 100 100 100 100 100 100 100 100 100 100
100 100 100 100 100 96 40 32 64 100 0 78 100 18 100 99 100 100 100 100 100 100 100 100 100 100 100 100 100 100 100 100 100 100 100 100 100 100 100 100 100 100 99 99 100 100 100 100 100 100 100 100 99 93
100 100 100 97 46 39 4 13 98 95 85 98 100 100 94 96 100 100 100 100 100 100 100 100 100 100 100 100 100 100 100 100 100 100 100 100 100 100 100 100 100 100 100 100 100 100 100 100 100 100 100 100 100 100
100 100 77 78 33 0 0 34 86 100 73 96 95 100 99 72 99 100 100 100 100 100 100 100 100 100 100 100 100 100 100 100 100 100 100 100 100 100 100 100 100 100 100 100 100 100 100 100 100 100 100 100 100 100
100 86 97 11 0 0 18 9 55 5 9 66 100 100 100 100 100 100 100 96 100 100 100 100 100 100 100 100 100 100 100 100 100 100 100 100 100 100 100 100 100 100 100 100 100 100 100 100 100 100 100 100 100 100
100 100 3 0 0 0 0 9 8 34 5 9 100 100 100 100 99 89 100 99 100 100 100 96 100 100 100 100 100 100 100 100 100 100 100 100 100 100 100 100 100 100 100 100 100 100 100 100 100 100 100 100 100 100
99 26 0 0 0 0 4 0 11 65 5 21 95 85 100 100 100 100 100 100 100 100 100 94 90 98 100 100 100 100 100 100 100 100 100 100 100 100 100 100 100 100 100 100 100 100 100 100 100 100 100 100 100 100
14 0 0 0 0 2 5 3 2 64 63 6 25 8 66 100 100 91 97 100 100 84 64 100 97 100 99 100 100 100 100 100 100 100 100 100 100 100 100 100 100 100 100 100 100 100 100 100 100 100 100 100 100 100
0 0 0 0 14 0 2 4 5 14 70 97 99 81 100 34 94 100 100 100 100 91 58 31 78 99 100 100 100 99 98 100 100 100 100 100 100 100 100 100 100 100 100 100 100 56 95 100 100 100 100 100 100 100
0 1 5 0 1 0 0 0 13 40 39 95 59 7 49 77 83 17 8 33 75 100 100 100 100 97 98 100 92 82 56 33 9 46 85 96 84 100 100 100 100 100 100 100 100 100 100 83 48 99 100 100 100 100
0 0 0 0 0 0 0 5 5 5 12 54 52 6 5 5 4 3 5 5 5 5 4 8 17 37 7 5 5 5 5 5 5 5 34 89 70 98 99 99 99 100 100 100 100 100 100 100 100 100 87 100 100 100
0 0 0 0 0 0 1 5 5 5 5 5 33 14 12 8 6 5 5 5 5 5 5 74 88 79 58 45 6 5 0 0 0 0 4 5 5 5 6 77 67 100 100 100 100 100 100 100 100 100 100 100 51 66
0 0 0 0 0 2 4 0 5 5 5 5 5 5 5 5 5 5 5 6 5 5 61 82 68 77 9 5 4 0 0 0 0 0 0 1 0 1 5 3 4 5 6 40 91 34 9 90 100 72 98 100 100 94
0 0 0 0 0 16 2 4 4 4 4 1 2 4 5 5 5 5 5 5 5 21 80 84 27 5 22 7 0 0 0 0 0 0 0 0 0 1 0 0 0 0 0 0 3 5 5 5 6 26 67 28 5 5
0 0 0 0 7 32 5 5 5 5 5 5 6 10 4 6 5 5 5 5 5 5 5 5 5 5 3 0 0 0 0 0 0 0 0 0 0 0 0 0 0 0 0 0 0 0 0 4 5 5 3 3 4 4
0 1 11 0 0 0 4 5 5 5 5 5 22 99 100 100 82 52 22 11 24 5 5 5 5 5 2 0 0 0 0 0 0 0 0 0 0 0 2 0 0 0 0 0 0 0 0 1 0 2 4 5 5 5
0 0 0 0 0 0 0 0 0 1 5 5 5 24 98 100 100 100 56 69 36 5 5 5 5 5 5 5 1 4 5 5 5 5 2 0 0 0 0 1 1 4 0 5 5 5 5 5 5 5 5 5 2 5
0 0 0 0 0 0 0 0 0 1 4 5 5 62 97 97 49 26 36 44 89 100 91 85 30 5 7 8 5 5 5 5 5 5 5 5 3 0 0 1 1 1 0 0 5 5 5 5 5 5 5 5 5 5
5 5 1 0 0 0 0 4 1 5 16 33 20 96 96 6 5 5 52 72 100 100 100 100 88 16 36 84 85 42 5 5 5 5 5 5 4 4 2 4 3 1 4 5 5 5 5 5 5 5 5 5 5 5
26 88 60 5 5 5 2 0 3 3 5 5 24 12 6 41 56 75 86 81 100 100 100 100 100 44 49 76 70 69 5 5 5 0 0 0 2 3 0 0 0 2 5 5 5 5 5 5 5 5 5 5 5 15
5 5 10 70 7 35 6 5 5 5 7 34 95 96 78 95 100 100 100 100 100 100 100 100 81 71 73 17 18 5 5 2 5 3 0 5 5 5 2 0 1 1 4 5 5 8 5 20 34 73 76 83 88 91
81 66 70 8 5 7 74 16 5 20 73 80 97 100 100 100 100 100 100 100 100 100 100 73 27 76 92 18 5 5 5 5 5 5 5 5 5 5 5 5 5 5 5 5 32 63 69 49 20 72 100 100 100 100
20 67 36 7 19 27 14 5 5 5 38 49 32 49 66 99 100 100 100 100 100 100 77 23 50 84 39 7 5 5 4 2 5 5 5 5 25 82 30 10 5 5 5 48 83 94 83 83 87 91 99 99 100 100
9 24 36 46 88 44 46 46 74 76 22 6 5 5 13 70 100 100 100 100 100 63 5 23 47 18 5 4 0 0 0 0 5 5 5 5 34 69 76 100 100 98 72 78 77 84 88 98 93 83 95 100 100 99

GFSWCAN_prec_cloud_024.txt.gz
Cloud_Cover
100 37 95 29 100 100 58 2 0 0 0 6 90 100 100 100 100 100 100 100 100 100 100 99 100 100 91 100 100 99 52 74 79 97 95 68 41 100 61 66 100 92 40 10 5 5 4 0 0 0 1 45 1 100
85 100 100 35 100 100 67 1 0 0 0 67 100 100 100 100 100 100 100 100 100 100 94 56 100 100 100 100 100 100 83 99 74 84 57 28 93 80 56 99 67 14 84 100 63 0 0 0 0 0 0 0 0 28
89 100 100 52 100 99 45 0 0 12 22 100 100 100 100 100 100 100 100 100 100 100 100 100 100 100 100 100 100 100 100 100 100 94 100 74 74 60 38 30 55 92 96 92 39 4 23 10 0 0 0 0 0 1
98 87 91 99 100 75 3 0 0 42 100 100 100 100 100 100 100 100 100 100 100 100 100 100 100 100 100 100 100 100 100 100 100 100 100 66 100 89 60 78 94 98 99 51 64 55 10 5 0 0 0 1 0 0
99 100 100 91 80 21 15 21 41 49 100 100 100 100 100 100 100 100 100 100 100 100 100 100 100 100 100 100 100 100 100 100 100 100 100 100 100 89 26 64 8 17 10 70 5 32 31 10 4 0 3 0 0 0
89 100 100 98 17 52 86 88 100 100 100 100 100 100 100 100 100 100 100 100 100 100 100 100 100 100 100 100 100 100 100 100 100 100 100 100 100 100 100 69 5 9 5 5 68 90 95 55 54 0 0 0 0 0
100 61 99 14 100 100 100 100 100 100 100 100 100 96 100 97 100 100 100 100 100 100 100 100 100 100 100 100 100 100 100 100 100 100 100 100 100 100 100 76 100 98 92 100 100 100 72 27 9 0 0 0 0 0
80 100 96 100 100 100 98 100 100 100 100 100 100 100 100 93 71 100 100 100 100 100 100 100 100 100 100 100 100 100 100 100 100 100 100 100 100 100 100 100 100 100 100 84 14 56 55 95 92 34 37 42 50 35
100 100 100 100 99 93 85 96 89 100 100 45 99 57 100 100 100 100 100 100 100 100 100 100 100 100 100 100 100 100 100 100 100 100 100 100 100 100 100 100 100 100 100 100 100 100 100 100 42 32 68 88 16 100
100 100 100 100 89 81 20 68 100 100 25 0 50 99 95 87 99 100 100 100 100 100 100 100 100 100 100 100 100 100 100 100 100 100 100 100 100 100 100 100 100 100 100 100 100 100 100 100 90 57 56 68 100 100
100 100 100 98 33 70 22 89 100 53 9 10 62 93 18 75 100 100 100 100 100 100 100 100 100 100 100 100 100 100 100 100 100 100 100 100 100 100 100 100 100 100 71 100 100 100 37 44 15 82 100 100 100 100
100 100 100 16 91 46 41 57 100 40 27 32 61 100 38 93 100 100 100 97 96 100 100 100 100 100 100 100 100 100 100 100 100 100 100 100 100 100 100 100 100 100 100 100 100 100 100 100 100 100 100 100 100 97
100 100 86 98 21 0 8 27 27 78 21 10 61 100 100 100 100 100 100 100 100 97 88 100 100 100 100 100 100 100 100 100 100 100 100 100 100 100 100 100 100 100 100 100 100 100 100 100 100 100 100 100 100 100
93 100 78 6 0 0 0 0 0 11 88 6 47 100 100 98 100 100 100 100 100 82 71 98 100 100 100 100 100 100 100 99 100 100 100 100 100 100 100 100 100 100 100 100 100 100 100 100 100 100 100 100 100 100
17 0 0 0 0 0 0 0 0 5 8 38 83 100 100 98 100 100 88 55 21 72 91 70 97 90 77 98 100 100 100 100 100 100 100 100 100 100 100 100 100 100 100 100 100 100 100 100 100 100 100 100 100 100
3 10 2 0 0 0 0 10 0 3 0 5 50 51 100 100 100 92 99 90 83 68 60 29 21 42 16 95 100 100 100 100 100 100 100 100 100 100 100 100 100 100 100 100 100 100 100 100 100 100 100 100 100 100
35 0 0 0 0 0 0 5 2 1 5 31 51 5 5 7 27 100 94 7 84 84 71 90 45 98 14 89 100 100 100 100 100 100 100 85 100 100 100 100 100 100 100 100 100 100 100 100 100 100 100 100 100 100
0 0 0 0 4 0 0 1 5 1 26 22 26 74 19 18 10 5 5 5 89 61 73 27 36 22 54 97 100 88 72 91 95 100 100 100 100 100 100 100 100 100 100 95 100 100 100 100 100 100 100 100 100 100
0 3 0 0 7 7 0 0 0 5 5 5 42 49 8 5 1 5 5 3 4 5 2 11 73 100 98 82 84 62 23 14 68 83 87 100 100 100 100 100 87 92 100 100 100 100 90 97 99 76 93 100 100 100
6 0 0 0 18 0 0 0 0 2 14 4 10 57 11 6 5 4 5 5 3 5 5 70 83 96 94 73 8 5 5 5 7 90 92 97 58 76 100 100 100 100 95 77 73 13 12 43 52 37 93 94 100 98
0 0 0 0 0 0 0 0 1 0 0 13 9 33 39 36 6 5 5 5 5 5 29 67 85 79 6 5 4 5 4 2 5 5 5 5 5 5 5 87 100 100 100 100 100 99 52 44 14 6 11 44 98 100
0 4 0 0 0 0 4 5 5 2 1 2 27 5 5 13 8 3 5 5 8 54 23 46 47 56 79 32 4 0 0 0 2 5 5 4 5 5 5 1 1 18 42 73 70 42 90 99 100 100 74 43 64 55
3 10 0 0 0 36 42 6 5 5 8 0 9 37 15 47 12 22 43 7 46 49 38 6 4 0 4 5 0 1 0 1 5 5 4 4 23 27 5 5 5 4 5 4 5 5 22 5 6 43 81 93 70 5
66 0 0 0 5 32 0 0 0 0 3 5 5 5 8 8 10 61 75 100 46 55 49 5 5 5 5 5 5 5 0 3 5 5 5 5 5 28 5 5 5 5 5 8 38 62 45 24 3 5 5 5 5 5
44 11 36 86 0 0 0 0 0 3 5 5 37 31 22 13 97 91 85 100 55 7 42 9 16 5 5 5 5 5 5 5 4 5 5 0 5 5 62 71 68 52 5 47 83 83 86 89 96 70 42 5 5 5
29 2 47 0 0 0 0 0 1 5 5 5 5 6 41 88 96 59 38 48 43 12 35 40 56 20 73 27 9 23 50 83 60 8 5 0 0 5 10 64 81 99 25 7 56 88 100 100 100 100 100 87 21 42
9 0 0 0 0 4 5 5 6 47 52 66 90 100 70 31 29 54 40 22 38 34 100 98 98 100 68 15 36 95 100 100 100 100 76 13 5 5 5 5 23 18 4 26 74 93 100 100 100 100 100 100 100 100
5 5 5 3 5 5 5 5 5 5 5 5 5 15 72 97 90 100 89 96 100 87 62 100 100 100 96 89 95 100 100 98 44 51 32 50 42 42 5 5 5 0 4 20 57 99 100 100 100 100 100 99 100 97
5 5 5 9 7 5 5 6 25 5 1 0 5 36 24 5 60 87 84 99 78 100 100 100 100 100 97 96 93 5 0 1 5 5 5 53 68 52 23 14 52 39 67 100 31 3 2 44 71 81 94 100 100 100
5 5 24 5 5 30 66 65 28 5 5 5 5 5 5 5 5 17 94 100 100 100 100 100 99 100 96 5 5 5 5 5 5 5 5 25 64 76 98 93 97 97 87 100 100 96 38 69 92 100 100 98 100 100
5 5 5 23 5 13 5 5 5 8 29 81 93 28 13 9 10 95 100 100 100 85 33 72 98 33 16 5 3 1 8 67 5 4 5 58 98 100 100 92 100 100 100 100 100 100 98 100 100 99 100 100 97 89
35 6 5 33 75 18 5 5 23 80 100 100 100 100 5 5 60 100 94 71 31 5 8 79 65 22 2 0 0 3 0 4 51 85 72 99 98 100 100 100 100 100 100 100 100 100 99 100 94 99 100 96 91 90
5 5 5 8 68 13 5 23 99 98 100 100 100 99 5 18 81 100 83 46 16 5 5 4 3 0 0 0 0 1 2 5 3 5 5 5 88 100 100 100 100 100 99 100 100 100 98 100 100 100 100 97 99 100

GFSWCAN_prec_cloud_027.txt.gz
Cloud_Cover
100 100 100 98 100 7 100 44 0 0 12 94 100 100 100 98 100 100 100 100 100 100 100 100 100 100 100 100 99 98 68 100 100 100 100 100 99 100 93 100 100 95 100 100 95 100 90 100 100 100 66 7 12 47
100 100 100 97 100 100 100 5 0 7 22 98 100 100 100 100 100 100 100 100 100 100 100 100 100 100 100 100 100 100 66 94 100 100 71 98 93 92 96 100 100 77 100 100 100 98 96 100 92 81 33 82 100 94
100 100 99 100 99 99 4 0 60 100 100 100 100 100 100 100 100 100 100 100 100 100 100 100 100 100 100 100 100 100 100 100 79 65 100 96 91 100 85 100 100 54 61 99 100 51 94 5 50 4 4 5 2 0
100 100 93 90 99 16 21 100 100 100 100 100 100 100 99 100 100 100 100 100 100 100 100 100 100 100 100 100 100 100 100 100 100 100 94 84 100 25 88 99 100 100 100 42 5 86 18 5 5 5 0 0 0 0
100 100 100 100 79 43 100 100 100 100 100 100 100 98 100 100 100 100 100 100 100 100 100 100 100 100 100 100 100 100 100 100 100 100 100 100 100 75 48 80 34 100 100 100 97 80 19 2 0 0 0 0 0 0
100 100 100 100 99 98 100 100 100 100 100 100 73 100 100 99 100 100 100 100 100 100 100 100 100 100 100 100 100 100 100 100 100 100 100 100 100 100 67 12 25 95 100 100 62 16 100 100 96 39 1 5 0 0
100 100 100 100 100 100 100 82 100 100 100 99 87 79 62 100 91 100 98 100 100 100 100 100 100 100 100 100 100 100 100 100 100 100 100 100 100 100 100 98 94 100 71 90 97 86 55 50 33 100 93 87 3 0
100 100 100 100 100 100 100 78 100 100 100 98 99 62 96 100 87 100 100 100 100 100 100 100 100 100 100 100 100 100 100 100 100 100 100 100 100 100 100 100 100 100 100 89 74 34 50 66 31 8 1 38 34 15
100 100 100 100 90 9 46 88 100 100 98 29 87 100 64 100 100 99 100 100 100 100 100 100 100 100 100 100 100 100 100 100 100 100 100 100 100 100 100 100 100 100 100 100 70 59 80 57 95 16 6 34 8 4
100 100 100 100 58 12 56 69 100 85 1 100 97 99 100 94 96 100 100 100 100 100 100 100 100 100 100 100 100 100 100 100 100 100 100 100 100 100 100 100 100 68 99 100 100 88 54 92 91 51 24 14 4 95
100 100 91 80 98 99 60 69 52 11 48 100 100 100 94 98 100 93 100 100 100 100 100 100 100 100 100 100 100 100 100 100 100 100 100 100 100 100 100 100 100 100 100 100 100 100 100 100 100 46 75 77 94 27
100 100 51 99 82 7 4 12 49 28 5 100 97 100 86 100 58 100 100 96 100 100 100 100 100 100 100 100 100 100 100 100 100 100 100 100 100 100 100 100 100 100 100 100 100 100 100 100 99 100 100 99 100 100
2 6 6 0 0 0 0 0 3 15 66 100 100 100 100 40 99 100 100 99 96 98 100 91 100 100 100 100 100 100 100 100 100 100 100 100 100 100 100 100 100 100 100 100 100 100 100 100 100 100 100 100 100 100
7 23 12 0 0 0 0 0 0 47 7 26 42 100 100 100 65 82 100 100 100 71 100 98 100 100 100 100 98 100 100 100 100 100 100 100 100 100 100 100 100 100 100 100 100 100 100 100 100 100 100 100 100 100
100 44 0 9 0 0 0 0 6 5 5 7 5 66 100 100 100 94 73 75 62 45 100 98 82 97 89 90 78 99 100 100 100 100 100 100 100 100 100 100 100 100 100 100 100 100 100 100 100 100 100 100 100 100
61 60 11 0 0 0 0 1 0 0 5 4 9 5 10 6 9 19 52 100 97 98 100 85 99 56 72 16 98 89 99 100 100 100 100 100 100 100 100 100 100 100 100 100 100 100 100 100 100 100 100 100 100 100
54 0 0 0 0 0 0 0 0 3 0 7 5 5 5 2 4 5 4 11 12 6 60 60 68 78 100 80 78 72 100 100 98 9 19 98 100 94 100 100 100 100 100 100 100 100 100 100 100 100 100 100 100 100
0 0 0 0 4 0 0 0 3 5 3 4 5 5 5 0 1 4 2 1 5 5 5 13 62 93 100 100 100 100 93 92 70 89 7 5 89 100 84 98 100 100 100 100 100 100 100 100 100 100 100 100 100 100
1 5 2 0 18 10 0 0 3 6 4 5 6 5 3 4 0 3 0 2 4 5 5 4 74 73 97 100 99 98 85 21 81 98 93 92 58 22 20 69 57 100 100 100 100 100 100 100 100 100 100 100 100 100
40 10 0 0 19 0 0 2 3 18 32 10 52 53 22 14 5 5 4 4 0 0 0 31 67 64 70 87 94 42 59 5 5 18 66 36 42 49 25 5 20 78 66 99 100 97 100 100 100 100 100 100 100 100
63 12 0 0 0 0 2 5 34 3 19 100 62 79 88 74 9 5 5 5 5 5 5 5 28 64 32 15 33 5 5 5 5 36 5 5 3 5 15 5 5 5 5 4 100 100 80 100 100 100 100 100 100 100
0 9 1 0 0 0 2 0 3 3 92 42 80 65 78 63 28 5 5 5 5 5 5 5 14 5 48 40 5 8 5 5 52 51 54 4 5 17 13 8 5 5 5 18 66 62 33 17 10 19 5 19 10 26
15 10 0 0 0 36 42 0 16 5 42 18 52 80 67 84 32 8 19 5 5 5 5 5 11 5 5 5 15 80 18 5 5 6 6 5 5 55 25 5 5 5 5 31 70 97 93 6 16 12 49 36 6 8
63 0 0 0 5 32 1 12 5 9 43 76 55 59 43 6 10 37 5 5 9 40 5 5 5 5 5 5 19 12 5 5 5 5 24 6 5 5 43 86 90 70 40 80 96 99 85 88 34 85 77 68 42 39
53 11 36 83 0 2 4 5 0 5 5 59 100 100 91 57 72 56 57 72 6 8 18 85 63 10 40 35 6 5 5 5 5 5 43 5 5 5 51 100 100 100 96 82 100 100 100 100 100 81 94 30 5 58
84 5 64 0 4 4 5 69 95 91 5 61 100 91 98 97 100 100 100 100 97 89 99 98 96 100 100 95 16 5 5 0 1 5 5 5 5 5 10 78 100 100 58 15 100 100 100 100 100 100 100 67 22 46
48 4 4 5 5 12 84 100 95 92 95 100 100 100 98 83 100 100 78 100 100 99 100 100 100 100 96 75 13 3 2 5 4 0 3 5 26 24 11 47 97 61 4 97 100 100 100 100 100 100 100 100 100 100
4 14 71 98 61 99 99 90 96 99 100 100 100 100 100 92 70 59 22 100 100 100 100 99 100 47 60 92 6 2 5 5 20 54 82 93 96 96 47 77 64 1 7 25 27 84 99 100 100 100 100 100 100 100
41 100 64 77 99 94 99 94 94 100 100 100 100 100 96 80 10 5 8 96 93 90 49 21 27 34 67 71 96 64 13 6 28 90 99 100 100 94 100 100 100 100 100 90 8 25 1 8 59 70 100 100 100 100
97 88 85 94 97 92 46 97 78 69 86 100 100 100 100 95 14 49 93 99 51 50 23 15 70 11 80 99 85 40 57 53 24 18 89 94 100 100 99 100 100 100 100 100 100 100 53 70 86 91 96 100 100 100
88 89 97 96 96 80 72 5 5 23 91 100 100 100 99 27 98 100 99 91 44 62 80 79 95 99 86 5 5 0 8 96 36 23 8 92 100 97 100 100 100 100 99 100 98 99 100 99 100 100 90 81 98 94
93 89 95 87 99 46 5 36 23 6 100 100 100 100 73 88 99 100 100 44 5 76 38 5 88 16 4 2 5 4 0 24 100 98 99 96 96 85 90 100 100 100 100 100 100 100 100 100 100 100 100 100 100 100
35 50 5 5 83 97 64 36 49 30 100 100 100 86 57 39 79 98 67 5 5 35 7 5 5 4 1 5 2 16 40 72 2 4 5 5 34 94 100 100 100 100 100 100 100 100 100 100 98 100 100 100 100 100

GFSWCAN_prec_cloud_030.txt.gz
Cloud_Cover
100 100 93 100 100 100 98 97 16 4 88 100 100 100 100 100 100 92 100 100 100 100 100 100 100 100 100 100 100 86 69 89 99 95 60 82 100 100 90 100 100 100 100 99 100 67 100 100 100 100 100 7 5 2
100 100 100 100 100 18 100 6 4 97 100 100 100 100 100 100 100 100 100 100 100 100 100 100 100 100 100 100 100 100 100 68 100 97 98 64 99 77 100 100 100 47 100 100 100 100 100 100 100 100 15 69 48 0
100 100 100 100 100 89 12 22 100 100 100 98 100 100 100 100 100 100 100 100 100 100 100 100 100 100 100 100 100 100 100 100 100 30 66 68 72 67 80 100 100 62 100 97 100 74 100 100 100 98 88 5 38 5
100 100 100 100 67 95 98 100 100 100 100 100 100 100 100 100 100 100 100 100 100 100 100 100 100 100 100 100 100 100 100 100 100 100 100 94 47 46 51 60 58 50 55 32 89 12 96 100 32 6 5 5 92 46
100 100 100 88 96 96 100 100 100 100 100 100 100 100 100 16 84 100 100 100 100 100 100 100 100 100 100 100 100 100 100 100 100 100 100 100 100 92 21 5 0 2 5 62 54 62 17 51 38 5 0 5 5 96
100 100 42 99 100 100 100 100 100 100 100 100 94 97 100 100 89 100 100 100 100 100 100 100 100 100 100 100 100 100 100 100 100 100 100 100 100 100 86 14 3 57 92 85 5 0 0 0 4 4 0 0 4 5
88 84 100 100 100 98 100 100 100 100 100 100 6 96 100 100 100 98 94 98 100 100 100 100 100 100 100 100 100 100 100 100 100 100 100 100 100 100 100 100 100 94 26 5 5 50 9 0 3 1 5 0 0 0
100 100 98 100 100 95 100 100 100 100 100 62 5 76 100 100 97 98 84 100 81 100 100 99 100 100 100 100 100 100 100 100 100 100 100 100 100 100 100 100 100 100 100 100 84 13 3 2 5 5 5 3 2 0
100 87 100 99 87 62 100 100 100 96 45 18 8 5 100 100 100 91 75 100 100 100 100 100 100 100 100 100 100 100 100 100 100 100 100 100 100 100 100 100 100 100 100 100 65 87 59 6 8 5 3 1 7 0
100 100 100 78 96 100 99 96 73 30 93 100 22 96 100 100 73 99 99 100 100 100 100 100 100 100 100 100 100 100 100 100 100 100 100 100 100 100 100 100 100 100 100 100 100 100 26 57 56 74 16 6 4 0
100 96 0 15 19 0 1 57 2 2 100 89 60 82 90 89 88 100 65 80 100 100 100 100 100 100 100 100 100 100 100 100 100 100 100 100 100 100 100 100 100 100 100 100 82 100 100 78 22 38 8 7 27 48
74 27 32 60 33 3 0 1 0 30 9 100 78 51 95 99 99 100 88 97 100 100 100 100 99 100 93 91 100 100 100 100 100 100 100 100 100 100 100 100 100 100 100 100 100 100 100 100 77 84 71 78 100 100
100 95 100 99 18 0 0 0 3 20 59 100 100 100 100 38 68 24 99 83 78 41 100 100 100 100 97 66 100 100 100 100 100 100 100 100 100 100 100 100 100 100 100 100 100 100 100 100 100 100 100 100 100 100
100 100 100 56 4 0 0 0 0 0 0 52 100 99 56 99 72 100 99 80 87 93 96 78 100 100 100 99 88 72 99 100 44 100 100 100 100 100 100 100 100 100 100 100 100 100 100 100 100 100 100 100 100 100
100 92 26 48 0 0 0 0 2 5 5 8 16 60 82 27 64 78 40 5 8 23 56 62 30 85 52 74 32 47 43 83 94 100 100 93 100 100 100 100 100 100 100 100 100 100 100 100 100 100 100 100 100 100
95 66 11 0 0 0 0 1 19 3 4 5 12 49 5 5 5 5 5 5 5 23 100 22 45 53 87 67 5 61 79 100 92 100 100 64 98 100 100 100 100 100 100 100 100 100 100 100 100 100 100 100 100 100
61 0 0 0 0 0 0 0 2 0 0 40 72 5 5 5 5 5 5 5 5 5 10 56 47 100 80 86 85 30 24 18 9 92 100 84 100 28 67 100 100 100 100 100 100 100 100 100 100 100 100 100 100 100
3 0 0 0 4 0 0 2 4 6 8 5 37 23 5 5 4 4 5 3 5 5 30 4 4 40 65 78 91 99 100 96 54 74 18 46 48 99 91 5 53 100 100 100 100 100 100 100 100 100 100 100 100 100
1 13 8 4 25 10 4 2 1 41 18 5 32 83 85 24 5 5 2 0 0 0 5 11 38 78 73 73 99 70 44 28 5 78 100 62 58 55 62 5 5 19 82 100 100 100 100 100 100 100 100 100 100 100
49 6 0 0 27 0 5 3 1 20 82 13 10 90 5 87 37 5 5 5 5 5 21 36 82 81 44 33 22 5 5 4 16 38 71 9 16 6 43 4 5 5 5 64 100 100 100 100 100 100 100 100 100 100
1 0 0 0 0 1 4 4 99 7 8 28 61 89 95 99 100 17 6 5 5 5 5 5 5 5 2 6 6 5 5 0 5 57 32 4 0 49 36 58 5 5 5 5 83 100 89 100 100 100 100 100 100 100
0 0 0 0 3 4 8 3 3 11 51 67 95 10 65 89 79 24 29 34 45 5 5 5 5 5 33 5 4 3 11 3 4 54 47 5 5 29 96 74 59 48 64 48 77 100 100 84 100 94 100 100 100 99
0 9 0 1 5 37 42 3 45 70 89 88 95 96 81 89 74 9 95 48 88 48 9 6 5 36 12 5 7 63 71 5 4 12 11 70 6 26 79 87 100 91 49 99 85 87 90 39 19 28 86 92 75 93
63 0 18 19 8 32 3 47 56 70 33 94 100 100 79 96 32 86 100 99 52 29 99 83 96 100 100 69 78 73 7 0 5 5 41 64 5 5 12 91 100 97 45 78 100 97 98 93 49 99 100 72 51 94
54 47 37 99 1 6 86 85 26 72 100 73 100 100 77 63 64 86 98 100 67 99 30 84 100 100 100 98 100 98 11 1 2 4 76 5 5 3 64 99 100 93 81 14 82 100 100 90 88 24 99 8 4 78
84 5 64 15 50 63 52 93 80 97 100 96 100 100 100 99 93 9 14 36 94 83 96 74 31 60 47 77 100 84 5 5 4 3 30 6 55 63 76 76 100 99 73 61 85 100 100 100 100 64 100 87 31 93
50 59 40 5 6 48 99 66 52 63 100 100 98 100 100 32 72 98 52 29 27 52 34 12 8 5 18 94 84 24 12 32 49 6 69 23 56 77 41 75 84 3 0 20 100 100 100 99 100 100 100 99 68 79
68 99 86 52 5 94 98 100 100 74 99 100 97 100 100 73 68 96 82 63 92 48 15 46 41 36 78 2 5 5 51 15 86 90 81 100 100 100 71 99 78 5 8 9 4 66 37 99 100 100 98 99 100 96
87 100 93 70 44 9 100 86 74 100 93 100 100 100 98 5 50 94 96 100 20 26 100 100 99 74 85 94 100 100 100 100 43 54 98 100 100 100 84 98 100 95 100 91 85 14 12 9 7 7 82 99 100 100
100 74 76 99 73 45 62 85 29 60 100 98 96 57 26 3 51 29 12 22 80 100 92 66 98 100 100 100 68 7 24 100 86 12 24 99 100 100 83 87 100 100 100 100 100 100 85 95 99 95 92 98 93 95
70 79 97 70 89 74 69 82 24 52 100 100 88 12 25 75 100 97 33 5 67 85 98 97 100 100 94 72 5 4 3 60 62 23 2 82 100 95 84 87 97 100 99 100 100 98 96 97 100 97 92 98 99 85
53 67 95 80 80 19 25 98 72 11 100 100 98 98 6 5 8 7 6 5 27 96 75 90 62 17 4 0 5 5 4 26 11 54 18 10 5 72 100 93 100 99 86 100 96 99 95 94 96 100 100 100 96 97
68 58 43 68 59 48 98 83 6 57 80 100 100 83 93 27 11 74 23 4 11 5 5 2 5 5 3 5 3 82 100 7 3 1 5 5 5 89 99 95 100 100 99 99 99 100 91 74 100 100 100 100 98 100

GFSWCAN_prec_cloud_033.txt.gz
Cloud_Cover
100 100 100 100 100 100 100 10 10 94 100 100 100 100 100 100 100 100 100 100 100 100 100 100 100 100 100 100 100 100 11 86 100 98 100 100 100 100 100 100 100 100 100 79 100 98 100 100 100 100 100 100 95 89
100 100 100 100 100 100 5 17 100 100 100 100 99 100 100 100 100 100 100 100 100 100 100 100 100 100 100 100 100 100 80 62 95 59 51 100 100 100 100 100 100 100 100 100 100 100 96 100 100 100 100 100 98 84
100 100 100 100 15 92 95 100 100 100 100 100 100 100 100 100 100 100 100 100 100 100 100 100 100 100 100 100 100 100 100 98 39 8 96 100 100 99 100 100 100 100 81 100 100 100 96 100 100 96 96 100 100 20
100 100 100 90 100 100 100 100 100 100 100 100 100 100 100 100 100 100 100 100 100 100 100 100 100 100 100 100 100 90 71 100 100 61 38 89 51 48 71 98 100 95 97 100 100 100 27 100 100 100 97 100 100 33
100 100 100 100 100 100 100 100 100 100 100 100 100 100 100 98 84 100 100 100 100 96 100 100 100 100 100 100 100 93 87 91 99 100 94 32 25 20 5 2 98 56 45 5 15 14 15 42 100 100 100 55 99 30
100 100 100 100 100 100 100 100 100 100 100 100 100 100 100 100 100 100 100 100 100 85 100 100 100 73 100 100 100 100 100 100 100 100 92 94 100 48 65 6 34 75 24 0 19 3 0 0 0 95 98 100 5 11
100 100 92 100 100 100 100 100 100 100 100 26 94 100 100 100 100 100 100 77 100 100 98 93 81 94 100 100 100 100 100 100 100 100 100 100 100 100 100 98 100 100 100 90 1 26 8 96 2 2 3 0 5 5
100 100 100 100 99 98 100 100 100 100 100 6 60 100 100 100 100 90 100 100 12 98 99 75 99 100 100 100 100 100 100 100 100 100 100 100 100 100 100 100 100 100 100 34 18 52 16 89 85 6 54 60 10 5
100 100 100 24 15 37 36 98 100 100 93 100 70 100 100 100 100 99 100 100 100 100 97 100 100 88 100 100 100 100 100 100 100 100 100 100 100 100 100 100 100 100 100 100 100 100 100 61 0 1 4 6 47 51
98 72 44 64 30 52 33 28 100 38 32 100 67 100 100 100 100 100 100 100 100 100 100 100 100 100 100 100 100 100 100 100 100 100 100 100 100 100 100 100 100 100 100 100 100 100 98 74 0 0 0 0 0 0
80 99 100 100 100 90 23 0 21 2 8 99 100 95 100 92 91 100 96 100 100 100 97 100 100 100 100 95 100 100 100 100 100 100 100 100 100 100 100 100 100 100 100 100 100 100 100 100 39 0 0 0 0 0
95 100 100 100 100 64 13 0 0 31 0 11 100 100 99 74 24 33 5 30 82 69 100 100 100 100 21 6 90 100 100 100 100 93 100 100 100 100 100 100 100 100 100 100 100 100 100 100 100 27 6 18 95 100
100 100 100 100 34 2 0 0 2 36 25 14 100 100 100 100 97 11 98 85 68 68 97 83 67 78 13 12 32 66 64 96 82 62 100 100 100 100 100 100 100 100 100 100 100 100 100 100 100 100 100 100 100 100
100 100 100 68 42 0 0 0 0 0 4 3 8 73 96 100 100 95 62 5 7 38 96 83 98 46 100 24 7 28 74 12 38 100 91 100 100 100 100 100 100 100 100 100 100 100 100 100 100 100 100 100 100 100
100 97 27 30 0 0 0 0 0 4 4 3 6 75 17 21 55 5 5 5 1 13 80 33 44 40 58 5 5 16 28 16 51 97 79 79 100 100 100 100 100 100 100 100 100 100 100 100 100 100 100 100 100 100
78 37 11 0 0 0 0 0 29 0 4 22 54 15 1 1 5 5 4 0 2 2 72 58 3 5 54 91 16 30 77 92 94 22 25 21 27 32 97 100 100 100 100 100 100 100 100 100 100 100 100 100 100 100
35 0 0 0 0 0 0 0 2 0 5 93 99 49 1 0 1 5 4 0 4 4 0 2 1 5 49 5 10 28 82 60 100 23 80 87 34 5 17 29 56 93 100 100 100 100 100 100 100 100 100 100 100 100
0 0 0 0 7 0 0 1 2 4 69 6 93 100 97 6 5 5 5 2 0 1 4 3 5 5 5 5 60 100 91 29 29 5 68 9 40 7 5 5 5 8 99 100 100 100 100 100 100 100 100 100 100 100
2 13 7 7 75 22 0 0 1 79 100 21 2 52 5 29 20 5 5 5 5 4 2 4 64 61 53 68 5 2 1 0 0 24 100 100 95 23 95 15 5 30 54 84 100 100 100 100 100 100 100 100 100 100
76 11 1 0 60 0 9 3 12 32 51 40 50 5 5 97 80 96 97 6 5 5 5 5 5 5 5 5 1 0 4 4 5 5 17 5 0 11 100 52 28 9 38 98 82 100 92 100 100 100 100 100 100 100
0 0 0 2 0 0 0 4 46 12 5 5 5 10 39 32 49 14 5 5 5 5 5 5 5 39 5 5 5 5 5 5 38 4 4 5 5 16 100 100 94 32 67 58 100 85 89 98 98 100 100 100 100 100
0 0 0 0 1 50 5 32 5 16 7 77 100 44 16 31 87 5 5 12 6 5 6 5 5 5 5 5 5 90 100 95 11 4 5 22 23 1 63 100 100 94 18 57 84 78 31 4 61 100 98 100 100 100
0 0 0 0 8 35 14 4 24 19 100 100 100 82 66 18 23 6 20 70 61 35 46 63 37 20 26 6 6 5 5 5 5 0 5 20 46 5 1 22 100 100 100 35 87 100 92 71 6 8 86 27 100 100
42 0 22 55 14 32 1 32 83 100 100 100 100 100 100 74 100 100 100 41 86 90 60 59 35 5 8 55 99 80 90 5 0 2 2 5 5 0 60 100 85 97 74 9 48 92 100 100 96 90 4 5 82 90
54 47 36 99 2 1 6 74 100 100 100 97 72 97 53 81 84 100 79 100 94 99 100 33 5 6 64 17 97 79 14 5 1 0 0 0 4 2 46 99 28 69 55 77 30 83 76 100 100 99 10 5 6 71
84 5 29 0 36 45 83 100 73 80 100 98 6 62 88 100 96 100 100 100 100 100 72 9 13 75 70 62 57 5 0 0 0 0 1 2 4 0 0 24 42 5 9 73 76 18 79 99 100 100 27 20 76 90
48 81 71 36 57 43 100 74 91 100 100 100 10 77 86 9 20 96 100 94 87 93 49 39 84 32 3 8 4 4 1 5 25 6 67 5 92 76 31 12 2 0 2 42 27 17 48 81 85 95 68 23 44 9
3 12 100 72 72 41 79 100 78 67 45 44 87 99 97 5 47 8 8 14 26 17 26 12 11 0 43 93 100 44 7 28 93 91 66 11 54 100 76 83 6 4 5 5 5 5 25 21 10 53 67 47 69 5
3 26 69 95 15 86 100 48 41 5 5 39 100 100 100 100 52 44 12 5 27 5 2 7 90 79 91 100 97 96 98 100 95 76 97 100 100 100 92 35 17 57 9 5 57 95 76 97 100 100 75 46 32 68
69 2 70 6 14 53 20 18 12 32 100 99 100 100 100 100 100 100 27 5 5 5 12 98 78 94 96 67 39 5 5 2 5 6 79 65 55 97 89 79 75 100 93 58 38 98 100 100 100 100 100 100 100 80
58 2 16 13 30 100 29 99 57 37 56 21 91 100 100 100 100 98 13 5 23 73 8 76 12 5 5 18 4 0 0 1 5 4 5 31 9 52 99 76 59 88 89 96 100 87 88 88 91 98 100 83 81 68
42 39 6 5 5 5 94 96 68 8 52 75 98 100 100 100 93 70 21 5 0 0 0 0 0 0 0 0 0 4 4 5 53 78 94 99 64 13 91 98 98 96 100 99 86 76 100 97 62 85 100 94 99 70
34 22 92 87 70 5 88 16 19 60 76 38 74 100 100 95 12 5 5 3 0 0 0 0 2 2 4 5 5 5 5 5 5 5 5 4 0 4 5 28 46 62 35 79 21 76 72 73 67 97 100 100 93 79

GFSWCAN_prec_cloud_036.txt.gz
Cloud_Cover
100 100 99 100 95 100 100 100 95 100 100 100 100 100 100 100 100 100 100 100 100 100 100 100 100 100 100 100 100 98 42 94 100 100 100 100 100 100 100 100 100 100 100 100 81 98 100 100 100 87 100 100 100 98
100 94 97 100 100 100 100 100 100 100 100 100 100 100 100 100 100 100 100 100 100 100 100 100 100 100 100 100 100 100 60 100 82 100 100 100 100 100 100 100 100 100 100 100 97 100 100 100 100 100 100 100 100 100
96 100 100 100 100 100 100 100 100 100 100 100 100 100 100 100 100 100 100 100 100 100 90 100 100 100 93 100 100 100 100 88 24 74 100 100 100 100 100 100 100 100 100 100 42 99 81 100 100 100 100 100 100 100
67 85 44 73 100 100 100 100 100 100 100 100 100 100 99 100 100 100 100 100 100 100 100 100 100 100 100 100 100 100 100 100 100 72 83 98 100 100 100 100 76 100 100 93 37 62 82 100 99 100 100 100 94 100
5 43 30 100 100 100 100 100 100 100 100 100 100 100 100 100 100 88 85 86 88 100 100 86 100 81 93 100 88 100 100 100 100 74 100 100 100 96 100 100 98 100 100 100 100 47 79 100 100 100 100 100 98 60
24 29 97 61 100 100 100 100 100 100 100 20 100 100 100 100 100 100 98 86 81 99 62 90 90 66 41 57 99 100 100 100 100 100 100 100 100 99 89 96 100 100 100 100 100 100 100 100 100 100 100 100 99 80
14 18 91 7 87 100 100 100 100 100 5 5 95 100 100 100 100 100 100 100 47 55 27 60 96 93 55 85 100 100 100 100 100 100 100 100 100 100 100 100 100 100 100 100 100 99 100 100 100 100 100 100 100 100
0 38 0 65 100 100 100 100 100 100 4 2 96 100 100 100 100 100 100 100 100 100 100 100 79 45 44 43 75 100 100 100 100 100 100 100 100 100 100 100 100 100 100 100 87 76 28 100 100 93 100 100 100 100
5 1 88 100 100 100 100 100 100 100 4 59 100 100 100 100 100 100 100 100 100 100 100 100 100 99 36 62 69 100 100 100 100 100 100 100 100 100 100 100 100 100 100 100 92 47 22 94 100 100 83 7 80 100
2 32 100 100 100 100 100 97 68 0 0 31 100 100 100 100 99 100 100 100 100 100 100 100 88 100 57 88 88 81 98 100 98 100 100 100 100 100 100 100 100 100 100 100 100 100 100 100 100 100 100 100 4 30
5 97 100 100 100 100 100 60 2 0 0 0 90 91 93 79 100 100 98 60 30 16 41 45 65 100 98 97 100 99 88 82 84 70 100 100 100 100 100 100 100 100 100 100 100 100 100 100 98 68 100 98 100 86
23 100 100 100 100 100 90 11 0 32 1 7 0 44 98 87 50 49 97 63 7 31 65 16 33 89 65 64 73 82 100 75 7 100 75 100 77 100 100 100 100 100 100 100 100 100 100 100 100 100 100 100 100 90
57 100 100 100 100 41 7 0 0 0 22 4 2 1 21 86 100 86 89 14 5 4 67 95 97 46 81 27 40 94 90 5 5 61 100 100 90 16 100 100 100 100 100 100 100 100 100 100 100 100 100 100 100 100
34 98 79 68 66 0 0 0 0 4 0 0 2 2 4 17 56 39 5 0 0 6 37 16 47 9 34 56 10 10 71 20 62 93 100 72 99 94 7 39 100 98 99 100 100 100 100 100 100 100 100 100 100 100
5 30 26 50 0 0 0 0 0 15 0 0 4 5 4 0 2 0 0 0 1 2 2 5 3 4 4 5 0 2 1 78 84 60 87 85 93 82 90 50 5 78 100 100 100 100 100 100 100 100 100 100 100 100
24 23 4 0 0 0 0 0 17 0 5 9 45 10 5 5 5 9 32 21 5 4 5 5 5 4 5 3 0 3 16 36 65 42 46 39 54 5 4 28 90 18 81 100 100 100 100 100 100 100 100 100 100 100
14 7 0 0 0 0 0 0 0 0 5 75 100 50 7 36 6 40 57 71 51 6 5 5 5 5 7 5 5 10 72 41 74 97 54 6 5 5 5 5 0 12 74 82 100 100 100 100 100 100 100 100 100 100
10 0 0 0 39 8 0 0 32 94 100 55 100 60 65 53 32 20 5 5 5 5 5 5 5 5 5 5 5 5 5 14 53 5 5 5 18 88 41 5 5 0 5 84 100 100 100 100 100 100 100 100 100 100
24 38 22 49 87 34 0 43 92 94 56 99 100 95 6 48 17 4 5 4 5 5 5 5 5 9 6 5 16 40 6 5 54 55 49 85 60 5 5 16 6 5 3 60 10 89 100 100 100 100 100 100 100 100
95 29 5 4 31 0 3 34 46 99 86 100 62 98 100 100 75 11 4 5 5 5 60 73 77 6 5 5 5 5 54 99 99 96 70 3 3 15 25 66 68 5 5 5 21 82 80 100 100 100 100 100 100 100
0 0 0 0 2 0 0 4 9 53 100 100 96 100 100 94 100 99 86 42 5 5 72 42 59 12 40 11 5 6 90 98 100 68 0 0 5 15 84 60 5 13 5 5 5 2 5 31 100 100 100 100 100 100
0 0 0 0 0 0 1 3 46 35 100 45 56 84 95 94 94 42 89 100 85 99 100 100 100 100 53 51 95 76 54 48 5 5 24 47 2 5 21 98 59 60 11 6 5 5 5 2 4 70 100 100 100 100
0 0 0 23 1 5 20 43 32 95 90 97 38 14 40 96 89 43 40 100 98 100 99 94 100 42 12 35 91 50 79 38 32 68 96 17 5 28 6 9 95 80 98 92 9 5 31 5 5 5 22 98 100 100
0 0 0 0 0 6 50 97 57 60 91 100 100 38 92 96 100 58 100 100 100 100 92 100 99 35 5 8 46 78 77 100 80 2 4 4 0 1 46 32 97 99 100 100 92 38 6 5 54 5 5 4 62 99
56 9 9 58 3 6 81 62 19 5 6 96 100 52 96 100 100 100 100 100 99 100 100 99 65 14 5 18 100 89 4 0 0 0 0 0 0 0 3 2 5 99 95 98 100 89 11 36 33 5 5 5 5 16
84 7 6 10 60 44 17 6 75 54 5 83 100 100 100 100 100 100 100 100 100 100 56 32 5 5 3 33 16 5 5 5 5 5 4 5 5 3 1 1 5 5 2 2 21 76 100 82 5 13 5 28 14 5
49 1 4 12 61 98 88 94 24 5 8 100 100 100 100 100 100 100 100 100 100 100 80 6 9 5 4 7 63 42 5 84 86 95 88 52 57 16 32 5 5 5 5 5 5 48 75 92 36 92 92 10 5 5
0 0 1 14 80 13 100 100 53 23 94 82 100 100 100 100 69 93 100 96 88 43 6 2 7 67 75 26 92 54 100 100 66 99 100 97 94 100 96 12 5 15 10 12 91 99 80 78 64 93 99 63 43 5
4 0 5 5 6 16 85 12 74 8 11 6 60 69 100 100 42 33 67 23 29 5 5 60 74 89 69 99 95 100 100 100 100 100 99 86 91 81 99 71 96 50 100 92 13 92 99 85 95 86 99 88 100 58
0 0 0 3 38 40 68 46 76 92 43 5 35 78 100 100 75 5 5 5 5 57 12 57 94 98 98 100 95 42 1 1 3 5 8 16 77 94 84 100 96 98 87 100 95 29 96 100 88 100 100 100 100 100
99 20 0 1 4 2 2 70 22 5 21 93 100 96 100 100 93 17 5 5 2 5 3 1 2 4 10 0 0 4 3 0 5 53 100 100 99 99 100 81 91 100 100 100 100 85 82 92 87 84 70 80 100 86
5 5 2 46 88 6 10 86 62 70 100 88 97 65 100 100 100 100 16 5 1 0 0 0 0 0 0 4 5 0 4 49 100 99 17 2 0 3 5 5 8 44 71 99 97 27 60 100 58 52 65 60 36 11
10 49 39 79 57 78 98 98 76 43 31 5 60 98 100 100 100 100 38 4 0 0 0 0 0 0 5 5 3 0 1 2 5 3 0 0 0 0 5 4 5 5 5 5 20 6 40 6 16 71 66 48 57 26

GFSWCAN_prec_cloud_039.txt.gz
Cloud_Cover
100 20 5 5 5 5 3 94 99 100 100 100 100 100 100 100 100 89 100 100 100 100 100 100 100 100 100 100 100 99 46 99 100 100 100 100 100 100 100 100 100 100 100 100 100 100 99 95 88 73 25 100 100 100
10 5 5 0 5 1 99 100 100 100 100 100 100 100 100 100 100 100 100 100 100 100 100 100 100 87 100 100 100 100 98 100 100 100 100 100 100 100 100 100 100 100 100 100 100 100 100 91 100 91 100 100 100 100
4 5 1 0 0 75 100 100 100 100 100 100 100 100 100 100 100 100 100 100 100 100 70 50 100 100 99 100 100 100 100 99 100 100 100 100 100 100 100 100 100 100 100 100 100 100 100 95 57 100 100 100 100 100
5 5 2 0 43 100 100 100 100 100 100 100 76 100 100 56 100 100 100 100 98 58 26 35 100 100 100 100 100 100 100 100 99 100 100 98 100 100 100 100 100 100 100 100 100 97 100 100 100 100 100 100 100 100
5 5 5 0 100 100 100 100 100 100 100 26 27 100 100 100 100 100 100 100 84 51 17 7 97 100 72 100 100 100 100 100 86 100 100 100 100 100 100 100 100 100 100 100 100 100 99 100 100 100 100 100 100 100
93 5 5 0 99 100 100 100 100 100 100 4 17 100 100 100 100 100 100 100 100 97 81 17 12 78 97 100 100 100 100 100 100 100 100 100 100 100 100 100 100 100 100 100 100 100 100 100 100 100 100 100 100 100
35 5 5 76 100 100 100 100 100 100 33 0 56 98 99 100 100 100 100 97 85 68 100 63 8 34 100 100 100 100 100 100 100 100 100 100 100 100 100 100 100 100 100 100 100 100 100 47 50 74 96 99 100 100
5 11 24 100 100 100 100 100 100 100 13 4 13 89 100 100 100 100 100 100 78 8 26 99 100 55 66 33 96 100 100 100 100 100 100 100 100 100 100 100 100 100 100 100 100 100 100 98 27 4 100 98 100 100
30 9 99 100 100 100 100 100 100 100 3 0 4 86 100 100 62 98 86 62 92 81 31 82 100 99 88 24 46 99 100 100 100 100 100 91 100 100 100 100 100 100 100 100 100 100 100 100 90 8 100 100 100 100
90 6 100 100 100 100 100 100 100 13 0 0 0 8 100 100 100 95 84 79 97 99 20 100 63 84 88 99 90 84 97 100 100 100 100 100 100 100 100 100 100 100 100 100 100 100 100 100 86 41 99 100 100 100
68 4 100 100 100 100 100 100 90 4 0 0 0 5 44 89 100 100 100 79 56 6 44 40 85 72 44 99 100 80 99 97 96 100 100 100 100 100 100 100 100 100 100 100 100 100 100 100 100 100 100 100 100 100
7 3 88 100 100 100 100 98 80 41 1 7 1 6 7 96 70 12 5 5 5 5 6 11 76 61 37 99 56 71 100 50 6 41 92 100 100 100 100 100 100 100 91 22 16 54 85 100 100 100 100 100 100 100
94 0 4 52 63 8 14 8 15 1 6 19 2 0 7 0 3 5 5 5 4 0 30 85 88 47 85 75 79 79 21 6 5 56 85 59 100 100 100 100 100 100 100 100 26 5 11 66 87 100 100 100 100 100
5 0 26 77 81 3 0 0 0 25 1 4 5 29 22 24 26 34 38 9 5 5 5 16 19 77 94 99 6 9 31 5 5 39 68 37 5 5 9 93 100 100 95 100 100 69 42 100 100 97 99 100 100 100
3 6 68 49 0 0 0 0 0 5 0 2 4 30 86 71 99 50 5 5 5 5 5 4 5 4 5 4 0 0 1 87 97 20 8 79 5 5 0 3 9 28 5 58 90 100 94 22 76 69 60 54 68 78
5 15 1 0 0 0 0 1 2 5 85 30 22 10 5 87 5 5 5 5 5 5 5 50 63 5 5 5 4 2 4 13 9 5 5 75 6 5 4 0 0 4 5 5 40 14 58 47 53 58 83 89 76 79
6 5 0 0 1 10 0 0 1 5 99 99 99 100 99 50 6 6 5 5 21 64 19 6 5 5 5 5 5 5 5 10 73 80 5 5 5 5 5 5 5 4 2 5 7 5 7 26 99 86 100 100 100 100
28 4 0 1 99 20 4 2 4 22 100 41 99 100 100 22 90 28 5 5 6 5 12 82 30 100 56 46 94 5 90 96 31 5 5 5 5 5 5 5 5 5 1 2 5 5 5 5 6 76 76 85 97 100
14 41 24 84 95 22 0 0 1 59 39 5 5 35 91 5 33 6 14 31 42 28 16 71 100 100 84 80 97 41 5 5 5 5 38 73 5 5 5 5 5 5 5 3 5 5 5 5 5 56 18 99 100 100
58 22 6 15 74 0 1 0 2 60 5 57 84 58 95 78 33 73 100 100 92 70 62 54 91 100 100 96 100 97 5 5 52 58 6 5 5 1 3 5 5 5 5 5 3 4 2 5 1 5 87 100 100 100
11 0 16 2 5 0 3 5 0 5 11 76 100 73 90 100 100 100 100 100 100 100 100 100 100 100 100 100 100 29 68 43 96 10 5 6 5 5 5 95 91 97 81 9 5 4 5 0 2 0 5 80 100 100
5 0 0 0 0 0 4 4 3 4 40 99 91 100 99 98 100 100 100 100 100 100 100 100 100 100 98 80 73 78 98 96 23 36 20 50 9 29 12 5 5 91 56 61 14 5 5 5 5 5 2 2 14 99
1 0 0 0 0 0 4 3 5 5 4 100 100 98 58 14 60 81 100 100 100 100 100 100 100 100 99 90 31 10 86 70 6 3 0 2 0 0 2 27 100 100 100 97 41 5 40 5 5 5 5 3 3 39
0 0 0 0 0 5 10 99 5 36 12 45 100 78 14 51 98 100 100 100 100 100 100 100 80 5 5 1 52 24 51 5 5 5 1 0 0 0 4 19 52 94 93 48 55 98 98 36 5 5 5 5 5 5
46 3 0 30 5 15 69 67 42 57 63 49 87 98 94 97 100 100 97 92 38 73 9 5 0 4 2 3 14 34 5 5 7 11 5 5 5 5 5 5 80 11 5 67 94 62 76 52 81 11 5 28 57 64
85 6 3 9 34 13 20 72 82 46 42 97 68 90 97 99 100 100 100 100 16 5 5 5 1 0 2 16 12 31 100 99 100 96 99 94 100 47 21 79 95 100 37 5 3 79 100 100 90 100 76 100 96 79
50 2 5 4 6 5 5 6 5 5 62 89 24 22 98 97 100 100 54 5 5 5 5 5 5 5 5 5 9 69 100 99 100 100 100 100 100 100 100 100 97 95 85 21 5 10 35 40 61 100 100 93 100 88
0 0 2 2 20 5 23 30 7 58 21 5 71 76 99 100 100 100 44 8 5 10 10 38 6 54 58 80 96 94 94 91 78 54 99 100 100 100 100 100 100 100 99 74 77 88 72 45 51 93 69 100 60 5
2 5 4 5 13 35 5 36 5 5 56 83 99 88 100 88 100 100 100 30 1 0 5 73 100 74 72 94 70 5 5 47 100 100 99 98 86 90 100 100 100 99 100 12 11 68 72 44 87 80 94 100 100 91
5 4 3 5 3 4 5 5 5 42 94 88 76 98 96 100 98 100 100 69 5 0 5 53 9 35 21 3 0 0 0 0 0 5 12 93 99 98 92 100 100 89 99 100 92 58 94 94 60 71 69 72 54 81
26 4 0 14 13 5 49 66 25 25 7 25 84 24 96 97 94 100 100 75 5 0 0 0 0 0 0 0 0 0 0 4 5 56 62 26 57 64 57 9 45 50 57 93 67 8 56 53 29 87 66 34 53 95
4 5 26 5 35 17 36 10 15 5 5 5 7 56 68 86 51 98 100 85 5 1 0 0 0 0 0 5 1 0 5 25 8 3 0 0 0 4 24 65 23 6 10 10 6 5 5 12 5 46 54 6 5 5
96 71 8 5 56 28 31 49 22 65 8 5 31 84 82 13 12 83 100 52 5 3 2 3 0 0 5 3 0 0 0 0 0 0 0 0 0 2 2 2 4 4 5 5 6 20 30 5 5 5 5 5 5 5

GFSWCAN_prec_cloud_042.txt.gz
Cloud_Cover
30 82 3 0 0 0 98 100 100 100 100 100 100 100 100 100 100 100 100 100 100 100 100 93 100 100 100 100 100 99 100 100 100 100 100 100 100 100 100 100 100 100 100 100 100 100 100 84 21 92 95 100 100 100
5 26 5 0 0 78 100 100 100 100 100 100 100 100 100 100 100 100 100 100 100 100 100 87 100 100 100 91 100 100 100 100 100 100 100 100 100 100 100 100 100 100 100 100 100 100 100 100 64 28 92 100 100 100
5 47 8 0 2 100 100 100 100 100 100 100 95 100 100 100 100 100 100 96 100 82 100 14 5 57 96 100 100 100 100 100 100 100 100 100 100 100 100 100 100 100 100 100 100 100 100 100 100 100 100 100 100 100
64 84 4 0 11 87 100 100 100 100 94 74 97 96 100 85 99 100 100 86 83 42 31 25 5 5 44 100 100 100 100 100 100 100 100 100 100 100 100 100 100 100 100 100 100 100 100 100 100 100 100 100 100 100
27 21 0 0 100 100 100 100 100 100 66 1 7 90 100 100 100 100 100 78 96 96 79 98 5 29 6 90 100 100 100 100 100 100 100 100 100 100 100 100 100 100 100 100 100 100 100 100 100 100 100 100 100 100
16 10 4 57 100 100 100 100 100 100 90 1 5 52 100 100 100 100 100 100 67 100 100 94 27 76 84 66 100 100 100 100 100 100 100 100 100 100 100 100 100 100 100 100 100 100 99 94 100 100 100 100 100 100
19 98 7 100 100 100 100 100 100 100 76 0 5 93 100 100 100 100 70 84 79 89 61 69 54 90 100 90 94 100 100 100 100 100 100 100 100 100 100 100 100 100 100 100 100 100 100 100 100 100 100 100 100 100
5 55 9 100 100 100 100 100 100 100 81 0 1 5 100 100 96 83 64 94 88 9 6 58 100 100 87 98 99 92 100 100 100 100 100 100 100 100 100 100 100 100 100 100 100 100 100 100 97 100 100 95 100 100
95 68 5 100 100 100 100 100 100 100 62 0 0 0 5 24 60 100 100 86 35 20 34 97 100 96 80 100 65 20 50 100 100 100 100 100 100 100 100 100 100 100 100 100 100 100 100 100 96 100 100 100 100 100
98 5 5 100 100 100 100 100 100 93 0 0 0 0 4 57 4 34 100 100 100 100 46 100 100 68 74 100 100 100 98 100 100 100 100 100 100 100 100 100 92 100 100 100 100 100 100 100 100 100 100 100 100 100
85 5 5 13 100 100 100 100 100 72 0 4 4 7 68 13 69 91 94 71 46 8 63 83 95 94 57 83 98 95 100 100 78 89 91 100 100 100 100 100 100 100 98 96 64 97 100 100 100 100 100 100 100 100
30 5 5 3 70 100 100 100 100 52 2 7 5 9 18 96 71 8 23 5 38 11 9 5 60 72 48 88 83 89 100 45 36 36 22 98 98 100 100 100 98 100 100 100 53 6 86 100 100 100 100 100 100 100
5 4 60 7 100 88 11 0 69 61 93 24 3 4 8 21 68 83 74 88 46 35 67 34 35 77 82 84 87 71 54 11 5 54 84 92 37 22 100 100 100 94 57 100 73 16 4 9 21 19 29 99 100 100
4 45 35 98 88 36 0 0 1 51 12 98 40 34 8 13 28 5 5 5 56 58 57 70 40 15 29 16 5 5 5 5 5 27 5 5 9 16 5 9 98 100 100 99 98 83 5 0 4 5 5 5 7 88
5 59 16 39 0 0 3 6 4 39 3 6 45 74 100 40 13 5 5 5 5 8 5 5 5 5 5 5 5 3 6 38 46 4 3 8 30 6 5 0 0 1 33 92 74 40 97 16 5 5 4 5 5 5
11 30 5 5 0 32 3 9 12 1 5 96 100 82 76 14 5 15 63 13 25 90 96 94 95 52 47 38 37 5 23 97 96 5 4 5 5 5 5 2 0 0 0 0 5 6 11 47 6 4 10 35 12 65
48 8 5 4 36 24 0 0 0 2 5 8 99 100 100 41 89 100 100 100 100 91 100 100 56 14 7 43 45 100 21 5 5 5 5 5 5 5 5 5 5 4 1 0 3 5 5 5 5 5 5 1 5 5
58 5 5 8 99 29 8 26 0 1 5 78 87 70 5 5 5 10 72 100 100 100 100 100 100 100 100 100 98 100 100 17 5 5 5 5 5 5 5 5 5 5 5 4 0 0 4 3 3 5 5 5 3 3
30 45 63 92 96 18 0 0 0 0 4 3 33 64 5 3 48 26 100 100 97 100 100 100 100 100 100 100 100 100 91 5 5 5 5 4 2 4 1 5 34 77 75 11 5 4 1 0 3 0 0 0 4 5
10 9 5 25 75 0 0 0 1 0 0 1 34 74 18 94 95 73 46 100 100 100 100 100 100 100 100 100 100 12 5 23 91 50 22 27 5 2 5 29 100 100 99 66 26 67 72 16 0 0 0 0 4 5
5 5 19 9 9 0 0 1 0 0 5 30 47 6 18 77 67 93 85 100 100 100 100 100 100 100 100 60 34 70 5 86 79 5 3 0 0 4 5 51 100 99 100 100 100 93 98 99 2 0 5 5 2 5
5 5 1 0 0 0 1 5 30 7 9 5 5 9 21 98 98 100 100 100 100 100 82 86 93 100 10 25 30 100 100 100 17 3 0 0 0 0 0 0 0 66 100 100 100 47 34 98 92 10 9 71 5 5
5 9 2 0 0 0 3 5 5 52 43 5 9 14 48 70 100 100 100 93 17 18 63 72 65 5 5 1 8 94 92 5 5 4 3 4 3 2 0 4 32 89 95 63 63 100 92 99 100 81 5 10 9 5
5 5 5 0 0 2 1 4 4 5 4 5 9 7 11 77 100 100 100 8 5 57 95 94 8 0 0 1 3 1 3 5 8 5 12 98 30 82 41 58 12 5 4 5 5 97 100 100 100 81 79 100 93 14
45 5 0 30 0 4 4 4 3 5 5 5 17 17 51 96 100 89 100 5 5 4 14 0 0 0 4 0 4 5 6 36 86 100 72 8 85 100 79 75 100 88 49 17 5 41 91 100 100 100 100 96 99 66
85 5 1 5 5 5 5 5 5 17 5 16 84 52 56 80 64 28 59 5 5 5 5 5 2 3 5 5 5 26 73 99 92 35 93 70 61 99 88 59 100 100 77 61 6 44 37 27 54 67 100 100 69 5
50 0 0 2 5 5 5 5 5 70 77 95 99 61 76 27 5 5 5 5 5 5 2 4 5 4 2 10 74 100 62 24 42 98 95 88 96 73 80 100 47 96 99 100 71 99 100 94 94 95 90 91 96 17
0 0 0 5 5 5 3 5 5 6 68 32 23 25 10 5 11 5 5 5 5 5 5 5 5 5 82 84 4 0 0 2 96 97 98 51 59 87 100 100 83 60 12 5 30 79 81 100 93 88 81 67 86 53
2 0 0 5 5 0 17 30 5 14 5 10 73 83 48 14 22 35 5 5 5 0 2 4 0 3 5 1 0 0 0 1 5 79 100 100 92 96 38 27 41 100 84 18 11 5 40 54 82 99 84 68 88 73
1 2 2 3 17 5 5 30 9 26 48 81 95 94 95 78 71 74 7 5 5 0 0 0 0 0 0 0 0 0 0 0 0 4 12 88 94 73 15 55 49 89 57 76 12 18 84 56 40 68 67 92 78 71
5 45 21 5 16 7 5 20 44 59 83 100 100 100 100 100 100 100 31 17 5 0 0 0 0 0 0 0 0 0 0 2 5 5 5 3 2 1 5 17 8 5 5 10 53 5 23 24 23 62 27 65 68 28
62 5 29 5 5 99 100 100 100 100 100 100 100 100 100 100 100 100 68 52 7 2 0 0 0 0 0 0 0 0 0 0 0 0 0 0 1 5 24 59 6 5 5 5 5 4 5 5 5 5 5 5 5 5
5 20 89 6 50 99 100 100 100 100 100 100 100 100 97 99 99 100 76 62 36 3 1 0 0 0 0 0 0 0 0 0 0 0 0 0 0 0 0 0 0 4 5 5 5 5 5 5 5 5 5 5 5 5

GFSWCAN_prec_cloud_045.txt.gz
Cloud_Cover
100 16 5 5 5 72 100 100 99 100 100 100 100 63 59 100 100 100 100 74 100 100 86 22 98 100 100 100 100 47 100 100 100 100 100 100 100 100 100 100 100 100 100 100 100 100 100 100 100 98 64 98 100 100
98 16 5 5 6 100 100 100 100 100 100 100 100 94 100 100 100 100 100 100 96 100 58 14 9 48 100 100 100 100 100 100 100 100 100 100 100 100 100 100 100 100 100 100 100 100 100 100 100 88 100 100 100 100
86 13 5 5 32 100 100 100 99 100 100 100 100 32 100 100 93 98 100 98 95 49 17 5 5 5 5 90 97 100 100 100 100 100 100 100 100 100 100 100 100 100 100 100 100 100 100 100 100 100 100 100 100 100
87 33 5 35 100 100 100 100 95 100 81 10 48 73 98 100 100 100 79 69 87 60 59 5 5 5 5 17 100 94 100 100 100 100 100 100 100 100 100 100 100 100 100 100 100 100 100 100 100 100 100 100 100 100
72 16 5 35 100 100 100 100 94 100 6 0 2 82 100 100 91 100 100 85 98 100 67 5 5 8 60 6 81 100 100 100 100 100 100 100 100 100 100 100 100 100 100 100 100 100 100 100 100 100 100 100 100 100
68 19 5 57 100 100 100 100 100 100 36 0 0 5 46 100 56 93 100 93 62 28 60 99 87 61 63 99 6 100 100 99 100 100 100 100 100 100 100 100 100 100 100 100 100 100 100 100 100 100 100 100 100 100
40 6 5 40 100 100 100 100 100 100 92 0 0 5 11 69 84 61 19 68 74 45 26 52 90 100 100 100 44 41 100 100 100 100 91 100 100 100 100 100 100 100 100 100 100 100 100 100 100 100 100 100 100 100
30 40 23 9 100 100 100 100 100 100 100 0 0 0 3 5 5 1 38 35 17 1 24 73 64 38 90 100 100 90 33 92 100 100 100 100 100 100 100 100 100 100 100 100 100 100 100 100 100 100 100 100 100 100
38 100 13 23 100 100 100 100 100 100 100 7 0 5 5 32 84 69 100 91 81 49 52 100 100 100 94 100 100 94 10 96 75 99 100 100 100 100 86 98 100 100 100 100 100 100 100 100 100 100 100 100 100 100
91 74 5 4 58 100 100 100 100 100 17 5 1 13 35 81 58 100 93 94 98 100 81 100 99 100 82 100 100 94 94 100 97 74 71 100 100 100 100 100 100 100 100 100 100 100 100 100 100 100 100 100 100 100
100 31 52 5 4 86 100 100 100 92 3 21 4 2 73 9 95 80 89 50 33 27 83 84 100 99 72 92 99 100 100 100 96 68 29 95 100 86 100 100 98 98 100 100 100 100 100 100 100 100 100 100 100 100
86 66 5 61 20 100 100 100 100 53 3 41 7 9 36 94 47 0 0 1 5 11 64 33 5 68 98 91 94 95 90 52 74 22 20 76 23 93 94 62 100 100 100 100 91 100 100 100 96 94 83 100 100 100
93 38 5 4 87 100 100 76 99 58 50 55 32 7 0 0 4 0 2 5 9 57 36 83 85 78 91 92 96 89 70 26 6 15 74 29 5 5 8 63 30 87 100 59 51 89 7 5 5 7 45 90 98 100
61 8 5 42 83 23 5 0 34 100 40 4 23 57 4 16 69 58 100 100 100 100 100 100 91 100 83 26 9 5 32 5 5 5 57 7 12 73 5 1 5 5 6 97 100 96 14 5 3 21 22 19 40 85
5 9 5 5 5 5 50 97 87 88 5 5 5 6 72 65 27 38 52 16 15 14 80 94 100 100 100 100 94 5 5 5 32 36 5 5 5 58 5 5 5 5 4 5 48 100 100 36 5 0 17 39 10 11
8 5 17 5 7 93 5 98 60 2 0 2 3 5 24 47 5 5 5 5 5 5 19 73 57 96 100 100 99 92 100 99 100 93 5 5 40 49 54 12 5 5 5 1 5 12 57 100 51 3 2 2 27 4
5 14 12 5 45 39 7 2 0 0 0 0 6 6 27 98 99 95 7 71 86 95 100 100 100 99 69 100 78 100 100 100 100 31 5 5 7 5 5 5 5 5 5 5 1 86 47 6 98 13 5 1 14 19
5 5 5 6 100 52 8 4 0 0 0 3 4 5 6 7 77 72 68 95 100 100 100 100 86 100 100 100 100 100 52 5 5 5 5 5 5 5 25 5 20 85 5 5 5 5 0 0 0 4 5 5 5 3
26 17 5 77 96 19 0 0 1 5 0 1 5 5 54 60 96 91 97 90 100 100 100 100 82 100 100 100 100 99 24 36 72 56 54 10 5 28 34 5 34 98 42 4 5 5 5 4 0 0 0 0 4 5
77 29 5 22 73 3 0 0 0 1 4 5 5 5 5 20 47 93 100 100 100 92 100 99 100 100 100 100 85 19 88 94 73 79 10 0 0 0 1 4 5 84 88 94 84 6 5 5 5 5 5 4 2 4
27 9 44 31 5 0 0 0 2 4 1 5 5 5 5 88 40 100 100 100 43 7 54 100 100 74 65 38 25 54 20 75 53 5 0 0 0 0 0 0 2 91 100 96 100 98 12 51 8 5 5 5 3 1
6 5 5 5 2 0 0 0 0 2 4 5 5 5 7 23 31 84 93 100 47 40 32 71 45 5 4 1 0 4 41 100 14 5 8 12 69 64 16 1 1 6 72 94 84 74 99 29 97 24 1 5 4 4
21 13 5 5 0 20 15 0 0 0 0 5 5 5 5 7 5 5 16 42 25 5 33 87 55 0 0 0 0 3 3 5 46 75 75 31 100 100 74 90 68 12 23 16 5 20 79 99 84 87 8 5 5 5
10 30 5 3 3 5 1 5 2 0 4 5 5 5 5 5 10 6 38 77 16 5 62 69 5 0 2 3 0 5 5 5 78 99 100 100 36 88 99 100 100 100 97 91 5 22 33 8 38 86 81 56 5 5
49 34 5 27 0 5 5 5 5 5 37 5 25 7 5 33 23 41 72 84 43 5 5 5 56 5 0 4 5 57 74 89 100 74 18 78 100 94 82 87 100 100 98 100 90 20 96 73 100 100 93 43 11 5
67 7 29 4 1 5 4 1 2 5 5 23 8 5 5 18 37 33 37 100 73 5 1 5 5 13 5 51 32 5 6 73 98 61 66 98 100 100 98 30 90 96 84 86 94 62 79 88 92 84 85 87 28 13
68 4 0 0 1 0 3 7 54 16 65 16 5 5 20 38 98 69 23 98 56 5 2 5 80 22 98 59 0 0 0 1 20 95 91 99 96 25 24 99 92 5 6 47 11 12 78 100 100 77 57 12 5 18
20 0 0 0 5 4 5 12 46 18 28 57 98 100 100 100 100 91 56 32 42 5 5 3 0 0 0 0 0 0 0 0 1 77 65 62 94 91 8 16 73 32 40 81 9 5 30 52 77 10 10 55 68 43
0 0 0 4 0 5 26 16 17 91 100 100 100 100 100 100 99 47 34 30 72 5 3 0 0 0 0 0 0 0 0 0 5 34 95 73 60 51 5 13 59 26 5 6 3 5 6 60 5 28 19 5 5 6
0 0 0 3 5 14 5 8 82 91 98 100 100 100 100 100 80 84 52 99 82 6 5 4 0 0 0 0 0 0 0 0 0 0 5 36 87 55 5 5 5 5 5 5 5 8 58 66 16 6 18 5 40 33
1 0 3 5 5 5 8 36 44 51 88 100 100 100 100 100 95 100 93 100 100 49 5 5 0 0 0 0 0 0 0 0 0 0 0 0 1 3 5 5 3 4 5 5 9 66 77 55 67 68 45 5 5 67
5 5 5 5 21 5 5 90 85 36 74 100 100 100 100 100 100 100 100 100 100 99 11 5 4 0 0 0 0 0 0 2 0 0 0 1 5 5 5 5 0 5 5 5 5 5 5 5 6 55 67 5 5 5
6 57 30 46 65 78 100 100 100 100 100 100 100 100 100 100 100 100 100 100 100 100 14 5 5 0 0 0 0 0 0 0 0 6 0 0 0 0 0 1 0 4 5 5 5 5 5 5 5 5 5 5 5 6

GFSWCAN_prec_cloud_048.txt.gz
Cloud_Cover
100 100 100 100 45 91 100 100 100 98 0 66 53 5 76 100 100 100 100 100 100 88 99 66 95 99 100 100 100 82 90 99 100 100 100 100 100 100 100 100 100 100 100 100 100 100 100 100 100 100 100 86 95 100
100 100 100 100 79 100 100 100 100 100 17 10 40 5 5 96 99 100 100 100 75 100 63 91 62 56 82 92 100 99 100 100 100 100 100 100 100 100 100 100 100 100 100 100 100 100 100 100 100 100 100 100 100 100
100 100 100 100 65 100 100 100 100 100 29 20 58 11 5 87 100 99 100 100 100 100 100 57 75 5 60 30 98 100 99 100 100 100 100 100 100 100 100 100 100 100 100 100 100 100 100 100 100 100 100 100 100 100
100 100 100 98 99 100 100 100 100 100 7 0 1 5 5 98 11 26 100 100 77 44 51 88 69 8 68 5 11 95 100 100 100 100 100 100 100 100 100 100 100 100 100 100 100 100 100 100 100 100 100 100 100 100
100 100 100 37 65 100 100 100 100 100 9 0 0 5 58 99 16 64 79 69 27 8 43 95 94 73 100 99 17 97 82 100 100 100 100 100 100 100 100 100 100 100 100 100 100 100 100 100 100 100 100 100 100 100
100 100 100 98 20 100 100 100 100 100 9 0 0 0 5 30 57 100 100 61 66 50 33 94 46 23 91 100 87 79 100 99 99 93 100 100 100 100 100 100 100 100 100 100 100 100 100 100 100 100 100 100 100 100
100 100 90 88 72 100 100 97 100 97 100 0 0 0 0 5 72 100 57 52 18 23 63 93 92 78 6 41 78 67 100 100 100 100 94 100 100 100 100 100 100 100 100 100 100 100 100 100 100 100 100 100 100 100
100 63 96 28 100 100 100 100 100 100 100 50 0 0 0 1 19 56 79 100 99 66 32 89 6 59 10 75 53 100 100 97 100 100 99 90 100 100 100 100 100 99 100 100 100 100 100 100 100 100 100 100 100 100
23 81 40 29 100 76 100 100 100 100 100 92 0 0 35 67 100 100 86 100 90 67 92 100 58 21 35 54 26 76 77 84 59 100 100 100 94 99 100 100 100 100 100 99 100 100 100 100 100 100 100 100 100 100
99 81 39 100 100 72 100 100 100 100 26 0 8 48 95 99 26 95 72 91 99 99 92 100 80 60 40 97 96 71 84 74 99 41 97 99 100 98 93 98 100 100 100 100 100 100 100 100 100 100 100 100 100 100
8 48 77 100 90 53 100 100 100 46 26 0 0 17 67 13 93 96 16 6 5 6 10 48 64 12 29 99 100 60 99 97 99 65 46 85 100 100 99 89 86 100 100 100 100 100 100 100 100 100 100 100 100 100
30 70 100 96 91 83 100 100 100 16 0 24 11 0 47 84 30 3 5 42 79 100 100 100 100 100 100 100 96 97 99 72 92 9 35 70 38 65 100 96 97 100 100 100 100 100 100 100 100 100 100 99 100 100
100 100 100 9 93 100 99 100 100 31 13 0 7 46 6 5 62 9 86 19 90 40 10 28 26 79 91 100 97 100 100 95 6 91 78 29 29 5 6 65 61 65 100 100 100 100 100 100 100 100 100 100 100 100
100 100 5 58 36 23 12 20 85 93 5 0 0 96 5 51 79 77 71 75 28 28 44 100 99 100 100 100 94 51 100 24 82 47 80 100 17 3 5 5 5 5 32 95 81 30 62 42 93 100 97 100 100 100
100 29 5 5 5 22 96 100 100 25 0 1 1 58 20 39 22 74 56 63 68 17 100 95 100 100 100 99 74 85 94 98 82 85 100 96 8 49 43 66 5 5 4 79 73 87 84 68 100 100 86 78 91 98
51 9 18 5 5 70 73 100 56 0 0 1 5 5 18 17 93 98 93 94 79 95 100 59 94 89 100 100 100 100 100 100 100 99 88 7 5 18 35 8 77 5 5 48 86 54 86 100 97 94 84 49 72 78
15 5 24 12 20 81 6 13 0 0 0 0 5 5 5 10 71 77 95 100 82 86 100 94 100 100 100 100 100 100 100 100 100 99 6 5 5 5 5 5 28 67 89 83 70 70 8 86 100 57 5 5 80 74
5 7 5 6 75 54 6 5 0 0 2 4 5 10 5 30 73 93 25 8 19 97 100 86 100 100 100 100 100 97 96 100 18 5 35 5 5 5 5 5 5 56 100 99 74 12 8 71 100 91 97 21 99 100
5 4 5 18 76 7 5 1 0 3 2 3 5 5 5 9 9 8 5 7 95 88 60 82 98 99 91 79 14 45 73 99 100 90 34 1 0 0 0 0 1 38 100 98 84 100 98 4 14 59 85 60 97 67
3 11 5 21 47 5 5 0 0 0 0 3 5 5 5 5 5 5 55 100 42 11 80 49 36 25 60 47 32 7 86 75 88 100 100 86 0 0 0 0 12 39 93 91 63 77 93 98 97 98 4 5 80 99
18 38 70 29 41 5 2 0 0 0 2 5 5 4 5 5 5 5 29 5 69 96 29 16 55 25 33 6 0 0 54 99 100 98 93 98 17 12 85 82 5 5 99 100 100 97 87 100 98 100 100 99 99 100
8 14 6 32 41 5 0 0 1 1 0 0 0 5 5 5 22 40 5 14 47 89 21 65 27 4 44 12 0 0 16 32 90 5 67 77 100 99 100 100 100 100 100 100 99 100 100 100 90 100 100 98 81 32
12 12 30 64 6 37 42 0 0 0 0 3 5 6 11 53 61 35 12 16 33 34 5 5 5 5 5 3 4 3 0 5 28 74 100 52 55 68 100 98 93 100 100 100 64 100 100 42 65 92 100 99 99 100
67 33 70 55 8 32 0 3 0 0 4 5 31 74 99 68 80 28 40 29 18 6 17 2 2 82 84 97 100 76 28 65 100 88 100 100 95 94 99 85 84 87 100 100 100 91 100 99 33 97 99 100 100 100
60 79 78 81 0 5 5 1 0 4 5 76 66 85 100 100 97 41 68 18 5 5 4 1 16 100 87 84 98 99 14 4 30 77 100 65 92 100 76 98 100 96 98 100 100 82 100 100 100 86 99 99 100 100
82 100 70 0 0 4 3 0 5 37 88 89 98 98 100 100 60 83 8 5 5 5 5 0 3 87 51 0 4 5 5 2 6 27 67 99 96 98 94 100 100 97 60 36 95 100 99 99 100 100 100 60 44 96
100 49 1 0 0 1 0 6 49 24 7 46 41 62 76 82 54 62 68 40 54 28 5 1 1 1 1 0 0 0 0 0 1 22 77 99 82 96 100 100 67 75 31 81 99 66 97 87 92 100 100 100 100 90
47 1 0 0 2 2 5 31 36 28 10 27 58 92 71 22 98 100 100 89 99 100 18 5 0 0 0 0 0 0 0 0 5 5 6 8 33 38 71 79 56 5 20 6 81 99 100 100 88 100 100 92 96 100
0 0 0 0 0 5 13 77 46 7 50 93 100 99 94 96 100 100 100 98 100 100 93 5 0 0 0 0 0 0 1 5 66 100 100 83 93 100 100 100 100 100 100 21 30 57 75 74 80 100 66 98 100 59
0 0 0 0 2 5 5 5 5 5 48 52 100 100 100 100 100 100 100 100 100 100 95 8 0 0 0 0 0 0 0 0 3 5 66 85 97 100 100 100 100 98 100 100 94 24 5 72 43 99 92 99 100 100
0 0 2 1 5 5 5 46 56 5 35 100 100 100 100 100 100 100 100 100 100 100 100 42 3 0 0 0 0 0 0 0 0 0 3 5 63 88 96 92 84 100 97 100 100 99 92 95 94 99 96 98 86 91
3 5 6 46 86 97 100 30 20 84 91 100 98 100 100 100 100 100 100 100 100 100 100 98 4 1 0 0 0 0 0 0 5 5 5 5 5 40 65 64 96 84 99 91 93 100 100 100 100 100 100 100 100 100
5 52 71 100 100 99 95 57 93 100 100 100 100 100 100 100 100 100 100 100 100 100 100 100 7 4 0 0 0 0 0 0 17 8 1 5 4 3 5 13 22 68 90 99 99 91 99 94 100 100 100 100 100 100

GFSWCAN_prec_cloud_051.txt.gz
Cloud_Cover
100 100 100 100 100 100 100 67 100 97 5 0 0 0 5 26 98 88 100 100 100 100 8 7 54 88 98 55 100 84 100 100 100 100 100 100 100 100 100 100 100 100 100 100 100 100 100 46 10 5 2 0 21 80
100 100 100 100 100 100 100 97 100 100 5 0 0 1 5 68 30 79 96 96 74 97 45 5 4 5 20 9 40 100 99 97 100 100 100 100 100 100 100 100 100 100 100 100 100 100 100 100 100 100 76 100 99 100
100 100 100 100 100 100 33 64 100 96 6 0 0 0 6 82 9 25 82 68 62 8 98 100 97 9 73 5 24 100 100 100 100 100 100 100 100 100 100 100 100 100 100 100 100 100 100 100 100 100 100 100 100 100
100 100 100 100 100 95 22 93 100 100 17 0 0 0 5 5 5 11 96 71 70 65 84 73 24 70 37 11 66 91 100 99 100 100 100 100 100 100 100 100 100 100 100 100 100 100 100 100 100 100 100 100 100 100
100 100 100 100 100 38 100 100 100 98 52 0 0 0 5 5 5 26 89 75 91 48 34 77 58 85 15 91 92 100 100 96 93 98 100 100 100 100 100 100 100 100 100 100 100 100 100 100 100 100 100 100 100 100
100 100 100 100 76 22 100 100 100 100 81 0 0 0 0 0 62 91 100 97 91 99 100 100 100 5 31 17 52 100 100 100 100 100 100 100 100 100 100 100 100 100 100 100 100 100 100 100 100 100 100 100 100 100
100 100 100 100 12 5 79 100 100 100 69 25 0 0 0 0 35 100 84 69 28 96 100 89 50 41 5 16 100 99 90 100 100 100 100 100 100 44 99 100 100 100 100 100 100 100 100 100 100 100 100 100 100 100
100 100 100 100 39 33 85 100 100 85 100 96 0 0 0 0 13 65 76 16 99 78 81 63 37 66 15 76 100 10 82 100 99 100 100 100 100 82 51 100 100 100 100 100 100 100 100 100 100 100 100 100 100 100
100 100 100 100 74 98 100 94 100 100 100 100 2 0 37 54 92 100 24 69 91 95 100 96 78 98 99 51 92 100 98 75 66 87 100 100 100 100 100 100 100 100 90 100 100 100 100 100 100 100 100 100 100 100
100 100 100 100 100 100 100 99 100 100 99 10 34 50 72 97 5 16 90 98 96 95 23 42 18 70 100 99 100 82 90 89 32 78 22 100 100 84 100 100 100 100 100 100 99 100 100 100 100 100 100 100 100 100
100 100 100 100 100 100 45 61 91 18 28 8 67 93 27 11 70 93 35 25 78 52 83 58 64 11 98 99 39 79 91 100 100 37 70 25 84 85 100 100 100 100 100 100 100 100 100 100 100 100 100 100 100 100
100 100 100 95 100 79 86 100 92 22 2 11 10 0 18 42 23 26 17 73 46 43 97 94 100 100 96 83 100 100 96 65 48 68 81 69 79 98 98 100 93 100 100 100 100 100 100 100 100 100 100 100 100 100
100 100 92 100 100 100 100 100 71 14 32 0 13 54 49 2 62 89 96 32 100 84 98 100 100 99 92 79 98 100 97 91 96 92 77 33 76 98 98 88 92 88 91 96 100 100 100 100 100 97 98 100 100 100
100 100 100 48 5 29 81 99 85 42 6 17 58 96 36 99 100 100 100 100 81 99 100 100 100 46 100 79 87 100 100 100 100 100 78 47 39 98 80 100 99 100 91 92 100 100 88 92 74 99 100 86 100 97
100 100 78 16 10 24 95 81 73 7 2 12 53 66 78 61 100 75 31 82 100 100 100 87 100 21 81 100 100 100 100 100 100 100 100 98 94 79 36 100 100 100 99 100 97 100 100 81 93 91 100 100 100 100
100 86 49 38 6 5 62 90 44 5 0 3 3 30 95 73 99 63 43 88 97 91 85 90 68 99 100 100 100 100 100 100 100 97 78 67 18 69 60 100 99 61 85 100 100 100 75 100 100 100 96 98 100 100
48 96 13 5 5 57 5 16 5 2 4 5 88 100 100 100 96 99 100 100 5 79 96 36 43 98 73 76 88 94 42 54 84 100 100 15 5 76 69 82 98 100 97 79 100 100 83 82 100 97 99 99 100 96
73 29 5 5 5 51 5 5 5 3 15 41 77 100 100 89 64 91 81 17 43 80 48 22 34 63 46 60 69 71 71 26 83 98 88 28 34 11 16 50 37 97 100 38 71 70 100 76 100 100 100 100 100 100
21 5 5 5 5 10 5 7 3 4 35 91 94 100 100 80 75 15 52 47 6 5 80 32 57 92 52 4 20 23 8 99 100 62 100 79 12 4 5 5 5 88 94 16 96 98 99 27 73 100 100 98 100 100
5 5 6 24 50 5 5 5 0 2 29 91 46 100 100 100 15 91 100 64 53 100 40 6 15 32 2 24 22 68 92 100 100 99 100 64 100 64 76 5 88 67 91 80 96 79 67 87 100 100 75 83 100 100
71 18 25 6 5 5 5 5 11 28 4 5 75 41 98 100 100 100 92 99 100 93 61 82 90 92 91 42 63 54 22 100 100 66 59 100 51 99 78 95 99 95 100 53 99 42 36 100 100 85 70 99 100 100
9 25 6 5 5 5 3 2 42 28 0 40 77 54 99 100 77 58 20 100 100 92 77 100 70 7 94 29 4 21 37 4 5 40 31 58 91 100 98 100 67 95 59 90 100 8 98 37 39 75 100 100 79 55
70 13 5 5 10 36 42 0 0 6 36 72 74 100 92 100 74 16 100 80 100 88 87 34 0 50 64 100 96 90 71 41 99 100 100 100 100 100 94 99 77 92 63 41 94 96 72 40 3 60 86 99 85 100
66 11 5 50 9 32 4 3 14 4 42 98 91 96 100 43 23 100 100 99 99 98 93 10 60 14 92 99 95 21 69 95 92 79 56 100 97 100 100 100 76 100 90 99 59 42 99 21 22 93 86 87 100 100
54 56 76 99 3 1 11 96 93 100 100 91 55 98 100 58 91 100 100 100 98 100 100 42 66 70 40 73 92 71 13 32 100 100 86 71 100 100 60 24 100 100 84 76 100 94 99 100 88 78 100 97 66 100
84 58 90 5 6 24 99 100 100 97 79 74 100 100 100 99 100 100 98 100 100 100 100 62 5 5 26 5 2 1 2 5 80 100 95 100 77 98 83 100 55 91 98 100 99 75 100 59 71 80 99 74 43 97
96 95 4 0 16 74 77 80 19 47 69 100 100 100 92 100 100 96 82 99 100 100 100 100 56 4 0 0 0 0 5 5 7 54 17 62 88 98 61 100 100 69 94 87 85 95 98 96 54 74 100 100 85 83
100 20 5 4 2 14 62 81 74 88 76 90 36 80 100 100 100 91 100 100 100 100 98 100 99 19 0 0 0 3 0 28 67 74 53 90 100 100 95 87 18 0 9 7 81 99 36 98 88 94 58 97 98 93
48 1 4 27 14 97 41 99 43 100 76 63 98 99 95 100 84 100 100 100 100 100 99 100 100 71 0 0 0 1 1 17 76 66 20 100 100 100 99 98 100 97 99 13 3 25 18 40 82 96 86 99 100 100
1 3 9 75 89 70 71 100 39 63 19 16 66 87 98 100 100 100 100 100 100 100 100 100 100 80 0 0 0 0 0 0 3 61 100 93 91 85 97 73 94 100 76 100 94 48 2 69 60 100 94 100 100 99
1 2 2 10 56 57 62 96 62 46 34 98 100 100 89 100 100 100 100 100 100 100 100 100 100 21 0 0 0 0 0 0 0 0 2 14 54 73 78 98 99 100 100 100 100 100 98 99 95 100 94 94 82 85
5 9 71 68 100 100 80 58 44 76 98 78 99 100 100 100 100 100 100 99 100 100 100 100 100 32 0 0 0 0 0 2 4 2 4 10 58 58 100 100 95 94 95 100 99 88 100 100 100 100 100 100 97 96
66 89 62 59 5 8 37 22 24 55 59 100 88 100 98 100 98 100 96 100 78 100 100 100 100 4 0 0 0 0 0 0 0 27 1 0 0 2 43 97 97 99 98 98 99 99 100 99 100 100 100 100 100 100

GFSWCAN_prec_cloud_054.txt.gz
Cloud_Cover
100 100 100 100 100 100 100 100 96 5 2 5 0 0 3 5 4 8 0 0 19 15 26 5 1 5 10 36 90 92 56 99 100 86 100 100 100 100 100 100 100 100 100 96 73 100 93 80 64 34 5 0 0 0
100 100 100 100 100 100 100 100 37 15 5 5 1 0 1 5 5 1 78 0 0 3 10 5 8 5 5 5 6 90 100 99 96 92 93 100 100 100 100 100 100 100 100 100 100 100 85 90 98 30 52 2 0 0
100 100 100 100 100 100 99 99 19 24 100 5 0 0 0 4 5 14 12 9 32 26 41 68 74 11 31 32 5 68 100 95 96 99 92 100 100 100 100 100 100 100 100 100 100 100 100 100 100 100 100 55 35 2
100 100 100 100 100 100 100 100 86 82 47 4 0 1 0 0 5 0 46 74 99 96 71 82 98 13 10 60 68 57 98 100 100 81 96 100 100 100 100 100 100 100 100 100 100 100 100 100 100 100 100 100 100 100
100 100 100 100 100 100 100 100 88 100 97 1 0 0 0 0 0 4 58 89 98 99 34 93 100 23 79 81 100 85 88 100 100 97 100 95 100 100 100 100 100 100 100 100 100 100 100 100 100 100 100 100 100 100
100 100 100 100 100 96 80 100 100 100 100 24 0 0 0 0 0 93 70 84 100 100 92 18 58 72 93 77 97 5 35 100 100 100 100 79 99 83 100 100 100 100 100 100 100 100 100 100 100 100 100 100 100 100
100 100 100 100 100 61 100 100 100 100 100 100 2 0 0 0 11 99 83 67 4 6 99 85 8 100 90 73 86 100 59 15 60 100 100 100 98 69 100 100 100 100 100 100 100 100 100 100 100 100 100 100 100 100
100 100 100 100 22 100 100 99 100 100 100 100 35 0 0 0 2 19 18 28 10 61 52 65 39 50 78 85 100 90 86 60 67 84 98 100 100 89 76 100 100 100 100 100 100 100 100 100 100 100 100 100 100 100
100 100 100 71 96 100 77 73 100 100 100 100 23 0 10 29 73 60 4 5 37 67 79 76 100 100 100 100 100 100 77 96 86 96 99 40 100 100 86 72 100 100 100 100 100 100 100 100 100 100 100 100 100 100
100 100 100 100 100 100 46 100 96 100 100 75 34 59 77 69 0 1 21 86 97 39 33 5 14 100 47 100 100 91 46 100 75 4 86 15 81 97 100 99 38 98 100 100 100 100 100 100 100 100 100 100 100 100
100 100 100 60 100 100 100 99 93 19 29 11 84 59 1 4 9 23 15 34 39 20 9 90 84 42 100 80 85 100 98 91 93 96 92 75 57 100 66 94 5 49 71 100 100 100 100 100 100 100 100 100 100 100
100 97 25 98 81 100 100 92 98 23 5 38 3 0 8 5 27 53 16 91 30 17 43 100 100 100 95 73 94 100 88 96 100 100 98 84 100 100 100 100 57 15 98 54 100 100 100 98 100 100 100 100 100 100
100 100 92 98 100 100 100 100 82 6 7 7 18 66 31 21 64 86 43 29 93 100 100 100 100 100 49 84 100 100 100 100 100 100 100 100 100 98 98 100 92 99 89 100 100 100 100 100 100 100 100 100 100 100
100 35 92 96 100 58 61 97 100 68 7 12 100 96 18 65 98 30 27 100 100 76 5 5 28 96 18 81 68 100 100 100 100 100 74 83 100 100 99 38 99 90 95 15 100 87 100 100 70 100 100 100 100 100
100 100 100 100 86 5 5 24 96 10 5 18 92 64 47 52 91 93 100 100 52 79 40 55 84 15 32 42 62 26 61 100 100 100 55 96 100 62 54 92 5 94 99 47 93 98 63 99 100 100 100 100 100 100
100 100 96 98 8 5 7 69 40 5 5 5 3 14 41 64 55 55 13 50 98 54 100 5 12 43 95 72 82 29 12 5 72 21 50 40 60 17 4 19 57 33 100 100 88 16 94 76 100 97 100 100 100 84
42 96 9 43 96 5 0 20 20 5 5 26 55 86 99 74 92 100 90 99 19 5 98 87 2 55 100 100 96 38 70 59 87 94 99 17 5 3 0 3 16 28 50 98 15 98 88 97 90 100 100 86 100 65
100 57 91 99 5 3 0 5 5 8 55 18 99 89 53 5 40 18 53 11 5 5 62 97 24 72 100 84 52 12 4 72 73 39 75 52 5 2 4 5 5 5 23 5 51 64 89 22 36 100 100 84 100 70
100 100 98 26 15 14 12 17 5 4 41 100 87 65 74 35 44 100 71 32 16 82 58 77 20 4 8 3 3 4 90 100 21 100 63 36 100 5 5 17 5 26 46 88 14 96 87 3 41 83 44 42 100 100
100 8 21 13 61 2 5 19 4 18 80 12 45 25 91 100 100 56 27 12 48 87 100 96 5 18 90 98 82 81 6 73 59 34 95 66 88 37 64 99 34 5 37 30 100 82 94 84 93 100 18 16 88 100
17 19 67 17 4 5 4 21 67 92 72 4 5 6 59 36 79 78 40 5 60 84 100 91 22 100 9 19 61 20 4 5 8 84 100 100 71 97 47 35 98 49 29 100 100 73 75 73 32 98 62 30 74 82
21 21 6 5 5 37 11 0 32 74 12 34 96 38 52 68 6 48 5 24 60 81 100 100 97 5 78 8 24 27 6 87 34 1 9 96 66 76 81 100 100 3 15 100 100 94 100 86 45 72 34 76 19 34
62 14 12 51 75 70 42 29 32 4 51 22 77 67 16 53 39 10 97 100 22 67 100 100 100 95 95 19 84 89 80 5 85 89 69 53 2 54 98 71 96 24 88 100 62 12 74 43 100 91 90 18 98 20
60 1 57 25 23 32 28 21 6 12 77 100 68 55 15 31 68 99 46 59 38 85 98 98 100 100 44 44 90 73 10 29 16 5 33 48 87 30 94 100 100 82 62 26 12 62 100 99 59 85 36 100 47 86
50 47 36 99 50 89 99 38 24 16 84 42 100 36 58 50 62 100 100 83 100 73 100 100 100 100 81 21 4 41 24 6 68 52 74 20 99 76 84 100 81 58 7 4 2 10 38 100 100 95 48 100 90 25
83 7 75 6 4 4 42 41 87 97 100 98 91 91 100 67 100 100 100 99 100 100 100 100 100 100 64 3 0 0 5 6 5 5 58 98 66 46 56 38 77 100 85 72 90 9 58 77 76 89 92 45 8 63
48 85 22 5 26 80 89 100 96 100 100 100 100 100 100 99 85 93 100 100 100 100 100 100 98 100 93 4 2 0 0 4 2 5 36 46 74 32 21 64 75 20 64 98 13 76 80 50 55 28 71 6 55 72
65 11 36 49 23 5 59 99 100 100 100 100 100 100 100 100 91 50 63 91 100 100 100 78 100 100 100 8 0 0 0 6 60 78 5 31 9 40 24 3 0 0 0 5 34 68 80 76 98 92 97 100 99 74
5 3 3 22 73 93 83 25 100 100 100 100 100 99 64 75 72 100 100 100 100 100 96 21 53 75 99 1 0 0 0 12 46 14 61 87 85 69 64 97 81 77 32 1 0 0 1 36 46 72 23 98 86 64
4 2 5 5 36 86 100 96 100 98 100 98 39 19 11 36 100 100 100 100 100 100 72 86 72 99 71 0 0 0 0 0 0 34 73 62 60 54 77 84 78 83 84 89 54 25 2 69 53 71 86 77 98 76
4 5 5 10 95 86 100 100 100 100 100 57 18 7 28 90 100 99 89 49 79 95 96 92 97 100 10 0 0 0 0 0 0 0 0 5 56 42 68 67 51 66 84 82 97 79 97 90 59 74 82 90 55 80
5 27 48 88 84 98 100 100 100 100 100 100 93 100 89 97 30 29 26 80 100 100 71 100 100 38 0 0 0 0 0 0 0 0 0 22 8 36 37 75 84 70 72 76 77 76 43 86 86 76 79 92 85 82
87 91 57 98 100 100 100 100 100 100 100 92 100 84 100 100 77 24 21 24 94 89 100 100 100 4 0 0 0 0 0 0 0 0 0 0 0 1 38 86 62 79 70 87 98 77 76 70 60 42 88 92 96 76

GFSWCAN_prec_cloud_057.txt.gz
Cloud_Cover
100 100 100 100 100 100 100 100 100 12 62 92 0 0 0 5 0 0 0 0 0 3 5 4 3 5 5 11 28 5 31 10 8 100 100 100 100 100 100 96 100 100 100 100 100 100 87 31 8 64 73 0 7 0
100 100 100 100 100 100 100 100 100 6 100 26 0 0 0 0 0 0 10 0 0 0 6 0 3 5 0 0 5 52 5 57 22 100 98 99 100 100 100 100 89 100 100 100 100 100 41 30 55 17 28 93 62 63
100 100 100 100 100 100 100 100 100 100 100 4 4 0 0 0 0 0 0 2 1 0 5 5 82 69 7 8 5 13 34 10 5 87 99 84 100 87 100 100 100 100 100 100 100 100 82 47 95 67 19 98 26 0
100 100 100 100 100 100 100 100 100 100 60 96 4 0 0 0 0 0 0 26 74 6 30 3 62 98 18 20 13 88 61 92 99 93 98 88 90 100 99 70 100 95 98 100 100 99 100 100 100 100 100 100 100 100
97 100 100 100 100 100 100 95 100 100 100 100 7 0 0 0 0 0 0 0 39 48 45 0 60 100 100 97 100 28 6 21 94 100 94 82 56 50 80 66 100 100 100 100 100 100 100 100 100 100 100 100 100 100
100 100 100 100 100 100 100 8 100 100 100 100 75 2 2 0 0 24 77 78 86 100 100 18 66 71 99 35 84 68 5 5 5 66 52 61 98 5 83 100 94 100 100 100 100 100 100 100 100 100 100 100 100 100
100 100 100 100 100 100 100 100 36 89 100 100 100 4 5 0 3 7 78 14 6 19 95 46 44 20 5 81 14 86 67 29 8 84 26 94 70 5 7 70 98 91 100 100 100 100 100 100 100 100 100 100 100 100
100 100 100 100 100 100 100 100 10 100 100 100 100 19 4 0 0 0 1 0 2 53 98 60 89 84 47 69 6 65 63 14 82 100 76 44 8 8 17 10 34 87 70 100 100 100 100 100 100 100 100 100 100 100
100 100 100 100 100 100 77 5 62 100 100 100 100 5 3 7 3 8 0 19 96 65 100 94 22 91 100 100 77 23 90 69 68 100 100 81 99 87 99 23 39 5 5 99 100 100 100 100 100 100 100 100 100 100
100 100 100 100 100 100 92 11 100 100 100 99 16 37 11 73 26 1 95 100 100 98 100 100 100 100 100 100 100 100 81 100 100 84 93 97 99 89 74 28 64 5 5 43 96 100 100 100 100 100 100 100 100 100
100 100 100 100 82 94 20 100 98 54 32 5 24 72 10 4 0 2 100 100 100 100 100 100 53 100 100 100 100 100 100 100 100 100 58 100 69 52 98 45 14 19 34 100 89 68 100 100 100 100 100 100 100 100
100 100 100 98 40 98 100 100 72 44 6 8 6 5 8 5 35 13 47 86 100 71 22 6 5 6 39 34 4 5 64 100 100 100 100 100 88 32 47 25 73 5 55 100 89 12 99 100 100 100 100 100 100 100
100 100 100 100 100 100 100 100 92 96 5 5 8 5 23 44 62 84 99 100 52 5 95 89 88 5 24 4 5 8 96 99 100 100 99 100 100 98 97 70 24 5 43 12 5 5 47 100 100 100 100 100 100 100
100 100 100 100 100 100 94 80 100 65 11 5 16 96 4 15 84 99 100 100 100 98 100 92 86 81 26 8 39 7 13 63 97 94 68 98 100 100 16 35 96 18 98 5 5 64 23 54 94 100 100 100 100 100
100 100 100 100 92 10 71 100 95 28 5 8 24 58 6 33 93 100 100 52 97 73 91 53 96 5 7 84 7 11 5 7 5 69 58 5 5 5 12 0 66 99 22 69 76 2 5 40 64 71 100 100 100 100
100 100 100 100 98 100 100 51 54 5 5 5 4 2 86 85 64 90 86 100 97 25 35 100 35 5 48 4 6 7 7 5 13 43 35 11 100 5 4 2 53 16 4 35 93 37 12 66 55 56 91 100 100 100
100 100 100 100 100 100 100 43 12 5 5 4 9 93 93 95 62 58 100 96 24 43 17 100 80 5 3 6 7 24 6 2 58 94 62 6 7 4 5 0 4 2 5 7 33 62 47 43 60 100 31 82 100 100
100 100 100 100 100 98 94 33 5 6 7 2 42 94 92 100 74 89 100 70 29 5 16 96 100 100 61 5 1 0 3 2 30 24 43 99 100 95 71 32 5 5 14 37 95 64 97 94 77 8 50 12 91 100
100 100 100 100 66 70 18 25 5 5 0 22 44 14 33 30 7 44 31 38 78 53 51 21 55 36 100 12 5 4 5 5 12 5 5 83 100 100 100 51 5 27 84 5 5 45 100 100 100 94 11 4 3 17
100 100 100 80 100 11 5 5 5 2 4 18 49 98 100 58 58 57 9 79 22 75 85 65 37 100 100 75 12 56 52 48 2 7 2 34 49 94 100 100 76 5 7 52 20 13 100 100 100 100 91 5 5 37
91 100 100 98 17 5 5 17 100 32 6 6 17 100 100 100 97 55 88 11 46 52 66 40 66 100 100 97 5 4 5 2 3 1 0 4 5 9 82 100 100 54 19 81 16 8 96 100 100 97 99 34 1 1
100 85 42 39 5 5 5 5 0 25 5 1 7 100 100 24 38 94 94 48 98 100 100 100 100 100 100 100 10 1 4 5 16 42 24 5 7 46 22 5 86 11 38 3 100 100 100 100 100 100 91 12 16 2
23 53 45 9 3 32 41 2 0 15 25 97 74 86 41 37 18 99 100 95 100 63 41 99 100 100 69 100 100 12 5 3 23 81 74 45 30 75 32 18 96 100 54 5 50 100 100 100 100 100 97 40 51 5
60 6 22 91 91 32 0 1 10 0 78 67 67 100 100 100 96 100 100 100 100 76 92 99 98 100 69 97 90 53 9 5 5 14 62 99 58 5 11 35 57 100 98 30 4 1 45 100 100 100 100 87 9 5
10 47 36 99 5 23 0 24 59 1 95 98 72 100 100 100 100 100 100 100 100 100 94 100 99 100 44 82 97 5 0 0 3 5 18 44 30 71 80 94 28 7 17 5 25 4 41 95 72 88 87 84 7 7
82 7 87 5 0 0 1 21 99 100 100 99 100 100 100 100 100 100 100 100 100 100 100 100 100 100 57 85 99 0 4 4 1 0 5 5 5 5 5 21 4 5 2 20 2 42 55 78 58 76 79 9 7 25
48 11 5 0 5 5 25 100 100 100 88 94 82 99 100 100 100 100 44 42 100 100 100 100 100 72 65 100 40 0 0 2 4 4 0 5 4 5 4 2 3 5 5 41 17 73 53 47 95 34 5 7 5 5
14 5 0 8 97 61 50 99 82 100 100 100 100 100 100 99 77 77 95 80 66 93 100 100 98 76 96 84 0 0 3 5 55 61 3 4 4 0 0 0 0 0 0 5 15 20 21 26 12 65 42 11 5 15
5 5 3 1 4 12 98 99 100 100 100 100 100 100 100 100 100 100 100 100 84 10 88 23 33 99 92 0 0 0 1 5 29 5 5 5 5 5 5 6 6 4 0 0 0 0 1 2 17 22 42 78 71 18
5 5 5 5 20 98 99 100 99 100 100 100 100 100 99 81 97 70 92 98 27 47 15 5 18 39 0 0 0 0 0 1 3 34 5 4 1 4 5 15 70 59 57 28 20 4 5 5 76 82 32 6 45 46
12 5 21 30 100 96 90 72 98 100 100 100 100 100 100 97 65 52 84 90 81 76 4 22 26 5 0 0 0 0 0 0 0 0 0 0 5 5 5 22 15 5 50 11 48 69 54 83 82 5 42 18 5 22
5 28 65 81 97 99 100 100 99 97 100 100 100 100 100 100 100 29 97 60 5 42 50 13 26 61 2 0 0 0 0 0 0 0 0 0 0 3 45 64 25 5 69 87 37 5 80 16 6 5 4 11 92 95
90 100 100 100 100 100 100 100 100 93 100 100 100 100 100 93 61 96 76 16 35 7 26 46 100 33 2 0 0 0 0 0 0 0 0 0 0 0 4 21 14 49 39 86 18 30 7 10 18 86 100 99 63 5

GFSWCAN_prec_cloud_060.txt.gz
Cloud_Cover
100 100 91 100 77 100 100 100 100 100 65 57 3 5 0 0 0 0 0 0 0 0 0 0 0 0 0 0 4 0 10 5 5 20 50 100 100 100 91 84 100 53 96 21 100 91 92 62 88 72 21 27 87 60
100 100 68 98 100 100 100 100 100 100 99 100 40 4 0 0 0 0 0 0 0 0 0 0 3 5 4 4 0 4 7 5 5 6 32 61 100 100 100 97 100 100 92 94 83 5 21 5 36 46 94 100 100 100
100 98 85 100 100 100 100 100 100 100 100 100 16 5 0 0 0 0 0 0 0 0 4 51 90 61 29 6 4 1 0 3 5 5 4 13 96 59 93 95 100 100 72 88 80 97 72 21 28 90 100 100 100 100
100 95 69 100 100 100 100 100 100 100 100 100 83 1 0 0 0 0 0 0 18 4 21 4 1 5 65 18 22 81 5 4 5 5 29 26 7 6 26 34 98 37 76 100 99 50 100 100 100 100 100 99 100 100
96 85 99 100 100 100 100 100 100 100 100 100 100 0 0 0 0 1 4 0 20 63 30 100 78 5 6 7 17 86 79 91 16 27 56 58 76 10 18 63 100 27 76 71 100 92 100 100 100 100 100 100 100 100
100 100 100 100 100 100 100 100 100 100 100 100 100 23 4 5 0 0 44 71 89 100 100 100 100 100 100 100 82 100 100 100 100 100 71 100 100 56 30 88 5 2 5 68 99 100 100 100 100 100 100 100 100 100
98 97 100 100 100 100 100 100 100 91 100 100 100 96 5 4 0 0 5 44 100 100 100 100 100 98 100 100 100 100 97 100 100 100 100 98 69 95 58 11 5 5 5 4 5 36 100 100 100 100 96 100 100 100
99 99 100 100 100 100 100 97 100 100 100 100 100 98 5 5 0 3 5 6 87 100 81 94 96 90 100 100 100 100 100 100 100 100 100 100 92 38 13 5 3 3 1 4 4 6 77 100 100 100 100 100 96 100
30 83 100 100 100 100 100 100 100 100 100 100 94 2 5 6 16 49 79 100 100 68 55 32 9 22 5 95 100 100 100 100 100 100 100 98 100 91 5 5 5 5 1 1 5 5 5 56 100 96 100 100 92 100
98 95 100 100 100 100 100 86 100 100 100 95 29 1 8 98 59 80 44 18 19 6 28 69 5 5 5 8 33 46 100 100 100 100 100 100 100 91 14 46 30 5 6 73 8 65 98 5 20 100 100 100 100 100
100 98 100 100 100 100 100 100 100 61 100 97 13 8 27 4 0 8 51 98 55 84 69 55 91 14 5 14 13 47 100 100 100 100 100 100 100 100 80 96 94 18 29 75 46 42 4 5 7 100 100 100 100 100
98 100 100 100 100 100 100 100 100 100 100 28 39 7 5 3 37 89 41 79 47 28 63 58 99 29 49 67 99 72 69 100 100 98 100 100 100 100 100 85 5 32 77 40 66 46 5 5 6 90 100 100 100 100
100 100 100 100 100 100 100 100 100 100 51 93 11 5 24 39 37 100 99 100 99 91 43 22 100 46 93 6 34 18 78 65 57 53 86 100 100 100 85 20 16 5 5 27 66 5 5 3 5 76 100 100 100 100
100 100 100 100 100 100 100 100 100 100 100 5 5 96 18 8 100 100 100 100 92 61 45 6 20 5 90 78 2 5 5 28 18 57 98 49 52 31 32 5 71 5 4 5 5 5 5 16 5 100 100 100 100 100
100 100 100 100 100 100 100 100 100 100 49 7 2 58 3 7 42 92 30 48 44 27 5 70 6 20 100 100 6 4 4 7 5 22 43 66 78 50 50 5 19 10 0 0 5 5 4 5 52 18 86 100 100 100
100 100 100 100 100 100 100 100 100 54 16 1 0 0 28 78 95 100 98 100 56 5 5 44 6 10 42 100 17 5 4 5 3 13 5 82 6 80 60 20 99 100 4 2 6 19 6 5 11 5 5 89 100 100
100 100 100 100 100 100 100 100 62 48 5 2 0 6 100 100 99 88 13 88 74 64 47 5 21 27 31 100 74 5 5 5 5 5 18 72 41 66 100 100 86 86 43 23 27 5 4 28 5 56 5 5 17 100
100 100 100 100 100 100 100 100 98 6 5 0 2 60 98 100 100 99 33 92 88 40 21 99 84 50 12 100 100 39 11 5 43 8 5 5 5 8 63 88 99 100 100 100 96 44 6 19 9 5 5 4 5 33
100 100 100 100 100 100 99 100 6 4 4 0 10 65 94 100 100 100 44 22 10 94 100 100 65 18 19 100 100 17 23 16 24 5 5 5 1 23 5 50 100 100 100 100 97 89 98 55 5 18 12 5 5 5
100 100 100 100 100 100 100 12 5 3 1 19 46 86 100 100 100 100 8 100 96 100 100 100 54 8 99 100 100 61 30 7 5 25 4 5 1 4 17 70 88 100 100 100 100 65 63 53 92 100 43 7 0 5
100 100 100 100 95 53 5 5 36 13 2 3 92 100 100 96 100 50 93 100 100 100 100 100 38 78 98 100 100 99 32 5 5 4 96 5 5 99 37 9 5 5 10 84 100 47 6 73 96 100 100 14 0 0
100 100 100 100 93 11 5 5 0 0 2 13 34 76 100 100 100 100 100 100 100 100 100 92 94 100 100 100 98 100 71 5 0 5 67 92 86 91 98 91 95 100 100 100 81 6 96 100 100 100 70 11 5 0
100 100 100 49 31 35 21 0 0 0 0 3 73 74 100 100 100 100 100 100 100 100 100 100 93 100 100 100 100 88 5 5 5 11 87 88 36 13 23 7 89 100 100 100 97 100 100 100 100 100 83 57 1 0
100 77 16 6 9 34 2 0 7 9 1 60 48 100 100 100 100 100 100 100 100 100 100 100 83 72 70 99 49 5 5 1 0 21 15 5 5 38 52 12 9 31 44 19 0 1 5 47 100 100 100 76 13 5
56 53 50 99 42 0 0 9 98 91 100 99 100 100 99 100 100 100 100 100 100 100 100 100 89 5 61 64 1 0 0 0 0 0 0 0 5 75 5 5 5 5 4 0 6 82 52 93 95 89 100 96 64 52
84 9 29 5 1 3 57 85 96 99 75 92 100 100 100 100 100 100 100 100 100 100 98 88 92 70 60 0 0 0 0 0 0 0 0 0 5 5 5 5 5 2 3 5 5 42 71 79 16 22 70 62 16 5
49 5 5 3 3 93 92 99 87 98 100 98 98 71 60 100 100 100 100 100 100 95 70 12 4 5 0 0 0 0 0 0 3 1 0 0 0 0 0 0 0 0 0 5 5 5 8 14 5 5 30 3 10 22
5 5 5 1 0 62 78 91 100 100 100 100 100 100 100 100 100 100 100 100 100 87 12 4 0 0 5 0 0 0 0 2 5 5 2 0 0 0 0 0 0 2 5 5 35 2 5 5 5 5 5 5 5 24
5 5 5 0 5 77 44 50 93 100 100 100 100 93 100 100 100 100 100 100 100 100 7 94 2 19 2 0 0 0 0 2 35 19 2 2 0 3 5 3 0 0 0 0 2 4 1 5 5 5 11 28 78 73
28 5 5 6 11 35 59 100 98 100 100 100 100 100 100 100 100 100 100 100 98 62 45 18 23 78 4 0 0 0 0 3 46 1 0 1 0 3 5 5 5 4 5 5 5 5 5 5 21 5 11 9 34 5
5 5 29 73 15 48 95 100 100 100 100 100 100 100 100 100 100 100 100 100 90 98 29 7 15 64 18 0 0 0 0 0 0 0 0 0 0 2 4 5 5 5 5 5 5 5 5 35 5 5 5 5 5 5
7 5 6 68 92 95 96 94 29 65 100 100 100 97 88 100 100 100 100 79 24 5 5 7 13 64 20 4 0 0 0 0 0 0 0 0 0 1 5 5 5 5 5 5 5 5 5 5 3 5 5 66 26 5
75 50 100 84 96 97 56 9 20 83 91 81 93 100 100 100 100 96 28 5 6 69 5 5 5 28 25 20 18 0 0 0 0 0 0 0 0 0 5 5 2 5 5 5 5 5 5 5 5 17 57 9 5 5

GFSWCAN_prec_cloud_063.txt.gz
Cloud_Cover
100 100 100 100 100 84 100 100 100 100 100 100 97 1 5 0 0 0 0 0 0 0 0 0 4 0 0 0 0 0 1 0 5 6 6 96 98 98 97 71 5 45 84 73 100 76 41 8 11 5 6 5 49 100
100 100 100 100 100 100 100 100 100 100 100 100 82 4 5 0 0 0 0 0 0 5 3 5 5 5 22 5 0 2 2 0 0 15 40 81 100 92 90 66 53 48 8 13 5 5 5 4 3 39 100 100 97 100
100 100 100 100 100 100 100 100 100 100 100 96 6 94 7 4 2 0 0 4 6 5 5 4 15 5 5 4 4 5 5 5 10 74 55 6 21 46 94 72 81 89 49 100 100 100 31 8 5 5 8 47 100 100
100 100 100 100 100 100 100 100 100 100 100 100 93 90 5 4 4 0 2 42 100 100 100 74 54 23 23 11 18 4 6 53 92 5 97 100 89 5 29 5 27 5 72 97 76 11 87 100 100 14 25 60 97 100
100 100 100 100 100 100 100 100 100 100 100 99 100 43 8 5 1 0 10 1 21 100 100 95 100 78 14 32 17 45 100 100 98 96 19 99 100 95 14 31 66 25 21 36 23 10 27 5 70 100 100 58 91 100
100 100 100 100 100 100 100 100 100 100 100 100 99 100 63 5 4 0 0 0 6 94 100 73 5 47 72 45 100 73 100 100 100 100 100 95 100 100 100 100 5 0 0 0 5 5 5 5 5 100 100 100 100 87
100 100 100 100 100 100 100 92 100 100 96 100 94 100 65 5 5 0 0 0 5 10 91 25 5 5 6 9 16 68 100 100 100 100 100 100 100 100 100 100 5 1 2 4 0 4 0 5 5 8 67 100 100 100
100 100 100 100 100 100 100 100 100 100 100 100 100 100 37 5 8 0 10 87 99 98 93 55 93 13 7 13 61 100 99 89 100 100 100 100 100 100 100 100 100 54 15 5 4 2 0 5 5 32 5 100 98 83
100 100 100 100 100 100 100 100 100 100 100 100 100 52 17 18 3 0 16 63 100 98 34 45 26 34 8 49 14 21 55 100 100 100 100 100 100 100 85 100 100 100 98 7 5 5 5 2 0 16 40 7 100 100
100 100 100 100 100 100 100 100 100 100 100 100 100 79 5 3 0 9 79 36 16 64 66 91 39 29 4 8 45 100 100 100 100 100 100 100 100 100 100 100 90 100 100 11 5 10 4 0 0 4 5 71 65 89
100 100 100 100 100 100 100 100 100 100 100 100 97 28 5 4 1 19 51 77 91 96 40 39 9 5 5 22 96 30 78 84 100 12 71 93 100 100 100 98 100 63 33 59 5 88 88 5 4 2 5 87 67 99
100 100 100 100 100 100 100 100 99 100 100 100 54 23 5 3 45 80 53 49 50 42 12 16 6 21 5 35 100 84 95 83 77 12 69 75 20 75 69 91 100 100 100 100 100 25 18 5 1 4 68 5 78 96
100 100 100 100 100 100 100 100 100 100 100 24 33 10 35 5 88 29 6 38 97 66 57 77 83 5 41 43 83 74 98 66 12 58 89 1 5 5 13 5 11 5 42 99 28 13 5 11 2 5 84 59 45 92
100 100 100 100 100 100 100 100 100 100 100 57 34 97 66 14 12 29 67 48 100 39 77 99 100 98 10 72 57 99 6 39 44 48 5 3 5 5 5 5 5 43 50 60 5 8 23 21 4 5 5 5 96 100
100 100 100 100 100 100 100 100 100 100 68 52 100 66 2 1 9 8 56 67 69 46 99 33 82 100 100 92 98 100 26 35 5 5 3 2 5 5 5 63 63 7 20 75 3 12 87 30 8 5 5 5 44 100
100 100 100 100 100 100 100 100 100 100 93 93 68 5 0 10 98 94 100 100 100 100 100 100 93 100 100 97 100 100 97 100 68 0 3 5 6 5 12 88 12 100 100 100 46 79 100 99 34 5 5 5 2 92
100 100 100 100 100 100 100 100 100 100 87 53 5 0 1 83 32 96 89 100 100 100 100 100 100 100 100 100 100 100 100 100 48 32 29 5 5 0 5 94 67 99 100 100 100 100 100 30 74 63 4 4 0 55
94 100 100 100 100 100 100 99 56 83 75 5 5 5 77 73 65 100 100 100 100 100 100 100 100 100 100 100 100 100 100 100 100 5 5 5 5 0 0 5 26 13 95 100 100 100 100 100 72 82 82 5 5 5
99 100 100 100 100 100 100 69 81 5 5 5 1 5 12 90 91 44 51 100 100 100 100 100 100 100 100 100 100 100 100 100 10 5 5 5 5 1 0 4 49 5 5 33 100 100 100 100 99 98 100 18 5 24
100 100 100 100 100 100 100 100 49 8 5 45 28 74 74 76 75 78 77 100 67 100 100 100 100 100 100 65 46 100 92 5 0 4 4 28 36 5 32 91 63 19 15 6 21 88 100 100 100 100 100 100 21 5
100 100 100 100 100 100 99 19 8 5 5 0 40 77 49 94 96 100 96 100 100 100 100 100 100 100 95 90 66 19 5 4 5 1 5 5 5 63 100 71 100 76 43 50 10 48 6 100 100 100 100 94 78 8
100 100 100 100 100 94 50 8 4 5 0 2 5 5 99 100 100 100 100 100 100 100 100 100 100 100 100 65 10 3 5 0 0 1 17 54 56 2 5 40 20 96 100 80 66 14 89 100 99 100 100 88 100 28
100 100 100 100 77 66 56 4 1 6 23 0 4 29 53 77 83 99 100 100 100 100 100 100 100 100 100 37 5 5 3 2 0 2 5 2 1 3 4 3 5 16 3 4 3 5 38 99 100 100 96 91 82 39
100 100 99 26 74 72 31 4 5 41 56 5 5 5 54 22 11 60 100 100 100 100 100 100 100 100 48 5 2 0 0 0 0 0 0 0 4 5 4 0 0 0 3 0 1 5 49 100 100 100 100 97 53 28
100 66 69 99 21 66 17 94 28 84 100 71 51 77 30 40 96 67 54 100 100 100 100 100 100 17 5 9 0 0 0 0 0 0 0 0 0 3 4 5 0 4 6 40 7 27 66 34 91 94 100 100 98 6
89 13 29 4 5 7 13 27 48 42 33 90 92 97 27 43 26 62 100 97 100 100 100 100 100 5 68 8 0 0 0 0 0 0 0 0 0 0 4 2 1 2 3 5 5 5 5 0 5 4 5 4 5 5
56 5 4 5 5 6 32 48 58 59 65 70 12 49 80 70 81 100 98 100 100 100 100 100 35 5 5 2 0 0 0 0 0 0 0 0 0 0 0 0 0 4 5 5 5 5 25 4 2 3 2 5 5 5
5 5 5 4 0 5 74 98 8 43 100 66 39 100 77 100 100 100 100 100 100 100 100 100 18 5 2 5 0 0 0 0 5 0 1 0 0 0 0 0 0 2 4 5 3 3 9 6 5 5 5 5 4 5
5 5 5 5 0 0 9 6 58 61 85 59 99 94 97 47 54 71 100 100 100 100 100 73 24 4 9 5 1 0 0 0 2 5 0 0 0 0 0 0 0 0 3 0 3 1 5 4 3 5 5 5 6 13
5 5 10 4 0 5 21 47 68 75 97 99 99 92 100 94 100 100 100 100 100 91 62 35 5 5 5 5 5 0 0 0 0 0 0 0 0 0 0 3 0 1 5 5 5 4 5 5 5 5 9 5 5 5
5 5 22 5 5 6 59 84 21 8 54 68 50 58 91 100 100 100 100 100 98 32 11 5 5 5 5 5 5 2 0 0 0 0 0 0 0 0 0 1 3 4 5 5 5 5 5 5 5 5 5 5 5 5
5 5 5 5 16 89 100 98 65 73 77 99 77 97 100 100 100 100 67 12 5 40 5 5 5 43 8 5 5 5 4 0 0 0 0 0 0 0 2 2 0 4 5 5 5 5 5 5 5 5 5 5 5 5
10 28 40 40 77 59 76 100 96 62 26 50 42 95 100 100 98 80 51 5 5 44 66 39 5 5 5 5 5 5 5 4 0 0 0 0 0 0 0 0 4 5 5 5 5 5 5 5 5 5 5 5 5 5

GFSWCAN_prec_cloud_066.txt.gz
Cloud_Cover
100 100 100 100 100 100 100 100 100 100 100 100 100 35 11 3 4 0 5 5 5 1 4 2 3 0 0 0 4 5 0 0 0 11 12 60 35 78 75 8 5 5 15 80 94 89 32 5 3 3 0 0 3 33
100 100 100 100 100 100 100 100 100 100 100 100 100 14 67 5 2 0 0 5 6 71 100 99 13 5 5 3 0 3 0 4 5 41 38 53 99 97 64 36 5 51 5 10 5 5 5 2 13 3 0 4 5 65
100 100 100 100 100 100 100 100 100 100 100 100 94 81 5 48 6 1 0 0 3 5 88 100 18 5 5 7 4 3 0 4 4 0 2 6 20 29 33 9 51 11 6 5 14 3 3 5 7 4 1 3 6 99
100 100 100 100 100 100 100 100 100 100 100 100 100 100 14 55 5 3 0 3 2 4 5 15 5 5 6 57 5 5 5 5 28 13 53 51 2 4 71 5 8 4 15 37 30 35 5 1 0 0 5 3 5 65
100 100 100 100 100 100 100 100 100 100 100 100 100 100 89 23 5 2 10 0 0 2 1 5 62 8 44 13 5 5 43 92 100 100 100 60 5 87 96 69 66 9 6 22 8 1 5 4 2 5 9 100 91 10
100 100 100 100 100 100 100 100 100 100 100 100 100 100 97 7 5 5 0 1 3 5 7 64 5 5 5 13 6 25 100 97 100 100 100 100 100 100 100 100 100 84 100 37 0 3 3 2 1 3 0 0 33 100
100 100 100 100 100 100 100 100 100 100 100 100 100 100 100 6 10 1 0 5 3 30 73 5 5 5 5 12 5 21 59 100 100 100 100 100 100 100 100 99 100 100 100 98 8 4 5 0 0 5 5 2 5 21
100 100 100 100 100 100 100 100 100 100 100 100 100 100 99 5 6 2 0 73 100 63 68 54 15 56 6 43 7 39 100 100 100 100 76 100 100 100 100 100 100 79 99 100 97 23 5 4 0 5 5 5 5 7
100 100 100 100 100 100 100 100 100 100 100 100 100 100 78 12 5 3 10 15 100 54 35 81 100 100 100 51 31 72 100 94 82 97 100 100 100 100 64 100 100 96 98 62 64 18 5 14 5 0 1 0 5 5
100 100 100 100 100 100 100 100 100 100 100 100 100 100 95 25 5 68 79 84 58 9 95 100 100 100 100 99 82 64 60 41 55 100 59 99 100 100 100 100 100 100 100 72 6 43 5 4 6 5 0 0 5 5
100 100 100 100 100 100 100 100 100 100 100 100 100 100 100 33 7 57 58 53 76 100 100 94 81 100 100 100 100 84 67 47 93 62 96 98 75 40 96 100 100 100 100 100 100 91 7 68 69 4 0 2 5 5
100 100 100 100 100 100 100 100 100 100 100 100 100 99 65 79 45 89 57 81 95 97 99 100 76 86 100 100 100 100 91 88 60 17 71 99 9 5 5 20 48 40 32 16 5 3 5 6 5 3 0 3 13 5
100 100 100 100 100 100 100 100 100 100 100 100 100 89 67 59 98 95 6 72 100 100 100 100 100 100 100 100 100 100 100 96 78 68 96 6 0 2 4 18 5 5 5 5 5 5 16 27 5 4 1 5 5 5
100 100 100 100 100 100 100 100 100 100 100 100 90 66 96 73 17 5 64 86 88 53 94 100 99 98 100 100 100 100 100 78 99 99 25 3 0 0 5 5 5 64 17 64 24 47 100 100 100 20 5 5 5 5
100 100 100 100 100 100 100 100 100 100 100 100 88 82 74 5 0 6 97 97 6 53 100 100 100 100 100 100 100 100 100 99 80 9 5 5 2 5 5 4 2 5 18 91 97 100 100 100 100 48 6 10 5 5
100 100 100 100 100 100 100 100 100 100 100 93 20 19 5 4 0 74 80 80 98 96 100 100 100 100 100 100 100 100 96 100 100 100 74 8 5 5 4 0 4 59 7 25 98 99 100 100 100 99 12 46 5 4
100 100 100 100 100 100 100 100 100 100 100 41 46 58 2 0 4 10 75 49 95 97 100 100 100 100 100 100 100 100 100 86 12 46 100 94 5 5 5 0 2 5 6 5 72 71 71 99 98 100 80 6 7 14
100 100 93 100 100 100 100 100 100 100 79 86 48 4 0 5 42 100 100 80 94 99 100 100 100 100 100 100 100 96 76 18 13 2 5 5 5 8 87 59 5 4 6 16 12 20 96 100 100 100 100 100 98 5
91 99 99 100 100 100 100 100 100 98 68 41 5 0 5 40 51 94 100 28 40 48 100 96 100 100 100 100 97 43 5 5 17 0 0 0 5 8 7 58 61 86 42 5 7 48 95 100 100 100 100 100 100 6
100 100 100 100 100 100 100 100 100 73 20 4 0 4 13 45 79 77 91 79 100 69 100 100 100 100 100 100 29 5 5 5 5 0 1 5 5 32 30 17 57 38 10 14 12 54 97 97 100 100 100 100 97 86
98 88 100 100 100 100 100 100 50 18 4 0 0 0 13 92 94 90 72 88 100 100 100 100 100 100 100 86 4 5 0 5 5 5 0 5 37 4 1 0 4 5 5 6 11 11 94 100 100 92 100 100 98 100
89 99 100 100 100 100 100 57 5 5 0 0 0 4 56 100 92 53 68 100 98 97 100 100 100 100 100 30 54 5 4 0 0 0 0 5 0 0 0 0 1 0 2 13 4 29 90 100 100 100 100 100 100 99
84 94 100 100 100 100 67 8 2 36 24 4 34 21 69 24 51 15 22 100 100 92 82 88 100 100 85 24 56 5 0 0 0 0 0 0 0 0 0 0 0 0 0 0 3 27 87 100 100 100 100 100 91 91
95 100 100 100 100 92 5 4 5 53 76 96 88 72 35 35 15 55 13 87 96 99 100 100 100 100 12 5 5 2 0 0 0 0 0 0 0 0 0 0 0 0 5 1 5 5 19 98 100 100 100 62 77 100
100 100 100 100 43 39 4 94 100 89 100 35 77 83 46 48 63 84 98 100 100 100 100 100 100 67 6 5 5 2 0 0 0 0 0 0 0 0 0 0 0 1 5 5 5 5 5 8 8 97 98 34 32 26
100 100 73 5 4 2 5 35 72 23 33 66 57 52 81 93 96 100 100 100 100 100 100 100 92 5 5 5 5 1 0 0 0 0 0 0 0 0 0 0 0 1 5 5 5 0 0 3 5 5 5 5 5 5
82 5 5 5 4 5 5 8 54 75 100 90 15 45 96 68 100 100 100 100 100 100 100 66 5 5 5 5 4 0 0 0 0 0 0 0 0 0 2 4 5 5 5 5 5 7 20 5 5 5 5 5 5 5
7 5 5 5 4 4 4 57 62 81 12 71 63 98 97 83 100 100 99 100 100 100 85 6 5 5 5 5 4 5 0 0 0 0 0 0 0 0 0 0 1 4 5 3 4 5 2 0 5 5 5 5 5 5
2 5 5 5 5 4 5 4 7 47 70 94 100 100 100 98 99 100 100 100 100 83 5 8 9 5 5 5 5 5 0 0 0 0 0 0 0 0 0 0 0 0 3 5 5 5 5 5 5 5 5 5 5 5
8 5 5 5 4 5 6 47 88 93 90 88 95 98 99 100 100 100 100 100 84 26 5 9 22 22 5 5 5 5 3 0 0 0 0 0 0 0 0 0 1 2 3 1 5 5 5 7 7 5 5 5 5 5
29 5 5 5 5 55 72 80 94 100 84 75 55 95 100 100 100 98 56 76 52 5 14 57 55 33 5 44 62 64 19 1 0 0 0 0 0 0 0 1 4 5 5 5 5 5 5 5 5 5 5 5 31 51
5 20 5 5 5 10 44 96 91 54 20 41 13 52 69 100 60 34 31 40 8 5 35 55 77 76 75 66 100 53 48 5 0 0 0 0 0 0 0 0 1 5 5 5 5 5 5 22 40 26 5 34 53 24
5 5 5 16 96 99 100 100 54 8 53 39 17 15 5 14 63 46 23 17 4 15 70 100 100 100 100 100 87 22 28 6 4 2 0 0 0 0 0 0 2 5 5 5 5 5 5 5 5 19 73 99 98 98

GFSWCAN_prec_cloud_069.txt.gz
Cloud_Cover
100 100 100 100 100 100 100 100 100 100 100 100 100 100 100 100 100 6 4 0 0 0 67 45 4 0 5 5 0 0 0 0 0 1 6 20 10 27 12 8 5 2 5 13 70 39 4 1 4 4 1 0 0 5
100 100 100 100 100 100 100 100 100 100 100 100 100 100 100 100 97 5 0 0 0 0 2 1 5 5 5 5 0 0 3 4 4 0 26 21 44 71 15 5 5 10 3 4 4 0 0 0 0 0 0 0 1 2
100 100 100 100 100 100 100 100 100 100 100 100 100 100 100 100 69 33 0 0 0 0 0 0 29 34 5 5 5 3 1 0 0 5 0 1 10 5 5 5 5 4 0 3 3 0 0 5 11 0 0 0 0 4
100 100 100 100 100 100 100 100 100 100 100 100 100 100 100 100 56 48 5 0 0 0 0 3 4 79 5 5 5 5 5 5 5 9 10 5 29 4 4 4 4 2 16 8 5 28 14 5 55 90 8 4 2 0
99 100 100 100 100 100 100 100 100 100 100 100 100 100 100 100 94 17 5 0 0 0 0 1 5 5 10 14 18 10 67 100 100 100 78 81 100 84 50 7 20 3 4 3 5 5 5 2 0 2 5 5 5 2
100 100 100 100 100 100 100 100 100 100 100 100 100 100 100 100 100 5 5 1 0 0 5 8 48 14 70 100 100 50 83 51 100 100 100 100 97 95 100 100 100 7 5 0 5 0 0 0 0 0 0 0 0 0
100 100 100 100 100 100 100 100 100 100 100 100 100 100 100 100 90 5 5 0 0 4 4 34 100 84 94 100 100 100 62 83 100 100 99 100 100 100 100 100 100 100 100 85 5 5 7 12 2 0 0 0 0 0
100 100 100 100 100 100 100 100 100 100 100 100 100 100 100 100 45 6 7 0 17 12 8 35 48 65 100 95 100 100 94 94 98 57 97 98 100 100 100 84 100 100 92 19 55 19 6 17 5 6 0 0 0 0
100 100 100 100 100 100 100 100 100 100 100 100 100 100 100 100 16 38 12 0 94 27 5 100 100 100 100 100 100 100 100 87 78 97 100 98 100 100 91 100 91 100 100 100 77 16 7 44 100 13 4 0 0 0
100 100 100 100 100 100 100 100 100 100 100 100 100 100 100 100 5 59 39 77 14 5 17 100 100 88 100 100 100 100 100 100 49 78 100 83 100 5 9 95 100 98 100 100 100 68 100 100 14 11 7 2 0 0
100 100 100 100 100 100 100 100 100 100 100 100 100 100 100 100 48 81 68 90 83 98 56 91 86 63 100 100 100 100 100 100 77 53 98 100 69 0 4 38 64 92 100 96 92 78 86 100 100 94 7 0 0 1
100 100 100 100 100 100 100 100 100 100 100 100 92 86 100 98 81 86 90 79 100 61 37 82 85 62 91 100 100 100 100 100 91 27 96 100 18 4 2 5 5 7 12 14 4 3 5 5 5 5 5 4 5 5
100 100 100 100 100 100 100 100 100 100 100 100 68 97 100 81 92 87 54 95 96 90 68 100 75 53 100 100 100 100 100 100 94 98 97 100 99 100 100 65 5 5 5 5 47 21 5 5 5 3 5 5 1 63
100 100 100 100 99 88 100 100 100 100 100 100 93 98 100 100 67 78 82 7 91 100 100 100 99 100 100 100 100 100 100 97 99 84 58 55 100 100 100 94 7 5 5 55 100 98 55 5 16 61 6 67 76 100
100 100 100 95 99 100 100 100 100 100 100 100 100 100 100 89 54 18 52 13 57 100 100 100 100 100 88 94 100 100 100 100 30 2 5 3 28 48 4 5 3 0 1 4 42 74 100 99 56 73 100 100 99 100
100 100 89 100 100 100 100 100 100 100 100 100 100 100 100 32 5 4 20 85 57 79 61 71 72 97 100 100 100 100 100 42 5 50 5 5 5 5 5 5 5 5 10 10 3 8 69 100 83 100 100 100 93 46
100 96 100 100 100 100 80 87 100 100 100 100 100 64 66 5 5 5 5 6 86 76 100 100 98 100 100 100 100 100 92 5 64 90 5 5 3 1 9 81 74 65 7 30 58 85 71 90 86 97 99 100 100 100
100 100 100 88 90 56 80 100 100 100 100 100 88 97 5 5 4 8 46 64 90 91 100 100 100 100 100 100 100 100 55 15 97 100 26 20 6 6 16 5 5 9 56 21 51 43 7 12 96 100 91 100 100 100
100 100 100 96 81 82 98 100 100 100 100 100 72 14 9 8 52 70 100 90 55 93 100 100 100 100 100 100 100 65 5 6 6 7 5 3 3 4 4 4 5 5 5 32 44 48 52 90 100 100 100 100 100 100
100 100 86 78 98 100 100 100 100 100 100 53 6 5 3 5 7 34 41 64 100 100 100 100 100 100 100 100 100 5 5 5 0 5 5 0 3 3 0 3 5 5 5 39 35 10 47 79 92 100 100 100 100 100
86 88 100 100 100 100 100 100 100 100 55 5 5 0 0 1 6 24 69 100 100 99 100 100 100 100 100 100 97 87 5 3 0 0 0 1 0 0 2 5 0 0 2 7 37 50 98 58 92 97 100 100 100 100
57 68 100 100 100 100 100 100 88 63 21 5 6 5 52 99 81 93 86 70 100 100 100 100 78 100 100 27 85 59 5 0 0 0 0 0 0 0 0 0 0 0 0 26 43 96 100 100 96 100 98 100 100 100
98 91 100 100 100 100 100 61 53 36 5 40 53 27 100 93 43 41 53 97 94 100 99 98 100 100 36 5 30 28 5 1 0 0 0 0 0 0 0 0 0 0 2 22 36 99 100 100 100 100 100 100 100 100
99 100 100 97 100 90 78 67 36 5 58 61 59 36 94 81 67 95 78 74 86 80 85 100 100 98 86 5 5 5 3 0 0 0 0 0 0 0 0 4 5 5 5 5 8 37 20 75 97 59 49 100 100 100
100 100 100 100 100 100 68 12 24 96 96 5 5 48 45 68 92 100 100 100 96 86 96 100 98 26 17 5 7 5 1 0 0 0 0 0 0 0 0 0 5 0 0 0 2 5 5 14 74 5 57 37 47 5
100 100 100 100 57 25 5 14 72 11 38 60 60 70 41 89 98 100 100 100 100 100 100 97 15 51 13 5 5 5 5 0 0 0 0 0 0 0 1 5 5 3 5 0 0 1 1 5 4 4 5 5 5 56
100 100 77 54 19 5 5 5 7 26 16 14 71 100 100 100 98 93 100 100 100 100 78 44 53 66 9 12 5 17 5 0 0 0 0 0 0 1 1 4 3 1 5 5 5 5 5 5 5 5 5 5 5 5
18 32 38 8 5 5 5 5 5 67 77 86 94 100 100 100 100 100 100 100 100 100 44 30 65 24 51 49 21 10 5 1 0 0 0 0 0 1 5 5 5 5 4 5 5 5 5 4 5 5 5 5 5 5
5 8 5 5 5 5 5 6 90 78 100 55 65 74 100 100 100 100 99 98 44 45 45 17 6 12 65 73 60 5 5 5 0 0 0 0 0 0 5 5 4 2 5 5 5 5 5 5 5 5 5 6 6 5
60 6 5 5 5 5 5 35 84 81 94 93 65 56 51 94 99 56 5 5 5 5 6 5 5 26 95 100 59 15 5 5 5 1 0 0 0 0 0 5 5 3 4 5 5 5 5 6 19 30 24 27 32 38
5 5 5 5 5 5 52 70 71 98 98 53 11 5 5 84 89 5 5 5 5 5 28 24 34 27 98 100 93 31 5 5 5 5 4 0 0 0 1 3 1 5 3 5 5 5 5 5 5 22 64 81 99 100
5 43 55 11 5 46 85 85 77 79 56 50 6 5 5 5 5 12 67 87 98 96 87 34 22 10 52 100 100 90 7 33 10 6 5 0 0 0 0 0 0 0 0 4 5 5 5 5 5 5 7 42 69 82
93 79 71 68 88 97 100 98 99 100 94 48 95 8 5 6 17 83 87 69 80 57 52 100 88 55 63 57 46 100 98 67 84 74 24 4 2 5 5 0 4 4 1 3 5 5 5 5 5 5 6 28 51 82

GFSWCAN_prec_cloud_072.txt.gz
Cloud_Cover
100 100 100 100 100 100 100 100 100 100 100 100 100 100 100 100 100 90 5 2 0 0 0 0 0 0 0 1 0 0 2 0 0 2 4 5 5 7 6 12 5 5 5 10 8 63 21 4 0 2 1 0 0 0
100 100 100 100 100 100 100 100 100 100 100 100 100 100 100 100 100 100 20 0 0 0 0 0 5 5 4 0 0 0 0 0 0 0 1 5 5 5 5 5 2 5 9 66 8 19 2 4 5 0 0 0 0 0
100 100 100 100 100 100 100 100 100 100 100 100 100 100 100 100 100 100 38 4 1 0 0 5 5 5 5 5 46 6 6 9 4 0 0 1 4 2 5 5 5 1 5 5 0 0 0 1 0 0 0 0 0 0
100 100 100 100 100 100 100 100 100 100 100 100 100 100 100 100 100 100 61 5 3 0 2 0 5 19 10 5 94 99 6 5 8 5 37 51 36 5 14 5 5 4 4 1 4 1 0 0 0 0 0 0 0 1
100 100 100 100 100 100 100 100 100 100 100 100 100 100 100 100 100 100 67 5 3 1 0 3 5 5 25 16 60 65 100 81 98 68 87 96 86 82 73 100 95 33 7 4 5 4 0 0 0 0 1 0 0 4
100 100 100 100 100 100 100 100 100 100 100 100 100 100 100 100 100 100 18 5 5 5 5 5 5 42 98 84 94 41 100 100 73 61 92 34 99 86 91 92 100 32 6 5 5 2 0 0 5 3 2 2 4 3
100 100 100 100 100 100 100 100 100 100 100 100 100 100 100 100 100 100 54 17 4 5 6 5 12 39 57 100 68 84 72 90 100 66 100 42 97 100 100 99 8 95 82 14 5 5 2 0 0 0 0 3 1 0
100 100 100 100 100 100 100 100 100 100 100 100 100 100 100 100 100 100 30 98 22 40 11 16 72 62 38 87 42 16 83 97 100 100 62 87 100 100 100 9 36 60 100 100 39 5 24 30 4 5 2 0 5 3
100 100 100 100 100 100 100 100 100 100 100 100 100 100 100 100 100 100 98 98 23 53 37 32 100 70 99 56 61 98 99 100 100 100 76 47 100 100 25 66 94 98 100 100 100 96 86 100 100 37 5 4 4 12
100 100 100 100 100 100 100 100 100 100 100 100 100 100 100 100 100 100 80 97 100 84 14 39 24 100 100 89 100 100 100 98 100 100 58 80 100 0 9 19 39 99 75 89 100 100 100 97 81 90 96 55 70 6
100 100 100 100 100 100 100 100 100 100 100 100 100 100 100 100 100 100 100 100 100 45 36 77 92 100 73 63 100 100 100 100 100 100 98 100 71 6 90 100 100 81 23 87 100 100 100 80 44 81 94 96 89 8
100 100 100 100 100 100 100 100 98 100 100 100 100 100 100 100 100 100 100 100 99 19 79 85 25 56 84 100 100 100 100 100 100 100 96 97 9 2 2 54 100 100 100 62 5 5 59 100 100 77 70 95 99 44
6 97 100 100 100 100 100 99 100 100 100 100 100 100 100 100 100 100 92 100 50 18 81 69 96 100 98 56 100 100 100 100 100 100 88 32 19 0 2 1 8 9 39 6 11 38 33 57 94 62 28 32 42 90
20 92 100 100 100 100 100 100 100 100 100 100 100 100 100 100 100 100 89 51 7 12 32 38 96 99 99 96 100 100 100 100 100 99 58 43 19 3 5 2 0 0 0 2 10 8 5 5 17 33 16 65 42 90
83 100 100 100 100 100 100 100 100 100 100 100 100 100 100 100 97 53 11 8 5 6 16 51 86 84 100 100 100 100 100 100 100 12 98 62 5 2 1 3 2 0 0 0 8 14 5 22 14 19 65 100 93 100
100 100 100 100 100 100 100 100 100 100 100 100 100 100 100 97 57 5 2 3 6 72 89 100 100 100 100 100 100 100 100 100 94 97 40 6 2 0 2 3 0 3 6 26 84 71 49 73 85 22 67 100 100 100
100 100 100 100 100 100 100 67 98 99 100 100 100 100 100 77 9 5 4 5 66 88 90 100 100 100 93 100 100 100 100 99 96 37 18 8 5 21 5 4 32 36 16 26 6 81 28 28 13 40 100 78 100 100
100 100 100 100 98 93 65 79 92 100 100 100 100 95 81 33 5 3 80 78 48 76 81 100 100 100 100 100 100 100 100 79 16 10 44 6 33 6 6 20 7 9 30 14 28 60 66 96 100 61 85 91 99 87
100 95 100 100 100 99 96 76 92 99 100 100 95 58 12 5 6 43 41 24 51 50 63 100 100 100 100 100 100 100 100 48 14 21 11 11 14 22 28 35 6 46 10 10 4 5 17 68 76 100 100 100 100 94
100 100 100 100 100 95 99 100 100 100 100 95 44 5 5 4 23 3 5 74 91 92 100 100 100 100 100 100 81 94 19 5 5 76 69 100 88 36 14 5 5 30 85 80 95 12 16 94 90 100 100 100 100 100
5 59 23 98 85 94 100 100 100 100 99 32 5 5 49 37 65 100 80 67 66 95 94 100 100 87 64 59 5 7 100 17 10 3 3 38 4 5 8 16 40 35 61 78 71 96 58 87 63 100 100 100 100 100
52 20 86 75 89 100 100 100 100 96 37 34 64 38 9 69 70 51 61 84 94 99 100 100 88 100 68 13 81 84 38 4 0 0 1 2 5 5 6 5 12 64 15 18 93 99 98 75 87 98 100 100 100 100
82 89 81 100 100 100 100 100 70 5 16 87 17 26 32 84 77 25 59 99 96 99 100 100 100 100 80 47 10 8 5 1 0 0 0 5 5 5 5 5 43 78 60 47 4 53 74 33 58 97 100 100 100 100
93 99 100 100 100 100 100 77 46 16 54 91 91 26 55 65 51 84 100 100 96 100 100 100 100 60 19 13 15 5 5 5 0 0 4 5 5 5 5 52 73 8 24 21 26 25 25 8 11 86 100 100 100 100
100 100 100 100 100 99 84 31 18 62 96 8 36 47 89 38 74 100 100 100 100 100 100 100 92 99 35 37 46 6 5 5 2 0 2 5 3 5 7 10 5 51 93 99 99 87 18 48 47 100 95 100 100 100
100 100 100 100 83 32 39 5 48 32 5 5 69 36 61 86 100 85 99 87 100 100 88 10 5 5 32 58 31 28 5 5 4 2 0 3 5 5 56 100 94 66 9 98 100 100 100 100 100 99 100 68 24 93
100 99 57 64 15 5 5 5 5 5 5 81 100 37 96 96 87 100 100 100 99 31 5 5 5 5 8 56 66 41 5 5 5 3 0 0 5 5 68 86 21 5 5 86 99 100 100 100 100 100 100 95 100 100
36 19 6 5 5 5 5 5 5 5 34 95 85 93 68 93 82 38 56 21 5 5 5 8 13 5 5 91 71 25 8 5 5 1 0 0 5 5 5 5 4 5 5 32 70 90 96 96 97 97 92 98 98 97
10 5 5 5 5 5 5 5 9 60 37 100 100 98 65 39 8 5 5 5 5 6 9 9 5 5 13 98 100 100 44 5 5 5 5 5 5 5 5 5 5 5 5 5 34 5 37 95 100 100 100 94 96 100
12 7 5 5 5 20 40 61 67 97 91 16 9 9 12 8 5 5 5 5 5 86 76 14 6 47 10 6 61 100 100 56 6 5 5 4 3 0 0 2 5 5 5 6 9 9 5 30 51 85 87 96 97 100
18 5 5 5 9 29 59 73 77 65 52 22 8 16 58 8 5 5 8 5 9 5 21 11 44 63 17 8 14 41 96 87 36 6 5 5 0 1 2 1 5 5 5 5 5 18 5 50 21 62 76 88 86 96
29 52 10 49 33 33 88 88 65 37 87 98 58 46 5 5 5 23 100 85 8 39 94 96 71 69 36 16 41 52 74 99 65 15 5 5 5 5 5 5 2 5 5 5 5 5 5 5 84 100 100 100 100 100
8 7 43 59 82 80 93 100 95 85 70 80 91 22 73 79 94 100 79 73 46 56 97 100 98 100 90 57 8 86 100 99 100 80 6 6 5 5 5 5 5 5 5 5 5 5 5 5 26 91 99 100 98 99

GFSWCAN_prec_cloud_075.txt.gz
Cloud_Cover
100 100 100 100 97 100 100 100 100 100 100 100 100 100 100 100 100 100 5 100 2 3 2 0 0 2 5 38 9 4 1 2 1 3 5 10 5 5 5 6 42 100 100 100 69 59 66 39 0 0 3 68 96 100
100 100 100 100 97 98 100 100 100 100 100 100 100 100 100 100 100 100 52 100 2 0 30 0 0 5 5 5 45 26 5 5 5 4 1 5 5 5 5 5 2 5 63 95 94 100 25 10 5 4 4 4 0 14
100 100 100 100 100 100 100 100 100 100 100 100 100 100 100 100 100 100 100 100 2 1 5 0 2 5 5 6 72 63 56 91 3 0 5 5 4 4 11 9 5 3 4 2 4 5 5 5 5 5 0 1 2 0
100 100 100 79 97 100 100 100 100 100 100 100 100 100 100 100 100 100 100 100 6 4 8 24 0 5 14 57 23 30 31 86 100 33 82 96 57 51 58 92 22 4 6 5 4 3 4 3 5 3 3 1 0 0
100 98 68 58 80 100 100 100 100 100 100 100 100 100 100 100 100 100 100 100 5 17 10 53 4 5 32 95 62 74 32 32 25 84 100 100 100 84 71 51 70 82 59 39 5 24 9 3 5 3 5 0 0 2
88 96 90 100 100 100 100 100 78 100 100 100 100 100 100 100 100 100 100 100 5 5 5 69 9 5 5 90 96 99 96 100 57 100 88 100 80 37 56 99 39 66 78 100 65 71 73 57 5 2 4 5 5 5
100 100 100 99 100 100 100 100 100 96 100 100 100 100 100 100 100 100 100 100 69 5 5 5 15 5 5 5 9 62 100 99 99 100 99 100 100 35 100 60 4 43 98 27 100 100 72 5 5 1 3 5 3 5
100 100 100 100 100 100 100 100 100 100 100 100 100 100 100 100 100 100 100 100 70 20 5 10 53 4 15 95 100 82 100 100 100 100 100 100 100 73 79 1 37 41 100 26 100 100 98 57 5 5 5 5 5 5
100 100 100 100 100 100 100 100 100 100 100 100 100 100 100 100 100 100 100 100 100 73 58 33 38 68 70 37 81 74 99 100 100 100 100 100 100 91 7 28 30 48 82 86 100 94 98 97 65 5 7 8 11 13
100 100 100 100 100 100 100 100 100 100 100 100 100 100 100 100 100 100 100 100 100 100 84 46 62 57 30 100 85 99 100 88 99 100 100 100 100 1 0 6 5 18 89 99 67 100 100 100 100 100 100 100 100 99
100 100 100 100 100 100 100 100 100 100 100 100 100 100 100 100 100 100 100 100 100 100 100 97 37 75 91 90 80 38 97 92 38 73 100 100 73 17 71 8 11 19 29 72 100 99 98 100 100 100 100 100 100 100
100 100 100 100 100 100 100 100 100 100 98 100 100 100 100 100 100 100 100 100 100 100 72 43 54 8 85 68 99 100 100 100 97 100 100 100 11 10 60 97 84 57 100 99 100 92 80 90 93 63 99 100 100 91
25 99 94 62 96 100 100 100 100 99 100 100 100 100 100 100 100 100 100 100 100 41 74 56 66 81 95 100 100 100 100 100 100 100 100 100 12 40 100 97 100 100 83 62 99 100 100 100 100 93 96 60 100 74
26 5 7 7 100 100 100 100 100 100 76 100 99 100 100 100 100 100 100 99 65 99 84 35 100 100 84 91 100 100 100 100 100 100 100 100 59 99 42 4 90 99 100 100 99 100 67 8 55 90 100 74 75 90
87 74 96 86 100 100 100 100 100 100 86 96 80 100 100 100 100 100 100 96 75 100 78 69 86 100 92 100 100 100 100 100 100 100 100 93 100 21 0 6 25 62 99 100 100 100 100 100 100 100 63 18 82 30
100 100 90 69 99 100 100 100 100 97 90 84 94 100 100 100 100 100 93 91 74 84 64 86 77 98 98 99 100 100 100 100 100 100 98 46 3 0 0 1 49 87 99 82 74 79 79 82 93 97 92 28 10 6
52 95 100 97 100 100 100 64 90 100 97 62 100 100 100 100 100 36 5 8 46 61 33 98 100 94 100 100 100 100 100 100 100 100 8 5 8 0 3 88 100 9 4 21 92 100 82 100 73 59 39 54 30 66
100 100 100 100 100 100 98 83 92 84 69 100 100 100 100 97 22 5 75 100 9 9 11 67 47 95 100 100 100 100 95 100 100 36 5 8 24 52 23 47 25 4 34 76 100 50 14 5 4 7 14 21 35 57
85 100 97 100 94 100 92 71 54 46 81 100 100 100 93 9 5 15 21 93 94 27 32 62 99 100 100 60 56 12 69 94 47 49 44 27 100 100 100 49 79 62 76 60 65 78 88 5 41 64 98 100 88 91
100 100 100 98 86 89 92 100 87 99 100 100 100 64 7 7 36 75 99 82 99 50 69 83 69 97 60 23 13 30 72 74 95 82 84 61 7 27 31 10 4 34 93 100 48 13 26 42 94 100 99 94 100 98
66 50 74 87 93 81 92 83 100 100 100 100 26 41 90 100 97 100 73 100 80 97 86 36 99 100 49 97 97 79 6 64 77 5 19 79 15 5 51 85 84 100 100 100 17 67 99 76 98 100 100 100 100 100
58 67 21 81 96 96 99 100 100 100 100 19 19 13 63 87 98 100 73 82 100 95 86 62 100 100 100 80 11 5 5 5 5 2 0 1 5 5 5 5 100 93 74 15 29 95 96 24 58 100 100 100 100 100
22 40 54 58 100 99 100 100 100 100 35 50 63 100 100 100 56 14 24 31 90 94 78 99 100 100 97 27 10 21 26 5 5 2 4 4 5 5 25 83 100 97 96 77 96 94 42 45 83 100 80 100 100 100
44 43 97 100 100 100 100 100 100 35 40 36 83 83 98 83 15 40 75 100 100 90 88 100 88 62 90 23 22 7 5 5 5 0 5 5 5 5 40 98 96 95 76 99 92 55 29 100 93 97 100 93 100 100
85 72 100 100 100 100 96 95 33 22 78 92 74 69 99 62 94 99 43 88 100 100 100 73 98 73 85 17 5 4 5 5 5 5 2 2 2 30 98 96 95 97 100 100 100 100 91 86 99 100 100 97 69 99
98 94 100 100 100 100 85 100 97 75 100 96 76 96 60 97 100 100 100 98 41 53 39 11 83 81 9 5 5 5 5 5 5 5 4 0 5 67 97 98 99 96 81 97 86 97 95 99 100 100 100 89 36 88
100 100 100 98 74 73 65 88 97 100 94 92 100 100 83 43 84 93 14 50 38 36 54 15 5 5 5 5 5 5 51 10 5 5 5 2 4 45 98 96 64 24 100 96 96 75 90 95 95 86 92 100 100 100
100 100 61 63 10 5 5 14 85 99 100 96 71 99 100 80 31 61 25 5 5 5 5 5 5 5 5 5 5 5 39 53 7 5 5 5 1 5 6 5 4 0 11 7 11 100 81 86 93 100 100 100 100 100
71 40 5 5 5 5 5 5 22 85 82 100 80 100 100 59 70 53 5 29 10 5 5 5 5 5 5 5 5 5 5 23 42 10 5 5 5 4 5 5 1 4 5 4 4 3 10 50 67 84 98 100 100 100
5 5 5 2 2 5 5 19 57 76 28 29 81 69 93 36 47 59 74 100 70 57 18 20 100 96 33 5 5 5 9 28 43 46 5 5 5 4 2 5 5 5 45 77 50 12 34 94 99 96 91 100 100 98
5 6 5 5 5 5 75 71 56 38 15 51 79 53 87 71 19 60 53 94 88 56 90 42 100 93 100 99 58 64 23 98 89 98 71 16 6 5 3 2 4 5 5 22 42 87 92 92 98 95 97 88 92 96
17 5 5 5 5 17 61 12 99 100 100 97 97 91 94 59 78 65 72 100 96 77 89 99 100 100 100 100 100 52 82 97 100 100 100 95 50 5 5 5 5 5 5 5 6 55 37 40 92 80 98 97 89 98
5 5 18 42 33 58 67 75 94 100 100 100 92 67 99 97 85 82 20 13 100 100 100 98 100 100 100 100 100 100 75 85 100 100 100 100 100 89 23 6 5 5 3 6 43 41 14 5 83 94 91 100 98 97

GFSWCAN_prec_cloud_078.txt.gz
Cloud_Cover
100 100 100 100 100 97 59 100 67 98 100 100 100 100 100 100 100 100 24 100 100 81 4 0 0 0 0 3 98 36 53 34 3 4 37 8 2 3 5 88 100 100 98 61 59 93 100 32 100 100 100 100 100 100
100 100 100 100 100 100 47 99 75 99 100 100 100 100 100 100 100 100 91 100 100 99 73 0 0 0 4 4 6 6 71 5 13 28 4 5 5 5 5 15 4 64 100 100 100 91 10 99 66 100 100 100 100 100
59 76 100 100 100 67 27 98 100 100 96 100 100 100 100 100 100 100 100 100 100 100 6 1 0 1 5 4 4 39 14 47 3 4 31 95 88 20 63 83 82 36 0 61 41 81 99 66 94 5 83 100 100 100
100 100 100 100 100 62 44 100 98 55 100 100 100 100 100 100 100 100 100 100 100 99 29 67 0 1 0 5 4 5 92 12 5 5 6 27 14 17 59 91 62 62 89 40 14 5 5 5 5 5 5 2 61 99
100 100 100 100 100 59 67 100 100 36 80 100 100 100 100 100 100 100 100 100 100 93 48 100 5 5 0 6 16 5 6 90 5 28 42 59 98 52 10 47 32 74 94 82 47 15 72 63 32 5 5 4 4 4
100 100 100 100 100 93 100 100 100 69 100 100 100 100 100 100 100 100 100 100 100 100 5 87 35 12 5 9 12 5 6 54 7 94 58 72 95 20 61 43 2 10 27 34 99 100 100 81 90 63 6 5 5 5
100 100 100 100 100 100 100 100 100 100 96 100 100 100 100 100 100 100 100 100 100 100 49 90 81 34 11 5 32 11 33 8 38 100 71 89 34 74 51 90 0 11 5 5 5 8 48 100 99 17 5 8 5 5
100 100 100 100 100 100 100 100 100 100 100 100 100 100 100 100 100 100 100 100 100 100 100 100 90 6 49 35 23 52 48 99 61 59 94 72 16 39 100 74 5 1 1 2 3 31 5 62 100 92 31 18 13 5
100 100 100 100 100 100 100 100 100 100 100 100 100 100 100 100 100 100 100 100 100 100 100 100 100 69 41 64 52 100 97 80 99 81 24 14 72 100 100 100 36 55 11 5 53 90 5 100 100 99 100 36 42 56
100 100 100 100 100 100 100 100 100 100 100 100 100 100 100 100 100 100 100 100 100 100 100 100 91 70 84 100 99 78 87 33 58 100 79 100 76 100 100 100 100 14 4 46 56 100 97 100 100 100 100 100 94 100
100 100 100 100 100 100 100 100 100 100 100 100 100 100 100 100 100 100 100 100 100 100 100 100 100 94 79 87 70 32 72 95 93 100 100 100 75 96 100 100 99 51 10 64 41 34 46 100 100 100 100 100 100 100
98 100 73 7 27 91 98 100 100 100 100 100 100 100 100 100 100 100 100 100 100 100 100 100 99 38 77 100 100 100 100 69 100 100 100 100 100 100 100 100 4 24 53 26 97 84 100 98 100 98 62 79 84 100
55 6 5 5 5 5 11 100 100 100 100 100 100 100 99 89 100 100 100 100 100 100 100 96 55 81 100 100 100 100 100 100 100 100 100 100 100 100 100 48 14 3 5 59 91 76 96 71 76 95 78 100 94 37
56 19 5 5 5 96 68 100 62 100 100 100 100 100 100 100 100 100 100 100 100 96 71 92 30 100 100 100 100 100 100 100 100 100 100 100 100 100 100 93 10 5 5 98 47 99 63 89 87 98 100 86 87 85
97 54 99 40 96 85 52 78 64 99 100 100 100 100 100 100 95 100 100 100 92 76 40 100 74 81 87 98 99 100 100 100 100 100 100 100 100 5 23 11 4 8 10 5 44 82 72 16 59 96 72 96 100 100
52 46 86 76 95 85 87 100 100 100 100 98 100 94 94 99 100 100 100 80 73 100 90 40 74 92 98 100 100 100 100 100 100 99 100 67 6 9 16 31 12 21 97 100 94 45 24 78 80 17 32 56 42 94
64 32 98 100 100 98 84 100 100 78 88 94 80 67 86 100 100 100 57 6 10 26 99 100 100 100 65 100 100 86 93 82 98 100 91 11 6 6 4 4 4 4 4 82 100 60 100 99 99 66 70 7 94 43
71 98 96 100 100 95 87 100 100 74 32 57 90 86 100 100 100 36 5 38 21 31 72 79 13 53 82 100 98 25 53 21 17 93 51 5 0 0 3 4 0 1 0 0 2 76 61 5 3 6 13 4 7 57
46 65 100 92 88 92 76 95 81 74 50 75 96 100 100 96 6 5 59 52 97 80 97 9 5 34 75 54 90 54 85 69 55 94 6 4 0 0 0 1 23 5 65 43 99 76 55 18 26 50 44 93 100 85
93 96 100 100 45 46 41 44 23 65 99 100 100 100 96 74 100 100 100 100 100 100 100 76 71 67 33 76 95 92 96 11 76 100 52 69 56 5 1 0 2 18 100 100 99 27 16 14 49 98 82 100 100 100
60 46 82 90 100 60 21 59 100 76 100 100 100 84 99 94 100 100 94 100 100 100 96 81 49 75 100 100 61 23 55 5 6 11 56 30 43 42 37 80 98 92 20 5 5 9 91 9 87 100 100 100 80 84
76 8 12 25 80 97 71 64 78 100 100 100 92 26 84 72 98 100 99 100 100 86 92 74 49 94 88 57 38 5 5 5 5 1 0 0 49 42 10 69 72 58 26 23 75 13 12 7 19 57 100 100 100 100
22 32 32 83 54 68 72 86 100 100 100 91 65 96 56 88 100 100 99 98 65 98 75 40 24 7 43 66 56 38 6 5 33 5 5 5 5 6 71 63 67 54 10 5 18 38 88 7 9 81 86 33 92 100
22 54 93 68 60 85 97 100 100 100 96 90 96 66 100 100 100 100 95 99 96 98 46 7 23 42 39 12 17 6 5 5 19 5 5 5 5 6 49 63 80 83 40 77 76 59 64 54 80 80 68 87 96 56
73 47 41 94 100 100 100 100 82 93 97 100 94 88 100 100 100 100 100 99 99 33 30 47 10 22 20 70 8 5 5 5 5 5 5 5 5 28 65 68 62 94 94 13 47 62 63 28 96 95 72 19 52 49
87 50 90 100 100 100 100 92 98 88 87 80 91 100 100 100 83 52 52 100 100 92 52 29 7 70 39 20 5 5 5 5 5 5 5 5 11 84 73 70 98 49 68 67 88 70 90 88 84 65 74 45 25 82
88 82 98 100 100 75 78 100 85 76 95 82 38 85 100 74 44 76 51 14 93 65 52 58 12 60 9 5 5 5 5 5 5 5 5 5 5 5 62 96 94 20 38 61 82 78 82 84 85 96 100 100 96 87
100 100 100 98 68 19 15 35 95 95 66 94 97 98 93 100 47 51 14 12 6 22 36 76 20 28 5 42 95 97 38 5 14 82 40 8 19 5 5 2 0 0 0 0 5 80 88 78 64 84 88 99 100 100
100 99 65 63 92 96 37 37 26 86 40 49 52 100 100 99 96 23 6 30 64 98 99 80 66 5 7 30 46 77 100 71 66 100 100 50 41 32 5 5 0 2 5 0 1 5 5 5 5 12 79 100 99 97
40 9 46 5 5 5 5 28 85 96 86 99 77 99 96 61 55 21 5 5 13 100 100 70 94 100 100 61 5 64 100 90 98 100 100 100 92 62 41 7 5 27 59 21 4 3 5 6 44 50 40 88 94 100
5 5 5 5 5 5 6 10 7 36 44 90 100 90 55 100 35 42 59 12 13 96 19 51 68 12 18 20 29 99 100 100 97 79 100 100 100 100 99 58 5 5 13 77 90 98 89 60 96 100 98 54 42 70
34 6 5 5 5 5 11 59 91 100 89 100 82 30 100 80 81 18 9 5 5 36 33 50 92 71 81 98 100 100 100 96 11 74 96 100 100 100 100 100 67 5 5 5 49 80 58 43 97 81 98 100 94 77
5 5 5 16 39 72 90 100 100 100 100 100 100 84 87 96 63 89 100 76 100 100 100 100 100 98 100 100 100 100 71 5 5 43 72 96 100 100 100 100 100 46 28 5 59 80 36 54 62 93 62 64 71 82

GFSWCAN_prec_cloud_081.txt.gz
Cloud_Cover
100 100 100 100 100 100 100 89 81 36 5 21 56 97 100 100 100 72 100 100 100 99 56 3 0 0 0 0 5 6 4 4 2 1 4 3 1 49 40 99 64 58 97 45 58 82 93 42 21 82 78 100 72 100
100 100 100 100 100 100 100 80 90 94 96 97 45 25 91 100 100 100 90 93 100 100 87 5 1 0 0 0 15 3 0 4 1 5 2 0 0 0 1 0 5 75 63 65 50 39 5 88 97 100 100 100 100 98
100 100 100 100 100 100 100 50 98 77 42 100 92 100 100 100 100 100 100 100 100 100 100 5 5 5 4 0 0 0 4 0 0 0 0 28 5 4 5 3 24 5 2 14 40 32 5 10 64 7 74 100 100 90
100 100 100 100 100 100 100 77 100 75 56 37 100 93 100 100 100 100 100 100 100 100 100 39 17 5 5 4 3 2 0 0 0 4 5 3 5 5 21 26 5 5 9 28 6 0 4 6 5 5 10 5 23 69
100 100 100 100 100 100 100 67 100 92 88 48 100 100 100 100 100 100 100 100 100 100 100 100 100 5 5 5 5 5 5 5 4 14 5 48 5 3 4 0 5 11 41 17 6 10 52 4 5 5 5 5 79 100
100 100 100 99 100 100 100 68 98 34 79 69 100 100 100 100 100 100 100 99 100 100 100 100 100 67 37 15 17 10 5 5 5 5 5 5 5 2 2 16 70 46 83 89 5 6 84 99 92 59 18 5 5 68
100 100 100 100 100 100 66 100 87 99 40 22 100 100 100 100 100 100 100 100 100 100 100 100 100 95 78 60 40 5 5 7 5 6 78 98 40 84 6 9 21 22 100 100 36 5 5 5 80 87 70 94 21 3
100 100 100 100 100 100 99 100 100 87 100 86 100 100 100 100 100 97 100 100 100 100 100 100 100 100 100 100 100 38 5 5 18 48 100 100 83 33 96 70 99 100 100 100 67 69 3 1 2 84 72 55 94 4
99 100 100 100 100 100 100 100 100 100 100 100 100 100 100 100 97 100 99 100 100 100 100 100 100 100 100 100 54 88 72 80 99 100 100 64 56 92 10 82 82 100 100 100 3 0 0 28 96 88 100 27 95 87
100 100 100 100 100 100 100 100 100 100 100 100 100 100 100 98 87 96 98 100 100 100 89 100 100 100 100 98 62 9 100 100 98 100 63 44 100 52 100 100 100 100 100 5 0 1 27 75 96 44 59 100 100 100
93 100 100 100 100 100 100 100 100 100 100 100 100 100 84 75 98 100 100 100 100 100 100 100 100 100 47 98 24 100 94 33 93 100 97 89 100 100 100 100 100 84 4 0 0 3 5 5 5 42 100 100 100 100
60 52 98 100 99 62 100 100 100 100 100 100 100 94 100 100 100 100 100 100 100 100 100 100 96 25 47 29 100 100 100 90 100 83 100 100 100 100 100 100 95 41 3 40 4 5 5 45 47 61 97 100 100 100
100 94 100 98 4 4 1 16 62 77 88 100 100 100 98 84 100 100 100 100 99 100 100 100 65 62 100 100 92 84 100 100 100 100 100 100 100 100 92 100 96 88 100 91 4 7 75 80 98 91 100 100 100 100
100 100 83 5 5 5 5 5 41 98 100 100 100 100 100 100 100 100 96 100 100 100 100 100 100 100 100 100 100 93 100 100 100 100 100 56 5 20 90 69 92 65 98 12 5 5 5 44 59 73 94 47 32 70
100 100 83 98 25 5 5 5 5 12 100 100 99 97 100 95 100 54 96 100 100 100 100 100 100 100 100 100 100 100 100 100 73 59 60 60 29 30 23 16 4 3 2 5 5 5 5 5 51 60 57 50 90 100
100 60 92 93 100 86 28 5 30 75 96 76 93 92 92 68 66 96 100 100 100 100 86 100 100 100 100 90 99 98 88 70 78 53 51 42 93 74 4 12 12 5 3 3 0 4 30 65 20 33 23 11 5 5
77 43 35 94 100 100 93 35 92 100 100 86 68 36 6 44 100 97 100 96 57 82 6 22 100 100 68 84 54 96 79 90 95 94 27 100 46 2 0 0 0 0 0 0 0 0 0 2 5 5 3 1 0 2
67 92 90 100 53 100 100 89 87 100 100 62 33 12 52 99 100 97 8 62 98 87 98 94 69 97 100 72 64 88 33 66 31 16 7 4 5 0 0 0 0 0 1 5 10 15 6 4 2 0 0 0 0 4
55 50 100 80 100 100 100 97 20 85 90 38 81 99 100 100 98 6 40 44 89 100 98 97 100 100 100 93 93 43 84 99 7 8 5 5 5 5 0 0 0 37 96 33 23 22 5 5 0 2 42 94 96 42
78 100 100 100 96 50 72 48 5 50 11 79 100 100 100 100 87 99 100 100 100 100 100 100 100 100 89 93 70 15 51 69 29 12 5 71 87 3 0 0 10 8 5 5 1 1 1 0 0 34 93 92 96 42
78 100 100 100 100 88 6 48 72 46 49 100 100 100 100 79 98 100 100 100 100 100 100 100 100 100 64 38 5 5 5 8 5 5 5 5 5 5 4 81 72 9 5 1 0 0 0 0 4 5 9 96 100 98
96 15 6 26 16 8 9 5 5 50 88 100 100 99 46 94 100 100 100 92 100 100 100 100 100 100 57 21 5 5 0 5 5 5 5 5 1 5 4 36 5 1 0 0 0 0 0 1 7 11 12 29 44 98
67 29 18 39 47 94 52 5 29 94 100 100 100 97 92 90 100 100 100 100 93 96 95 91 90 92 22 13 6 11 2 5 5 5 5 5 5 5 16 5 5 2 0 4 5 31 3 5 5 22 5 32 22 85
69 17 88 44 70 52 11 87 100 100 100 100 88 100 100 100 100 100 100 100 100 62 87 95 96 26 5 6 47 3 5 5 5 5 5 5 5 5 5 5 5 5 5 5 8 5 1 5 67 39 45 11 5 5
88 47 37 99 6 80 88 100 100 100 100 96 100 100 100 100 100 99 97 100 98 93 84 38 34 14 5 14 9 5 18 47 5 5 5 99 82 5 5 3 2 5 5 5 25 67 57 77 69 29 17 21 5 81
91 8 64 52 92 99 100 100 100 96 79 99 59 100 100 100 81 58 88 57 89 99 43 42 7 5 93 78 8 5 6 79 10 19 8 97 100 88 59 5 16 7 5 5 5 14 5 53 23 17 61 95 99 81
60 16 27 42 88 100 100 100 99 79 66 43 40 94 100 25 37 8 6 20 76 21 5 5 20 100 82 36 96 98 58 5 18 6 33 85 100 49 10 62 31 4 3 0 5 5 5 28 94 87 36 5 94 100
44 92 100 100 100 58 40 8 48 12 31 99 83 97 65 24 74 32 77 46 6 5 5 61 95 79 20 5 32 40 17 16 70 19 46 47 100 99 99 23 5 4 2 0 0 0 5 24 74 21 5 12 50 100
100 98 84 40 80 100 32 5 8 10 32 42 99 20 17 54 98 84 18 5 6 5 5 5 9 5 5 9 7 5 32 83 47 5 5 38 98 100 100 97 9 5 5 0 0 0 0 5 5 5 5 5 21 5
98 65 61 66 36 34 6 31 90 99 92 91 66 38 97 78 100 27 5 25 52 16 8 5 5 5 34 100 53 32 74 100 75 17 5 10 62 80 99 100 100 37 5 5 5 4 4 2 5 10 36 5 6 5
56 22 7 5 6 5 15 6 86 99 100 100 100 100 100 100 100 32 5 33 57 39 45 7 7 60 61 87 98 94 89 100 100 100 72 5 32 34 86 100 100 100 35 12 31 5 5 5 47 46 16 85 24 5
21 35 99 73 5 5 24 54 98 100 89 100 100 100 100 100 98 94 76 75 100 100 95 98 64 47 38 100 99 92 100 100 100 100 65 5 5 53 84 100 100 100 96 52 35 50 11 10 82 78 73 72 82 44
83 15 11 16 38 51 82 100 99 75 100 90 100 100 95 100 100 100 100 100 100 100 100 100 84 92 89 100 94 99 100 100 100 90 5 5 5 13 51 95 100 100 100 100 51 80 63 5 5 47 61 83 74 95

GFSWCAN_prec_cloud_084.txt.gz
Cloud_Cover
100 100 100 100 100 100 100 100 100 100 99 5 6 91 53 23 89 96 100 24 99 100 100 20 0 0 1 0 0 0 0 0 0 0 0 0 1 8 5 5 5 3 3 0 0 0 0 8 23 96 95 100 76 71
100 100 100 100 100 100 100 100 95 100 100 5 4 88 24 99 99 23 71 100 94 100 100 45 14 5 5 5 0 0 0 0 0 0 0 0 0 0 0 0 0 4 2 5 0 0 0 0 4 3 67 99 100 100
100 100 100 100 100 100 100 100 98 100 100 5 5 76 93 95 100 91 90 100 100 100 100 100 6 12 10 7 5 5 0 0 0 0 0 0 0 0 0 0 0 2 2 1 0 3 3 5 4 5 84 90 96 91
100 100 100 100 100 100 100 100 92 100 81 5 49 10 100 100 100 81 93 100 96 100 100 100 89 31 8 11 5 9 5 1 1 5 5 5 5 4 3 0 0 1 0 3 18 5 1 0 4 2 2 35 87 91
100 100 100 100 100 100 100 100 99 99 64 42 59 78 99 100 100 86 100 91 96 100 100 100 100 100 36 7 5 17 76 5 5 2 15 10 25 5 5 0 0 0 0 0 0 0 5 0 0 0 2 5 2 5
100 100 100 100 100 100 100 100 100 100 9 88 48 43 100 100 100 100 100 100 100 100 100 100 100 100 100 100 100 78 99 50 6 5 5 5 13 5 1 4 5 0 0 0 2 4 74 45 72 37 4 4 2 5
100 100 100 100 100 100 99 100 100 100 16 5 5 41 100 100 100 94 100 100 100 100 100 100 100 100 100 100 100 100 100 100 98 23 39 100 51 70 5 5 5 4 3 62 32 41 93 0 0 17 63 5 14 6
100 100 100 100 100 100 100 97 100 100 40 5 60 100 100 100 100 96 100 100 100 100 100 100 100 100 100 100 100 100 98 24 5 7 99 100 39 16 5 5 5 5 80 88 88 100 35 0 0 0 2 13 42 10
100 100 100 100 100 94 100 100 100 100 87 100 100 99 100 100 93 85 84 100 100 100 100 100 100 100 100 100 100 100 7 5 19 5 6 9 49 92 6 100 55 86 100 100 100 100 19 1 0 0 0 0 5 5
100 100 100 100 100 100 100 100 100 100 100 100 100 100 100 96 99 100 95 92 100 100 100 99 100 100 100 100 100 32 84 57 96 71 56 29 100 48 84 100 100 100 100 100 99 5 0 3 5 74 13 80 100 13
90 100 100 100 100 100 100 100 100 100 100 100 100 100 100 100 100 97 100 100 100 100 99 93 100 100 100 57 44 86 75 100 69 100 57 45 88 98 100 100 93 14 5 5 4 0 1 20 5 45 18 2 91 69
100 84 15 85 100 100 100 100 96 90 88 88 88 100 100 100 100 100 100 100 100 100 99 100 100 100 96 20 91 63 99 100 100 99 96 100 97 76 76 17 5 5 13 5 4 5 2 5 5 7 54 73 4 100
99 87 92 95 5 81 100 48 26 51 69 39 99 100 96 91 100 100 100 100 100 100 98 81 100 100 90 100 77 66 88 100 100 100 100 98 100 55 5 36 87 6 42 8 5 1 4 5 54 100 100 22 11 66
100 100 100 7 30 96 10 1 1 4 41 98 100 96 100 100 100 100 100 99 95 71 100 100 100 100 100 100 93 95 100 100 100 100 94 90 6 9 58 48 5 5 5 1 1 10 43 12 13 50 100 86 32 86
100 100 100 100 100 42 5 5 5 5 5 14 27 76 100 96 100 70 77 58 96 100 92 74 84 100 100 99 100 99 100 100 100 92 37 13 6 62 85 5 5 3 42 62 16 20 24 26 86 79 92 100 70 48
100 100 100 100 96 100 92 59 56 86 94 88 85 32 43 91 72 93 100 81 100 100 100 68 60 64 92 98 97 100 99 99 100 99 54 40 29 88 17 8 0 0 11 28 4 12 24 36 48 30 6 12 3 5
100 100 100 100 100 99 99 100 86 62 59 100 97 70 100 92 61 81 93 100 100 97 98 60 44 44 32 49 84 100 100 48 100 66 75 18 7 55 38 0 0 13 2 0 0 0 0 1 0 0 0 0 0 0
100 97 99 100 99 100 92 98 90 34 100 100 100 54 16 72 100 100 100 94 10 85 94 89 45 6 25 94 100 100 70 67 5 5 37 56 5 5 5 0 0 1 5 0 0 4 0 5 0 0 3 5 6 14
62 54 76 99 92 86 80 87 68 82 94 100 75 33 90 100 100 92 5 5 14 18 34 5 5 66 100 100 100 11 21 5 5 5 52 10 10 5 1 0 1 5 5 5 5 1 0 0 1 5 5 5 5 7
66 79 100 100 100 100 100 92 65 54 84 36 95 100 100 100 100 31 65 13 4 5 5 13 71 100 100 100 57 10 7 5 5 5 4 6 9 5 2 3 0 5 5 5 1 0 0 0 5 5 5 5 5 33
64 90 100 100 92 78 73 88 59 9 84 24 100 100 100 100 65 55 92 65 76 89 99 100 100 100 100 90 6 11 65 10 5 5 5 5 5 10 7 5 5 8 39 0 0 0 0 0 0 0 0 5 87 100
100 56 45 62 49 53 54 48 39 45 18 47 100 100 100 100 94 52 60 100 100 96 100 100 100 100 100 25 6 29 7 4 40 36 6 5 5 100 94 5 5 3 0 0 0 0 2 0 0 4 2 4 6 6
90 79 17 52 64 63 27 5 59 9 33 99 100 100 83 100 100 100 96 99 100 100 100 100 100 96 80 7 5 17 30 5 32 5 5 5 5 95 93 5 5 0 1 0 0 0 0 0 3 5 24 4 3 30
68 97 99 57 50 41 5 56 77 50 100 100 100 100 100 100 96 94 100 100 100 100 100 100 97 49 69 38 70 100 79 88 6 5 5 5 11 99 99 19 8 1 0 0 0 1 0 3 4 5 27 77 8 16
100 83 42 99 9 54 57 71 15 69 100 100 98 97 100 74 80 95 100 100 100 100 100 82 36 48 50 34 39 10 5 8 66 80 9 5 10 100 100 99 53 5 3 0 2 5 5 5 5 5 8 27 6 38
97 38 30 1 33 23 97 100 100 100 100 100 99 100 98 31 89 97 40 76 68 53 66 35 66 43 15 5 7 21 35 46 47 63 64 100 59 88 49 100 100 30 5 1 0 3 5 5 5 5 7 5 5 5
83 15 2 5 28 44 94 98 100 100 100 95 91 100 75 53 46 74 62 89 87 73 83 68 48 19 12 30 21 74 66 86 43 46 100 100 9 98 100 99 100 98 14 5 3 0 2 5 6 54 13 5 5 46
7 48 47 49 99 100 100 100 100 100 76 88 70 100 49 47 53 58 85 85 98 94 82 82 72 100 93 11 7 5 42 38 41 76 71 100 96 25 15 72 68 97 69 5 3 0 2 5 5 5 1 5 5 45
100 100 100 100 96 79 76 41 82 57 68 99 81 99 59 51 29 89 93 62 50 8 16 5 70 95 100 73 61 8 22 100 79 10 66 92 6 85 32 89 98 100 100 22 6 5 5 5 5 5 4 5 5 5
96 95 82 41 26 8 5 5 23 92 75 68 89 54 90 98 99 100 67 8 38 20 7 5 9 67 48 70 16 25 13 70 100 98 56 100 97 84 57 65 94 100 100 97 39 6 5 5 5 5 6 13 5 5
66 26 6 5 5 5 5 17 96 80 9 10 35 47 89 100 100 100 100 100 100 100 77 23 82 63 94 100 98 100 86 75 100 100 86 100 100 86 98 100 56 20 66 100 88 46 12 5 5 5 67 98 74 65
5 5 5 5 5 5 5 7 63 72 94 100 100 100 100 100 100 100 100 100 100 100 100 100 100 100 100 100 100 100 100 100 100 100 100 100 100 100 100 89 100 100 99 96 100 100 33 21 5 9 100 97 51 38
71 15 5 5 5 5 5 14 28 84 71 100 100 100 100 100 100 100 100 100 100 100 100 100 100 100 100 100 100 100 100 100 100 100 100 94 37 39 84 26 80 79 47 89 100 100 100 93 84 58 80 62 77 62

GFSWCAN_prec_cloud_087.txt.gz
Cloud_Cover
100 100 100 100 100 100 100 100 100 87 100 99 44 81 30 39 36 96 1 5 100 38 85 35 5 2 3 0 0 0 0 0 0 0 0 0 0 1 0 0 0 0 0 0 0 0 0 0 15 77 100 100 78 33
100 100 100 100 100 100 100 100 100 94 100 95 20 10 23 97 58 33 11 65 99 70 71 95 5 4 5 5 5 0 0 0 0 0 0 0 0 0 0 0 0 0 0 0 0 0 0 0 0 0 20 100 100 70
100 100 100 100 100 100 100 100 100 100 100 92 5 5 89 99 92 85 100 100 99 100 92 98 45 9 5 5 5 5 5 2 0 0 5 0 0 0 0 0 0 0 0 0 0 0 0 0 0 0 0 1 42 88
100 100 100 100 100 100 100 100 100 100 100 57 5 50 11 87 88 100 100 90 36 100 100 99 100 36 15 5 6 5 5 5 5 5 0 5 5 3 2 0 0 0 0 0 3 0 2 0 0 0 0 0 2 5
100 100 100 100 100 100 100 100 100 100 100 6 5 6 4 5 40 100 86 97 99 100 100 100 100 99 97 43 99 48 40 40 76 48 59 43 5 5 5 1 0 2 1 0 0 0 0 0 3 0 0 0 0 0
100 100 100 100 100 100 100 100 100 100 100 5 5 5 4 73 16 98 60 100 100 100 100 100 100 100 100 100 100 100 100 100 98 100 100 27 5 4 5 5 5 5 5 5 0 0 0 3 5 5 5 0 4 2
100 100 100 100 100 100 100 100 100 100 100 2 4 5 5 100 100 90 96 100 100 100 99 100 100 100 100 95 100 100 100 100 100 83 4 3 5 5 5 5 5 5 5 5 5 0 0 0 2 5 9 6 49 50
100 100 100 100 100 100 100 100 100 100 100 4 5 5 88 83 99 100 100 100 100 100 100 100 100 100 100 100 100 100 100 100 96 1 1 4 56 5 4 91 5 5 5 5 23 19 50 46 28 53 9 0 4 53
100 100 100 100 100 100 100 100 100 100 100 7 95 91 91 100 100 100 100 100 100 100 100 100 93 100 100 94 62 74 100 100 6 5 5 8 7 91 73 49 5 45 57 6 5 54 99 85 91 0 0 0 0 0
100 100 100 100 100 100 100 100 96 91 98 33 75 100 100 100 100 100 100 100 100 100 100 100 100 100 99 93 45 38 82 93 6 9 84 60 98 59 32 38 30 87 100 100 20 5 2 0 5 14 0 3 5 4
100 100 100 100 100 100 100 100 100 100 100 98 100 100 100 100 100 100 100 100 99 100 100 100 100 100 87 47 72 100 96 35 28 79 75 75 100 33 100 99 21 5 4 2 0 0 0 0 0 1 5 3 5 3
100 100 100 92 100 100 100 100 100 100 100 100 100 100 100 99 98 100 100 96 100 96 100 100 100 99 47 11 52 84 43 32 41 39 100 100 76 98 100 35 23 5 0 1 2 6 75 71 5 5 25 63 30 5
100 100 98 48 74 68 100 100 100 98 92 68 78 99 99 79 100 100 100 100 100 88 100 100 99 28 92 9 83 74 94 70 34 96 96 98 100 100 99 16 6 5 5 4 5 3 0 3 5 5 95 92 74 44
100 100 100 100 97 100 92 100 26 12 5 5 24 54 49 94 100 100 93 84 92 100 80 30 99 100 87 94 34 61 62 41 92 100 100 100 100 86 5 5 6 5 5 1 2 6 44 100 76 24 65 100 89 93
100 100 100 100 100 100 100 100 6 5 2 4 5 42 98 89 27 86 100 93 100 97 97 100 99 32 17 36 67 17 85 96 98 100 100 87 5 5 6 66 13 5 5 1 73 100 73 4 3 34 100 86 70 26
100 100 100 100 100 100 100 85 90 9 5 5 19 49 99 93 43 97 98 47 83 99 100 100 64 6 66 59 71 63 93 98 98 60 24 5 5 5 5 5 5 3 3 1 5 3 0 0 0 0 0 1 0 0
100 100 100 100 100 100 100 74 85 69 5 85 91 95 100 96 62 59 100 97 100 100 93 12 11 10 14 6 17 96 100 74 53 5 5 4 5 0 2 5 1 1 3 1 0 0 0 0 0 4 1 0 0 0
100 100 100 100 100 100 100 100 100 80 9 89 91 85 100 19 92 100 77 70 100 25 5 12 5 5 6 28 100 100 92 20 5 5 5 5 5 5 5 5 6 16 1 0 0 0 0 0 0 0 5 5 5 1
100 100 100 85 94 90 98 91 54 70 75 78 93 100 98 56 40 76 99 25 5 81 50 11 6 35 36 100 100 43 15 5 8 21 5 5 5 3 5 10 92 47 2 4 5 1 0 0 0 4 5 5 4 11
100 100 100 79 60 99 98 96 99 54 47 62 91 100 23 74 100 72 5 5 5 5 30 6 44 90 100 100 54 5 5 4 2 3 3 5 4 5 4 66 26 5 5 2 0 0 0 0 0 5 5 5 4 5
81 100 100 77 100 100 100 89 66 87 5 38 52 56 54 100 100 28 5 4 5 7 80 73 99 100 100 100 53 5 5 5 5 5 5 8 5 5 44 100 68 5 2 0 0 0 0 0 2 0 4 5 5 5
97 100 97 100 100 97 72 67 14 50 5 5 11 77 100 100 84 5 8 5 5 82 92 100 76 92 100 56 24 14 27 6 5 5 5 5 6 0 15 100 69 73 6 3 0 0 2 0 3 0 6 61 17 6
100 100 99 76 92 96 61 39 20 9 5 5 73 100 100 100 69 21 26 97 98 25 100 100 100 100 90 27 78 79 34 8 5 8 5 44 100 4 5 91 57 57 7 4 0 0 0 0 0 2 4 5 5 5
100 99 100 99 73 83 9 5 7 50 84 73 100 83 78 100 100 96 100 70 52 100 100 100 100 100 30 59 98 99 58 88 47 7 5 40 5 5 5 8 5 5 5 5 0 0 0 4 0 0 5 5 5 5
89 84 57 99 94 100 38 80 85 5 100 100 100 100 100 100 100 100 100 14 22 99 100 100 96 59 78 100 89 89 98 8 5 34 33 46 9 99 100 16 18 5 5 5 5 1 0 0 0 1 5 5 5 5
100 99 31 5 5 35 96 100 62 95 100 100 100 100 95 85 95 99 83 83 99 88 52 48 42 100 100 91 18 19 5 5 5 5 46 100 90 10 100 98 15 5 24 41 13 5 3 0 5 5 5 3 2 2
100 59 7 5 17 92 100 96 98 100 100 100 100 100 96 66 34 64 48 63 28 34 42 46 92 100 87 12 36 16 9 5 21 82 95 98 100 80 100 92 32 87 89 82 15 5 5 4 4 4 0 5 5 5
6 5 5 5 54 88 100 100 100 100 100 100 100 97 51 34 6 55 12 50 56 46 14 28 68 42 9 36 59 32 6 81 100 88 100 100 100 80 38 98 100 74 100 100 18 5 7 5 5 0 0 5 5 5
18 56 63 40 98 92 88 100 100 100 100 100 94 98 76 67 36 36 15 16 85 100 100 100 100 10 8 96 94 100 100 100 100 93 76 95 100 100 100 100 96 70 41 100 100 16 8 6 5 5 5 3 5 5
66 43 79 59 49 70 39 43 79 99 74 18 12 7 36 22 32 74 100 100 100 100 100 100 89 9 58 100 100 100 100 100 100 95 68 100 96 97 100 82 95 34 12 27 81 100 74 13 5 5 5 5 5 5
93 92 85 81 61 13 12 27 96 73 7 5 5 10 75 78 84 84 92 96 100 100 59 97 45 60 57 37 100 100 100 100 100 100 78 100 100 100 100 19 20 5 28 79 75 96 100 100 83 37 5 5 5 12
25 8 10 5 15 32 88 79 30 11 5 5 83 98 75 82 98 70 98 100 100 100 100 100 100 100 100 100 100 100 100 100 100 100 100 100 100 100 79 5 5 5 9 90 94 100 81 92 100 98 85 41 5 6
13 6 5 5 10 5 5 5 19 19 76 100 83 37 27 61 100 92 97 100 100 100 100 100 100 100 100 100 100 100 100 100 100 100 100 100 100 72 51 5 5 5 17 36 54 85 94 81 47 87 96 100 100 100

GFSWCAN_prec_cloud_090.txt.gz
Cloud_Cover
100 100 100 100 100 100 100 100 100 100 100 100 92 5 4 8 94 16 8 14 39 100 60 48 14 0 0 0 0 0 0 0 0 0 0 1 2 1 0 0 0 0 0 4 5 2 0 3 5 34 100 100 100 100
100 100 100 100 100 100 100 100 100 100 100 100 85 5 4 9 89 21 72 63 97 100 59 73 21 2 5 2 0 0 0 0 0 0 0 0 0 0 0 0 0 3 0 0 0 0 0 0 0 1 6 94 100 95
100 100 100 100 100 100 100 100 100 100 100 100 50 95 5 1 86 46 24 11 100 100 100 53 86 4 5 5 5 5 5 0 1 0 2 1 0 0 0 0 0 0 0 0 0 0 0 0 0 0 0 5 77 95
100 100 100 100 100 100 100 100 100 100 100 100 100 21 4 5 84 18 8 80 98 12 100 87 65 9 5 5 5 5 5 5 5 5 9 90 88 6 3 0 0 0 0 0 0 0 0 0 0 0 0 0 3 23
100 100 100 100 100 100 100 100 100 100 100 100 73 85 5 5 39 5 22 5 30 100 100 100 72 30 20 31 10 12 20 49 64 94 100 100 100 36 5 5 5 5 5 1 0 0 0 0 0 0 0 0 0 1
100 100 100 100 100 100 100 100 100 100 100 100 75 7 5 3 6 5 63 5 85 100 95 100 100 100 42 60 81 38 64 100 100 100 100 96 32 5 5 5 5 5 5 5 0 0 1 1 0 0 0 2 0 1
100 100 100 100 100 100 100 100 100 100 100 100 98 5 3 5 65 14 87 44 100 100 99 100 100 100 100 100 100 100 100 100 99 96 100 95 4 5 5 5 5 4 5 5 0 3 5 1 0 0 0 3 3 5
100 100 100 100 100 100 100 100 100 100 100 100 45 11 5 5 83 83 92 100 100 100 77 100 100 100 100 100 100 100 100 100 100 81 15 3 4 5 4 5 5 43 70 22 5 5 0 4 1 0 0 1 5 11
100 100 100 100 100 100 100 100 100 100 100 100 11 14 50 29 100 90 100 95 100 97 100 100 100 100 100 98 90 100 100 100 61 10 3 5 11 86 82 5 84 100 99 44 6 60 67 65 5 5 5 2 0 4
100 100 100 100 100 100 100 100 100 100 100 100 64 11 86 59 100 100 100 100 100 97 100 100 68 100 100 100 98 89 100 100 22 12 5 5 71 5 5 50 100 60 97 40 82 34 4 0 0 0 0 0 0 0
100 100 100 100 100 100 100 100 100 100 100 99 64 51 92 100 100 100 100 100 100 100 100 100 100 100 92 85 62 100 98 100 40 6 27 47 100 47 90 97 91 100 100 32 5 4 0 0 0 0 1 0 2 3
100 100 100 100 100 100 100 100 100 100 100 96 59 98 100 100 98 100 87 97 100 100 100 100 98 99 100 94 84 100 100 98 22 40 76 94 98 94 100 100 100 97 9 2 3 2 3 5 1 0 0 1 0 57
100 100 100 100 100 100 100 100 100 100 100 100 100 100 90 70 86 92 99 100 99 100 86 81 100 98 54 74 100 100 100 100 32 92 93 100 100 100 100 100 29 0 5 5 5 5 5 5 4 20 53 9 0 8
100 100 100 100 100 100 100 100 100 100 100 99 100 99 95 81 77 100 100 77 94 100 100 95 81 52 55 95 100 89 44 46 94 86 100 100 100 99 55 3 5 5 5 6 8 5 1 0 18 98 54 1 5 24
100 100 100 100 100 97 100 100 100 100 100 63 22 64 27 34 100 100 100 100 75 100 77 100 99 100 100 100 85 21 52 98 100 100 100 79 9 5 5 5 7 24 32 26 17 11 5 3 2 0 0 0 0 1
100 100 100 100 100 100 100 100 100 100 88 61 5 5 25 99 100 100 99 97 84 57 58 87 74 100 96 36 10 32 8 62 90 70 5 5 5 5 5 5 5 4 5 7 78 50 5 0 0 0 0 0 0 0
100 100 100 100 100 100 100 100 100 100 71 78 50 5 57 100 98 34 10 6 70 82 62 76 100 94 26 8 6 5 61 30 5 5 5 4 5 5 0 4 5 3 6 43 43 5 1 0 0 0 0 0 0 0
100 100 100 100 100 100 100 100 100 91 96 100 71 47 19 60 92 100 73 78 72 100 100 99 12 5 5 18 46 100 24 97 69 32 5 5 1 4 4 5 5 19 38 70 18 5 0 0 0 0 0 0 0 2
100 95 100 100 100 100 100 100 100 72 97 92 76 53 14 23 94 81 64 96 100 65 53 10 14 5 5 64 100 46 94 100 85 6 5 5 4 12 5 2 5 23 92 21 5 1 0 0 0 0 0 0 0 2
100 100 100 100 100 100 100 100 98 26 9 8 23 9 26 94 78 72 97 95 11 5 5 5 5 6 56 96 99 100 86 34 6 6 4 3 54 5 3 0 3 85 37 6 5 0 0 0 0 0 0 0 0 0
100 100 97 81 100 100 100 68 84 43 62 14 5 5 70 93 82 100 67 5 28 5 5 5 5 49 29 82 14 18 38 52 6 5 4 4 6 5 100 81 5 20 7 5 5 0 0 0 0 0 0 0 0 2
99 98 96 91 81 80 65 79 64 15 5 13 5 6 84 66 100 98 51 5 31 68 5 6 56 73 95 80 26 32 56 36 7 5 5 5 10 96 36 88 12 5 52 17 5 4 0 0 0 0 0 0 1 5
95 92 100 84 98 97 81 44 67 16 5 5 32 100 100 100 100 100 52 11 11 10 6 69 40 42 99 51 13 7 36 77 28 40 67 13 63 98 68 100 100 88 5 97 40 5 0 0 0 0 0 0 4 5
100 100 98 94 94 93 75 56 53 76 49 10 10 88 100 100 100 100 94 91 72 8 23 69 51 100 98 98 68 6 44 96 87 92 13 36 74 36 50 22 100 100 20 99 82 5 2 0 0 0 2 5 5 5
100 49 69 99 65 90 100 62 77 13 5 30 100 100 100 100 100 100 100 84 98 78 72 45 100 100 100 48 18 86 90 83 76 100 100 100 98 11 54 68 90 94 31 95 100 18 5 5 4 1 5 5 0 0
99 53 47 5 15 22 96 100 100 97 57 100 100 100 100 100 100 100 100 100 100 86 100 100 100 90 50 76 45 49 92 24 99 100 99 86 100 92 100 85 100 35 10 6 100 44 5 5 5 5 3 0 0 3
100 94 65 5 12 87 93 100 97 94 100 100 100 100 100 100 100 100 100 100 96 85 64 28 9 40 9 5 66 92 100 25 97 100 100 64 100 100 100 87 100 100 5 5 17 100 36 23 7 5 5 0 5 4
13 23 81 23 5 19 68 91 98 100 100 96 100 100 100 100 100 68 50 54 51 47 34 20 11 76 98 91 43 8 19 74 95 51 98 99 100 100 100 96 100 95 5 5 5 26 100 78 50 7 5 5 4 2
54 5 5 5 5 6 57 92 96 96 100 100 100 100 100 100 100 59 46 19 5 7 40 97 99 93 92 78 96 100 33 6 5 26 95 100 100 100 100 100 100 100 19 5 12 71 90 100 92 66 50 6 5 5
70 32 12 5 36 79 90 98 100 100 100 100 100 100 100 100 91 25 6 62 87 95 100 96 97 73 74 71 78 29 34 20 93 100 100 100 100 100 100 100 100 100 37 5 38 61 50 70 59 94 57 28 6 31
91 82 56 55 69 96 100 100 100 100 100 100 100 97 22 59 66 43 76 95 80 98 100 100 100 98 100 85 87 98 100 100 100 100 100 100 100 100 100 100 100 100 70 47 96 75 89 76 96 79 21 45 44 45
81 45 11 6 5 80 72 12 9 43 32 6 5 23 66 95 69 84 91 99 97 100 100 100 100 100 100 100 100 100 100 100 100 100 100 100 100 100 100 100 100 100 24 10 71 94 80 86 100 96 100 100 91 46
5 5 5 5 13 73 80 89 72 44 14 27 35 50 95 100 95 84 95 98 100 100 100 100 100 99 100 100 100 100 100 100 100 100 100 100 100 100 100 100 100 97 5 7 57 5 59 87 89 75 96 100 100 100

GFSWCAN_prec_cloud_093.txt.gz
Cloud_Cover
94 100 100 100 100 100 100 100 100 100 100 100 100 92 91 82 5 32 79 50 44 14 100 100 22 69 5 1 0 0 0 0 0 0 0 0 0 0 0 0 0 0 1 5 5 5 0 1 1 0 0 0 1 3
100 100 100 100 100 100 100 100 100 100 100 100 100 100 100 99 5 5 52 75 35 21 100 100 48 96 5 5 0 0 0 0 0 0 5 5 1 0 0 0 0 0 0 0 2 2 0 0 0 0 0 5 3 0
100 100 100 100 100 100 100 100 100 100 100 100 100 100 100 100 100 94 29 76 70 95 100 100 100 27 33 5 5 3 5 0 0 5 9 80 91 1 0 0 0 0 0 0 0 0 0 0 0 0 0 0 5 5
100 100 100 100 100 100 100 100 100 100 100 100 100 100 100 100 90 98 47 26 66 99 100 48 100 56 34 5 5 5 5 5 5 5 53 100 97 4 0 0 0 0 0 0 0 0 0 0 0 0 1 1 5 2
100 100 100 100 100 100 100 100 100 100 100 100 100 100 100 100 100 66 68 40 82 52 51 100 100 90 42 5 5 5 7 6 8 24 87 100 100 70 1 0 0 0 1 4 5 0 0 0 0 0 0 0 5 5
100 100 100 100 100 100 100 100 100 100 100 100 100 100 100 100 100 100 92 9 15 61 91 77 98 100 100 60 46 49 45 42 55 83 91 75 100 100 72 0 1 0 0 0 2 4 0 0 0 0 0 0 0 0
100 100 100 100 100 100 100 100 100 100 100 100 100 100 100 100 100 100 6 70 73 11 100 100 98 100 91 87 70 49 99 100 100 100 100 100 25 4 0 0 3 4 0 0 0 0 0 0 0 0 2 0 0 0
100 100 100 100 100 100 100 100 100 100 100 100 100 100 100 100 100 99 100 96 69 77 99 100 100 84 36 55 43 82 93 100 100 100 100 66 2 0 3 4 5 1 3 5 5 5 5 3 0 0 2 3 0 0
100 100 100 100 100 100 100 100 100 100 100 100 100 100 100 100 100 76 80 100 100 86 100 100 100 100 99 100 98 95 100 100 100 100 99 61 5 65 5 5 5 6 5 5 11 100 99 16 5 5 5 0 0 0
88 100 100 100 100 100 100 100 100 100 100 100 100 100 100 100 100 9 95 100 100 100 100 100 85 100 100 100 99 66 100 100 100 91 16 6 41 12 5 4 11 99 100 100 100 100 93 40 5 3 0 0 0 0
100 100 100 100 100 100 100 100 100 100 100 100 100 100 100 98 31 70 95 100 100 100 100 100 98 100 100 100 100 100 100 100 100 19 57 53 99 5 5 5 5 40 100 100 97 94 27 5 0 0 0 0 0 0
100 100 100 100 100 100 100 100 100 100 100 100 100 100 100 83 82 93 99 100 100 100 100 100 100 100 100 89 100 100 93 100 23 5 29 94 10 5 5 44 100 100 95 15 4 21 42 1 2 4 0 0 0 4
100 100 100 100 100 100 100 100 100 100 100 100 100 100 100 80 73 76 100 100 100 100 100 92 96 99 97 94 89 46 34 6 5 10 30 61 13 85 100 100 62 5 3 0 2 4 4 5 1 0 1 5 5 2
100 100 100 100 100 100 100 100 100 100 100 100 100 100 87 50 22 60 92 96 94 99 100 100 100 100 74 100 100 31 10 16 62 62 26 53 88 84 5 0 0 1 5 5 38 87 46 6 5 5 5 5 0 0
100 100 100 100 100 100 100 100 100 100 100 100 100 100 97 71 57 85 99 100 100 100 100 100 100 100 100 100 65 70 55 83 81 5 40 15 5 4 0 1 3 5 8 35 78 76 60 24 5 5 4 0 0 0
100 100 100 100 100 100 100 100 100 100 100 100 100 100 50 7 5 75 100 100 100 99 94 100 100 100 100 78 96 25 8 5 8 7 15 5 5 4 4 5 5 14 27 26 29 12 18 5 5 1 0 0 0 0
100 100 100 100 100 100 100 100 100 100 100 100 100 99 19 15 30 72 73 80 99 99 100 83 92 100 90 84 28 23 12 5 20 5 5 6 10 4 5 4 3 5 0 5 5 49 6 5 0 0 0 0 0 0
100 100 100 100 100 100 100 100 100 100 100 100 100 19 5 5 91 88 100 99 100 77 30 75 99 81 16 9 5 23 7 6 37 64 18 28 3 5 12 5 5 4 0 5 6 5 5 5 0 0 0 0 0 0
100 100 100 100 100 100 100 100 98 93 100 100 96 8 5 28 68 89 100 91 23 87 100 100 50 43 17 5 5 36 50 77 97 96 61 6 5 5 70 38 9 30 10 5 5 5 5 3 0 0 0 0 0 0
100 100 100 99 100 100 100 99 93 100 100 99 72 22 5 68 80 79 100 88 97 100 68 56 15 5 5 9 24 60 69 99 78 75 36 5 5 22 16 5 12 78 97 24 5 6 5 3 0 0 0 0 0 3
100 48 96 100 100 100 100 83 54 88 50 34 15 11 5 71 75 76 93 100 100 69 38 5 5 5 5 5 59 52 35 9 17 6 5 10 88 88 47 81 86 99 84 22 5 16 5 5 0 0 0 0 0 5
100 100 97 100 100 96 52 90 84 93 74 94 69 5 54 20 60 95 100 91 38 16 5 5 5 34 11 31 44 5 5 5 5 6 68 39 8 54 46 33 58 100 100 20 8 49 5 5 0 0 0 0 0 0
100 100 92 90 92 100 94 59 68 61 26 16 10 5 9 42 99 100 100 37 33 10 21 5 5 40 69 12 16 5 5 5 5 5 5 31 5 17 88 96 100 100 100 15 5 25 24 5 6 2 0 0 0 0
94 99 78 98 91 96 73 67 25 86 72 5 14 38 88 100 100 99 70 53 22 7 6 5 14 22 80 65 5 6 75 71 74 43 6 29 50 10 84 99 100 100 90 70 5 7 62 52 8 4 0 5 0 0
100 100 98 100 98 94 100 51 55 70 98 68 68 100 100 100 100 100 97 77 46 66 25 21 12 95 100 100 73 88 80 72 60 84 98 32 36 98 50 100 100 100 100 78 90 5 21 59 37 6 5 0 0 0
99 94 83 40 57 60 96 97 80 90 43 48 100 100 100 100 100 100 100 82 100 78 100 100 100 84 74 72 92 18 6 15 34 77 75 16 8 45 86 100 100 100 100 100 97 81 5 10 5 17 5 4 4 1
94 82 79 46 37 88 79 82 43 97 100 100 100 100 100 100 100 100 100 100 100 100 100 100 100 80 75 22 17 13 95 100 99 23 89 35 5 79 100 100 100 100 100 100 100 100 46 5 5 5 5 5 5 5
17 50 91 71 26 27 80 32 79 100 100 100 100 100 100 100 100 100 100 100 100 100 100 98 51 8 59 77 72 28 7 9 80 91 94 100 8 68 100 100 100 100 100 100 100 100 98 6 5 5 5 33 23 8
78 28 61 78 5 5 67 36 96 100 98 100 100 100 100 100 100 100 100 97 85 54 21 8 46 52 77 71 53 53 99 100 100 93 100 100 100 100 100 100 100 100 100 100 100 100 100 71 5 39 13 5 18 96
62 58 5 5 5 11 68 97 99 93 100 100 100 100 100 100 100 100 83 72 89 92 86 78 100 100 100 100 98 100 100 100 99 100 100 100 100 100 100 100 100 100 100 100 100 100 100 97 5 62 90 61 49 51
5 5 5 5 10 11 67 100 99 97 100 100 100 100 100 100 100 100 100 97 46 92 100 100 100 100 100 100 100 100 100 100 100 100 100 100 100 100 100 100 100 100 100 100 100 100 100 75 13 72 98 90 100 100
98 99 99 100 100 100 100 100 100 100 100 100 100 100 100 100 100 96 72 19 71 68 83 100 100 100 100 100 100 100 100 100 100 100 100 100 100 100 100 100 100 100 100 100 100 100 78 12 5 45 76 98 72 76
7 5 8 9 9 6 28 44 58 54 60 62 93 53 71 49 53 56 97 85 100 95 100 100 100 100 100 100 100 100 100 100 100 100 100 100 100 100 100 100 100 100 100 100 87 79 84 63 50 87 79 91 100 100

GFSWCAN_prec_cloud_096.txt.gz
Cloud_Cover
84 96 59 100 100 100 100 100 100 100 100 100 100 100 100 93 74 94 100 87 88 17 35 6 90 100 11 6 5 1 0 0 4 5 5 2 2 1 0 14 94 98 83 100 4 34 20 26 5 5 28 94 33 13
97 75 99 100 93 91 100 100 100 100 100 100 100 100 100 100 100 100 100 100 100 100 36 17 87 100 94 5 10 5 4 0 5 64 50 4 0 0 1 3 0 1 7 8 0 5 53 10 5 5 5 5 7 29
98 85 100 100 100 100 100 100 100 100 100 100 100 100 100 100 100 100 100 99 100 100 61 56 92 94 100 8 97 32 5 5 4 4 38 60 5 0 0 0 0 0 0 0 0 0 3 5 5 5 5 5 5 1
70 100 100 100 75 100 100 100 100 100 100 100 100 100 100 100 100 100 100 100 100 100 83 73 99 21 94 88 27 50 9 5 5 5 5 13 89 31 20 2 0 0 0 0 0 0 0 0 0 0 0 0 0 3
99 26 100 100 80 99 100 100 100 100 100 100 100 100 100 100 100 100 100 100 100 100 24 62 61 95 100 94 26 6 11 5 5 22 5 7 8 93 17 34 0 0 0 0 0 0 0 0 0 0 1 4 5 1
92 98 86 93 67 90 100 100 100 100 100 100 100 100 100 100 100 100 100 100 89 100 10 90 56 98 100 100 100 96 56 33 50 77 63 69 100 94 26 5 4 0 0 0 1 2 0 0 0 0 0 0 0 1
69 100 100 100 100 84 100 100 100 100 100 100 100 100 100 100 100 100 100 100 100 76 53 84 30 100 100 100 100 100 95 84 67 69 100 100 100 92 5 0 0 0 0 0 0 0 0 0 3 0 0 0 0 0
29 44 98 96 100 100 100 100 100 100 100 100 100 100 100 100 100 100 100 100 100 46 39 61 97 93 95 95 99 73 100 100 100 100 100 100 100 99 4 0 0 0 0 0 0 0 1 1 2 5 0 0 0 0
84 5 24 99 100 100 100 100 100 100 100 100 100 100 100 100 100 100 100 100 7 36 72 68 79 99 100 100 100 100 100 100 100 100 100 100 52 72 5 4 0 0 2 0 5 5 5 5 39 47 7 5 5 4
100 23 7 98 100 100 100 100 100 100 100 100 100 100 100 100 100 100 100 32 95 100 100 100 100 100 100 87 100 100 100 100 100 100 100 100 35 42 5 5 5 5 5 5 22 99 100 100 100 100 100 90 10 0
100 74 100 100 100 100 100 100 100 100 100 100 100 100 100 100 94 78 99 6 91 100 100 100 100 100 83 88 96 100 100 100 100 73 66 88 84 32 5 5 5 6 61 59 100 100 84 37 21 5 3 2 0 0
100 100 100 100 100 100 100 100 100 100 100 100 100 100 100 98 25 100 39 47 60 100 100 100 100 100 92 76 99 100 100 100 80 15 12 85 8 3 5 5 5 17 95 100 54 5 5 5 5 1 0 2 0 0
100 100 100 100 100 100 100 100 100 100 100 100 100 100 100 100 100 63 32 51 95 100 100 100 97 98 99 100 100 100 100 100 34 43 69 23 28 30 5 34 56 28 8 5 5 2 4 5 1 4 0 0 0 5
100 100 100 100 100 100 100 100 100 100 100 100 100 100 100 99 74 98 100 85 93 100 97 72 93 100 100 100 100 100 100 100 64 80 6 5 5 5 5 1 5 0 0 0 4 4 5 6 5 5 5 5 4 1
100 100 100 100 100 100 100 100 100 100 100 100 100 100 100 100 100 100 97 74 82 66 42 86 100 100 100 100 100 100 100 100 52 5 5 5 5 5 5 5 1 5 4 5 5 18 82 79 49 5 5 5 0 0
100 100 100 100 100 100 100 100 100 100 100 100 100 100 100 100 100 56 66 91 94 93 100 100 100 100 100 100 100 100 100 54 8 5 5 5 5 5 4 0 4 5 5 5 5 25 20 6 5 5 5 1 0 0
100 100 100 100 100 100 100 100 100 100 100 100 100 100 100 100 100 79 57 97 100 100 100 100 100 100 100 100 100 100 61 61 5 5 5 5 5 5 0 0 0 5 5 32 59 30 1 5 5 3 1 0 0 0
100 100 100 100 100 100 100 100 96 97 100 100 100 100 100 100 89 73 93 88 86 100 100 100 99 100 96 100 100 77 86 6 5 5 5 5 5 5 5 3 5 5 5 15 5 5 0 1 5 5 5 1 2 2
100 100 100 100 100 100 100 100 95 100 100 100 100 100 100 100 91 36 75 98 100 94 67 50 100 96 100 92 84 90 12 5 5 5 5 54 16 10 5 5 73 39 30 60 4 0 3 4 5 5 5 3 5 5
100 100 100 100 100 100 100 100 81 100 100 100 100 100 100 98 75 81 69 25 90 6 20 80 100 100 78 65 51 6 5 5 5 60 97 79 62 5 5 73 50 73 77 76 6 2 4 5 5 5 4 5 11 73
100 100 100 100 100 100 100 100 100 100 100 100 99 86 94 54 47 39 36 87 17 96 100 100 94 70 13 5 5 5 5 10 15 10 8 41 6 5 51 11 24 5 32 87 100 50 5 5 5 5 5 5 33 79
100 77 91 100 100 94 99 100 100 100 97 94 79 72 99 62 52 36 69 65 81 88 37 54 39 6 5 5 5 5 5 5 5 5 5 10 16 15 22 5 5 62 97 100 100 100 69 6 5 5 4 46 14 83
100 100 92 99 93 80 63 30 59 77 60 67 34 23 6 11 5 15 31 100 100 71 26 5 5 5 5 5 5 8 30 11 19 9 48 16 41 38 61 26 6 52 100 100 99 100 100 32 42 5 5 4 47 100
80 100 100 86 85 84 64 85 75 73 26 53 41 84 52 60 100 92 100 99 18 48 6 5 5 5 5 18 100 84 5 27 11 100 59 6 43 26 14 30 6 46 100 100 100 100 44 100 41 52 5 6 90 85
100 81 100 100 95 86 100 56 16 80 53 16 27 28 30 100 100 100 100 88 57 36 37 25 27 7 18 84 95 98 14 23 9 11 39 99 100 100 100 75 25 44 100 100 100 100 81 100 97 92 25 39 45 5
98 84 72 69 68 80 72 90 95 97 92 84 100 100 100 100 100 99 100 98 73 12 41 47 32 65 58 100 85 41 31 5 5 30 100 98 48 73 100 88 100 100 100 100 100 99 62 100 100 100 73 20 5 18
100 63 45 14 66 76 65 86 64 77 99 100 100 100 100 100 100 96 92 100 99 31 49 100 100 100 100 96 70 47 18 6 20 75 76 73 15 100 96 80 100 100 100 100 100 100 44 100 100 100 100 97 44 20
45 68 91 77 28 58 62 91 100 100 100 100 100 100 100 100 100 100 99 94 100 100 100 100 100 100 100 88 48 22 8 29 81 96 89 94 100 100 100 100 100 100 100 100 100 100 79 100 100 100 100 95 90 6
28 34 32 74 56 96 82 96 100 100 100 100 100 100 100 100 100 92 100 100 100 100 100 100 67 10 5 17 67 100 95 71 100 100 100 100 100 100 100 100 100 100 100 100 100 100 100 100 100 100 100 68 85 39
37 42 69 63 66 90 47 73 92 96 91 100 100 100 100 100 100 100 100 100 100 100 100 100 100 62 70 100 100 96 100 100 100 98 97 100 100 100 100 100 100 100 100 100 100 100 100 100 100 100 100 40 32 68
99 63 45 49 29 11 38 6 89 84 100 100 100 100 100 99 97 100 100 100 100 99 100 100 91 97 99 100 100 100 99 97 80 64 61 93 91 98 100 100 100 100 100 100 100 100 100 100 100 97 57 58 56 81
62 59 65 47 71 46 54 75 90 81 93 100 100 100 98 99 99 100 100 99 100 100 81 16 84 100 100 100 100 100 100 100 100 100 100 100 100 100 100 100 100 100 100 100 100 100 100 100 73 16 55 81 61 57
95 97 100 100 99 99 99 100 100 100 100 100 100 100 98 94 87 72 33 5 9 100 99 96 100 100 100 100 100 100 100 100 100 90 94 100 100 100 100 100 100 100 100 100 100 100 92 15 8 62 98 100 100 99

GFSWCAN_prec_cloud_099.txt.gz
Cloud_Cover
100 88 100 98 80 100 100 100 100 100 100 73 100 100 100 100 100 100 100 100 100 99 100 100 95 100 7 100 48 8 3 1 5 85 98 44 5 70 9 63 100 97 75 98 95 59 100 87 86 31 22 100 77 100
68 92 74 70 98 100 100 100 96 100 100 100 100 100 100 100 100 100 100 100 100 100 100 100 100 100 30 98 87 18 36 4 10 26 4 82 5 10 2 5 5 8 69 89 46 49 4 100 98 8 5 6 61 100
87 100 47 100 100 100 100 100 100 100 100 100 100 100 100 100 100 100 100 100 100 100 100 100 100 100 63 69 100 96 9 5 5 0 13 5 44 4 5 22 8 3 21 93 98 99 2 0 1 5 5 0 0 7
100 100 100 100 100 100 100 100 89 100 100 100 100 100 100 100 100 100 100 100 100 100 100 100 100 100 53 14 62 99 5 50 6 5 3 5 92 96 35 5 0 3 0 1 2 5 4 0 0 5 5 5 3 1
100 100 100 78 100 100 98 98 90 100 100 100 100 100 100 100 100 100 100 100 100 100 100 100 100 82 100 26 90 99 5 5 5 5 5 40 6 60 100 60 3 1 0 0 0 4 2 3 2 5 5 5 5 5
100 95 100 100 100 92 100 100 100 100 100 100 100 100 100 100 100 100 100 100 100 100 100 100 100 52 29 91 100 100 100 99 76 23 16 5 5 100 100 100 5 0 0 0 5 5 4 4 1 3 4 5 5 5
100 85 10 95 98 94 100 100 100 100 100 100 100 100 100 100 100 100 100 100 100 100 100 100 100 31 55 30 100 100 100 100 100 100 100 95 91 100 97 61 5 5 0 0 0 0 1 2 2 2 3 5 0 4
100 58 21 100 100 100 100 100 100 88 100 100 100 100 100 100 100 100 100 100 100 100 100 100 91 56 100 100 100 100 94 97 74 100 91 99 46 100 100 72 2 2 1 0 0 0 2 14 8 21 3 4 5 4
100 100 80 8 69 100 100 100 100 100 100 100 100 100 100 100 100 100 100 100 100 100 100 100 76 96 81 75 100 100 100 100 100 100 92 75 20 100 100 18 16 0 0 0 0 0 0 26 43 33 2 0 3 4
100 100 100 100 99 100 100 100 100 100 100 100 100 100 100 100 100 100 100 100 100 100 100 90 90 100 33 89 100 100 100 100 100 69 100 100 99 100 100 6 0 0 0 4 22 40 6 75 100 100 96 61 100 100
100 98 100 99 98 79 100 100 100 100 100 100 100 100 100 100 100 100 100 100 100 100 100 87 94 100 100 100 100 100 100 100 100 100 62 68 55 99 98 22 3 5 5 23 84 100 98 97 100 100 100 73 33 3
100 100 100 93 67 96 98 100 100 100 100 100 100 100 100 100 100 100 100 100 94 100 100 100 75 97 100 100 100 100 100 100 100 89 98 84 98 11 6 4 5 5 6 20 10 35 100 100 100 100 100 93 73 26
100 100 100 100 98 84 100 100 100 100 100 100 100 100 100 100 100 100 100 100 100 100 100 100 100 100 100 100 100 100 100 79 93 81 98 80 12 11 5 5 5 2 2 1 4 91 100 100 34 87 76 15 2 5
100 97 99 100 56 100 100 100 100 100 100 100 100 100 100 98 97 100 100 100 100 100 100 100 100 100 100 88 99 100 100 86 99 100 99 52 6 5 5 2 0 0 3 1 8 98 100 98 30 0 4 5 5 38
100 100 100 98 100 100 100 100 100 100 100 100 100 100 100 100 99 100 100 100 100 100 100 100 99 100 100 100 100 100 100 100 100 100 97 24 5 2 0 0 2 15 49 98 100 100 69 60 12 9 5 5 5 5
100 94 99 100 100 100 100 100 100 100 100 100 100 100 98 100 100 100 100 100 100 78 54 100 91 100 100 100 100 100 100 100 100 100 73 6 4 0 4 5 16 98 100 100 100 85 40 44 61 30 3 5 5 5
99 100 100 100 100 100 100 100 100 100 100 100 100 100 100 100 100 100 100 100 99 100 100 100 100 100 100 100 100 100 100 100 100 95 48 5 5 5 5 4 9 100 100 100 88 100 54 13 1 3 3 5 5 5
100 100 100 100 100 100 100 100 100 100 100 100 99 100 100 100 100 100 100 87 39 100 100 100 100 100 100 100 100 100 100 100 71 86 52 5 5 5 5 0 0 8 10 8 23 100 30 7 2 5 5 5 4 17
100 100 100 100 100 100 100 100 76 70 77 78 98 100 100 100 100 100 76 37 65 100 100 100 100 100 100 100 100 100 98 70 71 54 45 5 5 5 5 3 2 5 3 14 85 85 48 5 13 15 5 5 19 72
100 100 100 100 100 100 100 99 81 86 100 100 100 100 100 100 100 100 36 52 97 100 100 99 100 100 100 100 100 81 95 97 63 43 36 85 70 16 5 5 5 5 5 5 95 98 100 30 5 27 16 5 17 87
100 100 100 100 100 99 70 100 99 100 100 98 100 100 100 100 100 69 50 14 20 89 64 79 100 85 100 100 99 8 5 5 49 93 100 99 100 98 60 5 5 7 9 5 10 98 100 95 26 5 9 40 52 82
100 100 100 97 99 92 96 98 100 100 98 92 99 100 100 100 100 92 94 92 54 53 76 100 100 100 100 16 5 5 5 5 5 78 99 99 99 100 86 14 5 42 5 7 28 78 90 93 100 85 5 42 24 66
100 98 90 63 92 100 100 100 100 100 100 100 100 100 100 99 86 72 78 100 84 98 100 100 100 85 44 34 73 90 5 5 5 22 100 100 100 99 38 9 100 100 100 89 100 100 78 100 100 100 10 12 73 97
74 88 98 100 100 100 91 97 100 100 100 100 98 79 61 63 67 28 74 62 59 92 100 83 49 45 53 6 18 29 5 25 28 100 100 97 100 85 53 98 99 100 100 100 100 99 100 100 100 99 77 72 77 98
100 100 92 99 66 88 82 56 97 100 96 61 73 100 43 71 53 37 6 40 91 81 100 100 91 99 100 96 45 15 83 100 100 100 98 74 100 99 92 96 98 96 100 100 100 100 100 100 100 100 92 91 52 88
100 94 81 86 82 69 70 100 85 77 98 100 100 50 50 54 96 100 100 96 100 94 57 48 41 99 100 100 100 92 81 94 100 100 98 83 100 92 100 75 80 100 100 100 100 100 100 100 100 100 100 100 100 53
100 88 90 78 100 76 83 88 96 100 100 93 96 100 100 100 100 100 100 98 100 56 42 37 81 40 100 100 100 100 100 100 100 100 86 100 76 100 93 94 100 100 100 100 100 100 100 100 100 100 100 100 100 100
92 99 93 92 94 100 95 84 99 100 100 100 100 100 100 100 100 100 100 98 100 99 80 58 31 83 100 100 100 100 96 100 100 99 100 100 100 100 94 97 99 99 100 100 100 100 100 100 100 100 100 100 100 100
28 45 96 97 92 71 80 100 100 100 100 100 100 100 100 100 100 100 100 100 100 100 100 100 100 100 100 99 67 55 98 94 91 100 100 100 100 100 100 100 100 95 99 100 100 100 100 100 100 100 100 100 100 100
89 99 100 100 100 98 100 100 100 100 100 100 100 97 98 100 100 100 100 100 100 100 100 100 100 100 100 100 100 100 98 92 100 100 100 100 100 100 100 84 98 99 99 100 100 100 100 100 100 100 100 100 100 100
100 90 100 95 100 86 87 94 100 100 100 99 100 100 100 100 100 100 100 100 100 100 100 100 100 100 100 100 100 99 98 100 100 100 100 100 100 99 100 100 99 100 100 100 100 100 100 100 100 100 100 100 100 99
100 100 100 100 94 88 48 100 99 100 100 100 100 100 100 100 100 100 100 100 100 100 100 100 100 100 100 81 100 100 100 98 100 100 100 100 100 97 100 100 97 99 96 100 100 100 100 100 100 100 100 100 100 100
76 100 83 81 44 18 6 44 78 82 100 100 100 100 100 100 100 100 100 100 96 86 84 36 57 100 100 100 100 100 100 100 100 100 100 100 100 100 85 70 45 100 100 100 100 100 100 100 100 100 99 100 100 100

GFSWCAN_prec_cloud_102.txt.gz
Cloud_Cover
92 91 99 100 100 79 100 100 100 98 100 100 100 74 100 100 100 100 100 100 100 100 100 100 100 100 100 100 100 25 36 4 4 30 86 98 99 100 100 100 100 95 100 100 100 100 100 100 100 100 91 97 69 100
56 96 100 100 73 100 100 100 97 97 100 100 92 100 100 100 100 100 100 100 100 100 100 100 100 100 100 100 100 100 55 27 91 88 80 57 83 90 84 32 94 77 100 100 100 100 100 100 100 100 100 100 100 44
73 100 92 100 94 97 100 100 99 100 100 100 100 100 100 100 100 100 100 100 100 100 100 100 100 100 100 100 100 5 39 100 1 0 4 44 38 15 80 36 84 4 88 99 92 95 53 100 100 100 100 100 100 27
100 100 100 100 100 93 100 100 100 100 100 100 100 100 100 100 100 100 100 100 100 100 100 100 100 100 100 100 100 5 23 97 5 1 0 5 20 44 89 35 0 30 5 8 5 60 5 4 71 100 100 100 94 7
100 100 100 100 100 100 100 100 98 100 99 93 100 100 100 100 100 100 100 100 100 100 100 100 100 100 100 100 94 25 6 100 96 5 3 5 19 6 8 58 5 2 2 0 3 26 5 3 3 5 5 68 11 5
100 100 100 100 100 100 100 100 100 100 88 100 100 100 100 100 100 100 100 100 100 100 100 100 100 100 100 100 82 66 47 96 100 85 5 96 95 5 76 100 5 3 3 0 5 4 1 2 5 3 5 5 3 3
100 100 100 100 100 100 100 87 100 100 100 100 100 100 100 100 100 100 100 100 100 100 100 100 100 100 100 100 60 88 100 99 75 99 100 24 17 6 61 100 85 7 3 4 0 0 1 5 10 3 2 6 4 4
100 100 100 70 100 100 98 100 100 73 69 100 100 100 100 100 100 100 100 100 100 100 100 100 100 100 100 100 93 72 51 98 97 99 100 86 16 39 16 100 99 29 4 1 0 0 1 3 3 39 8 12 4 9
100 100 100 76 83 100 100 97 87 34 99 54 100 100 100 100 100 100 100 100 100 100 100 100 100 100 100 100 82 93 100 100 86 66 93 100 33 88 84 86 88 14 5 0 0 0 1 13 36 41 14 19 20 44
100 100 100 100 100 95 92 100 100 100 100 100 100 100 100 99 100 100 100 100 100 100 100 100 100 100 100 100 100 58 27 77 98 58 88 97 93 79 100 96 62 6 1 2 10 44 35 93 97 99 100 100 95 44
100 100 100 100 100 100 100 100 100 100 100 99 81 91 100 95 100 100 100 100 100 100 100 100 100 100 100 96 49 91 94 88 94 80 14 100 100 79 94 77 7 18 3 5 48 12 88 100 100 100 100 100 24 31
100 100 100 100 100 100 100 100 100 100 99 97 99 98 100 100 100 100 100 100 100 100 100 100 100 100 100 100 98 100 98 79 39 57 62 100 17 40 7 5 5 6 2 10 20 59 87 79 96 98 85 100 91 78
100 99 100 100 100 100 100 100 100 100 100 97 100 100 100 100 100 100 100 100 100 100 100 100 100 100 98 99 100 61 100 82 67 97 97 87 80 28 5 5 5 4 0 4 19 96 100 100 62 99 100 84 93 73
100 100 100 100 100 100 98 100 100 100 100 100 100 100 100 100 100 100 100 100 100 100 100 100 100 100 100 95 100 100 100 100 100 23 100 71 97 71 5 5 0 3 7 14 47 60 95 96 100 78 8 83 44 2
100 100 100 100 100 100 100 100 100 100 100 100 100 100 100 100 100 100 100 100 100 100 100 100 100 100 100 97 99 95 94 96 100 79 77 88 100 79 5 5 5 3 54 16 48 57 83 98 82 66 14 0 3 4
100 100 100 100 100 100 56 100 100 100 100 100 100 100 100 100 100 100 100 100 100 100 100 100 100 100 71 100 99 98 91 100 70 91 87 100 100 25 5 5 7 17 2 1 28 86 94 100 100 100 69 1 1 0
100 100 100 100 100 100 89 100 100 100 100 100 100 100 100 100 100 100 100 100 100 100 100 100 98 96 100 100 100 100 86 84 100 100 100 100 32 22 5 5 23 5 3 4 6 100 100 100 82 30 6 5 5 1
100 100 100 100 100 100 100 100 100 100 100 100 100 100 100 100 100 100 100 100 100 100 98 72 100 99 100 100 100 94 74 100 100 99 100 80 78 5 4 8 87 5 3 0 30 46 14 40 80 43 100 48 5 35
100 100 100 100 96 100 100 100 100 100 100 100 100 100 100 100 100 100 100 100 100 100 98 100 100 84 100 100 100 92 74 99 100 100 56 79 5 5 5 26 15 5 16 7 5 5 37 5 7 46 97 100 5 63
100 100 100 100 100 100 99 100 77 100 100 99 87 77 87 100 100 100 100 100 93 97 100 99 100 100 99 100 99 100 100 100 49 85 72 9 5 8 38 90 71 31 5 62 97 8 100 100 68 10 94 100 72 5
100 100 100 100 100 100 100 100 100 87 99 99 76 96 100 100 100 100 100 88 98 95 88 65 100 100 100 100 95 88 84 99 98 100 50 5 18 100 100 100 100 83 12 100 100 100 100 100 99 50 92 84 89 23
100 100 100 98 100 100 100 100 98 82 50 64 94 100 100 100 100 100 100 72 46 92 73 100 100 100 100 100 100 87 100 88 30 7 10 5 6 100 94 100 100 46 48 100 100 100 100 100 62 97 100 99 82 84
100 100 100 98 99 99 100 100 100 88 80 85 100 100 100 100 100 100 99 65 98 92 67 64 22 51 30 23 83 100 92 15 5 5 7 38 60 100 98 72 60 24 7 12 100 100 100 100 68 98 100 100 100 100
100 100 100 100 100 100 100 100 89 94 100 100 100 100 100 100 100 100 74 54 92 80 10 24 58 72 95 74 100 84 38 9 5 31 36 12 100 100 88 88 53 69 38 60 68 89 100 100 100 96 100 100 100 100
100 99 100 99 64 99 100 99 99 91 90 98 100 99 100 100 99 63 52 98 55 83 32 100 98 100 100 97 43 67 39 24 94 94 89 78 100 100 95 85 99 73 83 25 56 100 100 100 100 100 100 100 100 100
97 61 98 100 98 100 100 99 77 40 44 61 74 80 89 63 62 97 100 84 100 74 82 58 100 97 100 96 54 58 51 100 48 91 88 97 100 100 100 81 48 91 88 99 95 97 97 100 100 100 100 100 100 100
100 81 74 56 87 99 95 96 60 79 25 45 86 64 77 78 84 92 95 100 100 99 89 99 86 25 61 53 100 52 98 88 100 99 100 100 100 100 83 64 84 95 100 47 82 99 100 100 100 100 100 100 100 100
82 99 98 25 86 100 95 97 94 76 76 57 30 60 99 100 100 100 100 100 100 100 97 87 20 20 30 61 75 70 98 97 100 100 100 100 100 94 90 100 100 100 100 100 100 100 100 100 100 100 100 100 100 100
70 93 76 97 77 77 65 100 97 94 100 100 100 100 100 100 100 100 100 100 100 99 100 100 100 83 54 80 94 100 100 100 100 98 100 84 98 100 100 100 100 100 100 100 100 100 100 100 99 92 100 100 100 100
49 93 94 77 90 98 100 100 100 100 100 97 100 100 100 100 100 99 84 82 94 100 100 100 100 95 100 100 100 100 67 94 100 100 100 99 100 100 100 100 100 100 100 100 100 100 100 83 85 100 100 100 100 100
95 49 73 69 100 83 100 100 100 98 100 100 100 100 100 100 100 100 100 100 98 97 86 78 100 100 100 100 100 100 100 100 100 92 72 95 100 100 100 100 100 100 100 100 100 87 74 91 90 100 100 100 100 100
45 23 58 61 60 80 86 100 100 100 100 100 100 100 100 100 100 100 100 100 100 100 100 100 100 100 100 100 100 100 100 100 100 98 99 100 100 100 100 100 100 84 59 15 17 99 99 92 100 100 100 100 100 100
19 92 33 100 92 56 36 60 85 82 100 100 100 100 100 99 100 100 100 100 93 100 100 94 83 66 74 75 100 100 100 100 100 100 94 100 100 78 90 90 100 86 74 9 8 20 72 94 96 94 100 100 79 96

GFSWCAN_prec_cloud_105.txt.gz
Cloud_Cover
100 100 100 100 100 94 94 100 100 100 98 99 100 100 82 87 100 66 100 100 100 100 100 100 100 100 100 100 100 100 100 25 4 7 78 94 34 53 83 100 92 100 99 93 48 100 100 100 100 88 100 100 100 6
100 100 100 100 98 28 94 100 100 100 100 100 100 100 64 58 100 92 90 100 100 100 100 100 100 100 100 100 98 100 100 82 5 29 65 47 70 98 86 70 9 100 100 96 100 100 100 100 100 100 100 100 92 86
100 94 100 98 100 100 100 100 100 100 100 100 100 100 100 94 100 98 70 99 94 100 100 100 100 100 100 100 100 100 100 75 5 2 90 5 8 0 73 100 62 88 54 100 100 100 100 100 100 100 100 100 100 32
100 100 100 100 99 100 100 100 100 100 100 98 100 90 31 93 100 97 100 100 100 100 100 100 100 100 100 100 100 100 100 100 5 10 5 0 31 16 3 17 20 1 4 57 100 100 100 100 100 100 100 100 100 100
100 100 100 100 100 100 100 100 100 100 100 100 100 100 93 100 93 100 100 100 100 100 100 100 100 100 100 100 99 100 100 100 21 13 9 1 95 17 2 2 2 4 3 0 26 100 100 100 100 100 100 100 54 30
100 100 100 100 100 100 100 100 100 100 100 100 100 96 18 73 100 100 100 100 100 100 100 100 100 100 100 100 100 100 100 100 71 80 100 31 96 37 5 5 5 5 4 5 0 1 87 100 100 20 96 100 98 61
100 100 100 100 100 100 100 100 100 100 100 100 83 8 95 100 100 100 100 100 100 77 99 100 100 100 100 100 100 100 100 100 98 16 6 52 9 33 9 5 5 9 3 0 0 0 1 0 2 57 94 100 100 100
100 100 100 100 100 100 100 100 100 100 100 92 7 79 16 61 95 100 100 100 89 98 95 100 100 100 100 100 100 100 100 100 29 86 64 100 100 100 63 56 5 100 39 4 0 0 0 0 4 2 4 0 2 5
100 100 100 100 100 100 100 100 100 100 99 90 25 40 65 82 99 96 100 100 100 91 95 100 100 100 100 100 100 100 100 100 72 96 84 5 96 100 52 72 18 17 5 5 0 0 0 3 37 12 5 5 5 61
100 100 100 100 100 100 100 100 100 100 100 100 96 95 100 100 98 83 59 96 90 99 100 100 100 100 100 100 100 100 100 100 73 99 89 100 100 15 100 54 5 32 5 5 0 0 0 3 52 98 100 10 6 56
100 100 100 100 100 100 100 100 100 100 100 100 100 100 100 18 82 92 99 100 98 100 100 100 100 100 100 100 100 100 100 100 57 100 25 64 99 71 100 93 5 5 5 3 7 41 2 3 7 71 100 100 59 80
100 100 100 100 100 100 100 100 100 99 100 100 100 94 100 100 96 94 100 100 100 100 100 100 100 100 100 100 100 100 100 84 44 58 41 100 83 93 77 5 5 0 32 2 8 100 38 51 16 7 22 14 100 97
100 100 100 100 100 100 100 100 100 100 100 100 100 100 94 78 74 84 100 100 100 100 100 100 100 100 100 100 100 100 55 88 43 65 84 100 5 47 5 5 5 5 8 0 100 78 0 0 5 10 66 10 24 5
100 100 100 100 100 100 100 100 100 100 100 100 100 100 94 62 100 100 100 100 100 100 100 100 100 100 100 100 100 100 100 35 100 99 100 84 44 19 11 100 73 5 0 3 36 47 1 6 6 4 7 45 7 5
100 100 100 100 100 100 100 100 100 100 100 100 100 99 99 91 95 100 100 100 100 100 100 100 100 100 100 100 100 100 74 91 22 79 100 99 77 100 100 100 72 5 2 0 0 0 6 100 78 48 89 45 54 1
100 100 100 100 100 100 100 100 100 100 100 100 98 100 100 100 100 100 100 100 100 100 100 100 100 96 100 100 100 90 100 97 56 90 99 8 97 100 100 52 5 5 5 0 0 0 5 58 97 100 36 2 39 94
100 100 100 84 100 100 100 100 100 100 100 100 100 99 100 99 100 100 100 100 100 100 100 96 79 99 100 100 87 99 53 7 75 99 82 100 89 89 96 5 5 5 0 2 5 5 1 64 95 80 79 6 2 10
98 94 100 100 100 100 100 100 100 100 99 94 100 100 100 100 100 100 100 100 98 99 100 100 84 71 52 38 34 55 38 99 92 65 93 100 99 90 99 6 5 1 1 5 5 3 5 100 100 100 90 5 5 5
100 100 100 100 100 100 100 100 99 100 100 100 100 99 100 95 100 100 100 100 100 98 100 100 100 74 100 100 47 13 55 100 84 77 92 100 100 100 99 30 5 4 5 5 5 25 100 100 100 100 79 5 5 5
100 100 100 100 100 100 100 99 80 100 100 100 100 100 100 100 100 100 100 100 100 100 100 88 12 60 31 90 86 50 84 100 99 100 100 100 100 100 100 86 5 45 10 5 5 34 100 100 100 100 81 52 5 26
100 100 100 100 100 100 100 100 100 76 62 76 100 100 100 100 84 71 100 100 100 100 91 12 90 29 84 82 38 72 63 100 100 100 47 99 100 100 76 94 100 100 48 5 5 7 20 7 69 71 56 87 52 27
100 100 100 100 100 97 33 62 62 94 94 100 97 100 59 65 82 100 100 100 100 100 100 68 96 100 99 94 77 72 100 100 100 39 66 55 40 24 7 100 100 99 87 36 8 5 5 8 26 82 100 54 53 93
100 100 100 100 100 91 91 29 43 48 100 82 87 90 100 100 96 100 100 100 100 96 34 21 54 52 72 52 79 90 100 99 100 100 100 33 8 5 5 6 30 97 85 100 59 33 10 5 5 63 100 68 99 100
100 100 100 100 71 81 38 57 20 55 58 72 49 98 100 100 100 64 89 100 100 100 79 53 5 6 43 100 92 99 99 62 92 100 92 54 72 9 57 96 100 99 100 95 98 7 21 5 38 14 88 98 100 100
98 98 100 99 74 91 100 98 100 92 78 61 100 100 100 100 100 100 100 67 100 40 72 100 98 6 15 48 13 86 100 100 100 100 41 97 23 55 27 16 58 100 100 97 9 6 28 100 100 76 100 100 100 100
99 69 95 85 48 89 100 100 99 64 80 100 100 100 100 100 100 85 99 62 52 78 76 90 42 79 64 26 89 100 99 76 100 46 78 7 16 50 56 99 100 100 100 95 76 45 75 96 100 100 100 100 100 100
95 83 98 100 99 100 100 96 83 68 50 75 97 97 100 100 99 92 96 100 100 100 86 100 100 74 97 50 80 70 68 80 48 22 100 79 13 85 100 100 100 100 94 72 59 78 100 100 100 100 99 100 100 100
97 81 82 87 70 79 68 90 82 47 80 6 28 60 97 100 100 99 100 100 100 100 100 100 100 100 28 10 5 6 80 72 11 94 100 76 99 100 100 100 100 100 100 100 95 100 100 96 100 100 100 100 100 100
21 86 91 100 98 48 30 65 26 9 11 30 85 100 100 100 100 100 100 100 100 99 80 100 100 100 91 43 40 28 70 73 100 100 100 100 100 100 100 100 100 100 100 100 100 100 100 100 100 100 100 98 80 100
19 60 65 98 96 99 100 100 100 100 100 100 100 100 100 100 100 99 100 100 99 99 86 100 99 40 94 99 91 100 98 100 100 100 94 90 99 100 100 100 100 100 100 100 100 100 100 100 100 88 25 62 100 100
79 99 100 100 97 100 100 100 100 100 100 100 100 100 100 100 100 100 83 87 77 92 100 100 98 63 64 94 100 100 100 100 100 100 100 100 100 100 100 100 100 100 100 100 100 100 100 80 16 6 49 55 87 100
44 84 82 87 73 94 100 100 99 100 100 100 100 100 100 100 100 100 65 46 100 100 100 98 100 82 37 24 41 96 100 100 100 100 98 96 100 100 100 100 100 99 100 99 82 38 5 5 5 4 8 14 52 71
26 51 13 53 88 63 79 96 100 99 100 100 98 95 100 98 100 98 100 83 24 34 30 23 23 44 62 55 31 32 42 99 100 98 89 88 84 81 100 100 95 97 79 90 9 5 48 37 16 5 10 13 12 81

GFSWCAN_prec_cloud_108.txt.gz
Cloud_Cover
100 100 100 100 100 100 100 100 100 100 100 100 79 100 100 100 75 95 76 54 40 96 98 100 100 99 98 100 100 100 100 100 90 100 38 1 1 5 5 5 5 84 65 24 5 69 34 16 100 100 46 66 100 74
100 100 100 100 100 100 100 100 100 100 100 100 99 100 100 100 100 100 32 100 100 100 100 100 100 100 99 100 100 100 100 100 100 100 11 2 1 5 4 76 5 68 76 100 100 72 36 75 27 100 100 100 77 67
100 100 100 100 100 100 100 100 98 100 100 100 98 100 100 100 100 100 100 90 98 100 100 99 100 100 25 74 100 100 100 99 100 100 82 17 48 4 2 30 99 5 5 100 100 95 10 99 100 100 100 100 33 36
99 100 100 100 100 100 100 100 100 100 100 100 100 100 100 100 100 100 99 95 100 98 92 100 100 83 100 100 100 100 100 97 100 100 99 100 5 0 0 4 2 2 2 4 27 100 100 100 100 100 100 71 66 38
100 85 92 100 100 100 100 100 100 100 100 100 100 100 100 100 100 90 100 100 70 79 100 100 100 100 100 96 100 78 100 98 100 100 100 100 6 7 4 3 0 0 0 0 2 100 94 100 100 100 100 100 62 5
100 100 99 100 100 100 100 100 100 100 100 100 100 100 100 100 100 96 65 43 81 99 100 100 100 100 100 100 100 67 100 100 100 100 100 100 6 5 5 2 0 0 0 0 0 54 92 50 100 100 100 100 99 5
100 100 100 100 100 100 100 100 100 100 100 100 100 100 100 100 100 98 74 100 89 99 100 100 100 100 100 100 100 100 100 100 100 100 100 82 41 5 0 0 0 5 3 4 1 0 69 100 94 99 98 100 100 70
100 100 100 100 100 100 100 100 100 100 100 100 100 100 100 100 98 88 95 100 96 100 100 100 100 100 100 100 100 77 100 100 100 100 100 32 5 84 92 5 5 5 5 3 0 0 0 0 4 91 61 36 95 100
100 100 100 100 100 100 100 100 100 100 100 100 100 100 99 74 60 87 52 86 71 98 100 100 100 100 100 100 100 100 100 100 100 100 100 100 19 5 5 15 5 5 4 5 4 0 0 0 0 0 0 4 5 10
100 100 100 100 100 100 100 100 100 100 100 100 100 100 100 100 70 85 99 99 100 100 100 100 100 100 100 100 100 100 100 100 100 100 100 100 100 79 8 5 78 5 5 83 5 0 0 0 0 5 31 41 15 5
100 100 100 100 100 100 100 100 100 100 100 100 100 100 100 88 93 100 100 93 87 98 71 100 100 100 100 100 100 100 100 100 100 100 100 100 100 100 100 21 6 100 61 6 5 3 0 0 0 1 9 19 6 65
100 100 100 100 100 100 100 100 100 100 100 100 100 100 86 94 99 100 94 77 79 100 100 100 100 100 100 100 100 100 100 100 100 100 100 74 100 34 40 80 13 52 31 5 3 0 0 0 2 4 5 5 5 5
100 100 100 100 100 100 100 100 100 100 100 100 100 99 98 93 100 100 11 25 91 100 100 99 100 100 100 100 100 100 100 100 100 100 42 69 12 5 5 17 26 5 14 5 3 0 0 0 7 18 17 1 1 5
100 100 100 100 100 100 100 100 100 100 100 100 100 100 61 92 87 95 81 88 74 76 100 98 100 100 100 100 100 100 100 100 100 54 95 14 5 5 5 5 5 6 100 81 1 0 0 0 0 0 0 0 0 1
100 100 100 100 100 100 100 100 100 100 100 100 100 91 86 92 86 53 100 100 85 100 100 100 100 100 100 100 100 100 100 100 86 100 84 25 46 7 10 36 5 94 62 5 0 0 0 0 1 0 1 3 2 5
100 100 100 100 100 100 100 100 100 100 100 100 96 96 64 90 79 99 100 100 100 100 100 100 100 100 100 100 100 100 99 90 33 67 97 18 5 5 58 30 56 28 5 4 3 0 0 0 4 69 99 100 80 97
100 100 100 100 100 100 100 100 100 100 100 100 72 81 100 100 99 86 95 99 100 100 100 100 100 100 100 100 100 100 100 93 100 100 87 5 5 29 64 81 26 5 5 5 5 1 0 5 76 100 100 93 6 3
100 100 100 100 100 100 100 100 100 100 100 82 63 77 86 100 100 100 100 100 100 100 100 100 100 98 79 77 84 57 11 17 80 47 6 49 94 100 99 100 90 5 5 5 5 5 5 50 92 79 64 17 2 2
100 100 100 100 100 100 85 70 100 100 100 97 60 94 100 100 100 100 100 97 100 98 100 99 93 100 93 88 100 99 48 80 65 100 89 98 75 50 99 77 100 76 5 5 12 5 5 26 50 4 5 42 5 5
100 100 100 100 100 99 100 100 100 99 92 98 100 100 100 100 100 100 96 100 100 90 99 34 89 90 81 100 72 95 82 73 90 100 79 90 95 66 80 96 100 100 19 41 42 6 5 5 5 5 5 5 5 8
100 100 100 100 100 100 100 100 98 100 100 100 100 100 100 100 97 100 98 100 76 88 99 99 99 19 16 58 64 93 83 100 100 100 100 89 100 90 100 60 100 100 11 44 40 20 5 5 5 5 5 5 5 5
100 100 100 100 100 100 100 96 100 100 100 100 100 100 87 92 100 100 100 100 100 100 100 98 88 97 98 98 100 100 100 99 100 100 100 100 100 100 100 99 87 27 95 100 69 29 42 68 15 74 81 59 40 72
100 100 100 100 100 100 98 100 98 100 100 99 100 100 100 100 96 100 98 100 100 96 73 75 58 20 77 83 100 99 90 100 100 100 100 100 100 100 100 100 90 96 98 96 99 54 5 50 100 100 100 98 95 100
100 100 100 100 100 99 100 94 100 100 100 98 98 95 67 54 69 94 100 100 100 100 100 96 72 14 5 13 73 83 73 100 69 91 100 100 82 100 100 100 78 80 50 87 74 7 35 100 100 65 80 100 100 100
100 100 92 100 100 100 100 100 100 100 99 70 58 97 100 95 100 100 100 100 100 100 100 100 100 100 100 91 6 8 53 5 5 13 99 100 68 100 100 93 25 33 99 5 41 92 100 100 78 65 81 100 100 100
99 94 100 100 99 100 97 91 93 84 86 89 100 100 100 100 100 100 99 99 100 97 87 35 42 81 74 67 35 77 98 81 100 98 100 100 100 99 82 84 60 21 22 43 97 100 100 100 100 100 98 92 100 94
100 100 97 91 96 99 100 100 96 75 69 94 98 100 100 100 100 100 100 92 85 41 88 61 34 21 36 99 80 100 100 81 100 92 95 84 91 66 100 95 74 8 71 100 53 100 100 100 100 100 100 100 96 70
78 64 77 89 92 100 100 88 100 99 59 100 100 100 100 100 99 97 100 100 96 99 100 98 94 40 30 77 48 61 73 37 90 90 68 100 100 100 100 100 99 79 83 100 100 100 100 100 100 100 100 100 100 99
100 100 96 93 97 99 100 92 70 54 38 33 98 100 100 100 100 100 100 88 100 100 100 95 66 67 54 7 24 22 76 89 87 93 93 36 66 99 100 100 100 100 100 100 100 100 100 100 100 100 100 99 100 100
80 78 51 90 100 100 100 100 100 100 100 99 96 100 100 100 100 100 100 100 100 100 99 99 95 100 100 100 88 90 91 39 42 39 16 43 70 60 68 100 100 100 100 100 100 100 100 100 100 100 100 100 100 66
90 99 54 83 89 100 100 100 100 100 100 100 100 100 100 100 100 100 95 99 100 96 73 100 100 100 100 95 100 95 99 39 88 61 100 84 100 100 100 100 100 100 100 100 100 100 100 100 100 100 85 24 4 5
34 60 70 100 95 100 100 100 100 100 100 100 100 100 100 100 100 100 100 100 100 100 100 100 100 83 67 78 100 100 100 35 47 100 88 98 93 62 79 62 72 99 68 88 70 100 100 57 7 4 4 5 5 29
6 52 57 84 99 100 100 100 100 100 100 100 100 100 100 100 100 100 93 42 22 48 75 73 67 30 61 24 58 58 69 61 53 82 34 24 5 5 5 5 5 8 32 85 98 90 71 10 2 5 5 5 33 94

GFSWCAN_prec_cloud_111.txt.gz
Cloud_Cover
100 100 100 100 97 100 100 100 100 100 100 100 100 100 100 100 100 86 100 100 100 100 47 100 87 100 100 100 100 86 100 100 14 98 5 69 1 5 2 6 94 96 72 5 2 62 71 89 97 100 97 100 98 96
100 100 100 100 99 100 100 100 100 100 100 100 100 100 100 100 100 100 78 9 88 100 95 100 100 100 100 100 100 95 100 82 100 84 5 5 5 5 1 5 12 100 66 54 49 3 18 84 5 6 90 98 100 100
100 100 100 99 42 100 100 100 100 100 100 100 100 100 100 100 100 100 99 100 100 100 100 100 94 100 100 100 100 100 100 99 100 99 21 44 30 5 1 2 5 5 84 44 49 74 24 4 5 5 45 100 100 100
100 100 100 100 100 40 100 100 100 100 100 100 100 100 100 100 100 100 100 100 100 100 100 77 96 100 100 100 100 100 96 87 100 97 38 61 100 21 1 4 5 2 0 4 45 5 32 88 100 98 64 98 100 100
100 100 100 98 100 100 99 100 100 100 100 100 100 100 100 100 100 100 100 100 100 64 64 92 70 100 100 100 100 100 100 80 100 100 25 89 100 94 5 3 3 0 0 0 0 2 68 80 100 100 99 100 100 100
66 100 100 100 99 100 100 100 100 100 100 100 100 100 100 100 100 100 100 100 100 100 98 100 60 100 100 100 100 100 100 100 100 100 100 44 100 69 5 7 0 5 5 0 0 0 86 100 100 100 100 100 100 100
100 100 100 100 99 96 100 100 100 100 100 100 100 100 100 100 100 100 100 100 100 100 100 91 98 100 100 100 100 100 100 100 100 100 100 44 100 94 5 5 5 12 5 66 88 4 0 43 100 44 81 100 100 100
49 99 100 100 95 100 100 100 100 100 100 100 100 100 100 100 100 100 100 100 100 100 97 94 82 99 100 100 100 100 100 100 100 100 100 100 86 100 72 16 86 13 54 65 52 99 26 2 0 6 84 100 100 100
100 100 100 100 98 100 100 100 100 100 100 100 100 100 100 100 100 100 100 100 100 96 99 98 90 98 100 100 100 100 100 100 100 100 100 98 37 100 5 26 34 6 5 52 96 89 71 5 0 0 0 4 100 100
100 100 100 100 100 100 100 100 100 100 100 100 100 100 100 100 100 100 100 95 91 59 91 100 100 100 100 100 100 100 100 100 100 100 94 100 57 96 53 41 5 5 4 5 5 5 5 5 0 0 0 0 0 4
100 100 100 100 100 100 100 100 100 100 100 100 100 100 100 100 100 100 100 86 77 98 83 100 100 100 100 100 100 100 100 100 100 96 100 100 100 88 58 81 100 5 5 46 5 5 0 0 0 0 0 3 23 55
100 100 100 100 100 100 100 100 100 100 100 100 100 100 100 100 100 100 83 86 67 91 100 100 100 100 100 100 100 100 100 100 100 99 100 100 96 92 36 40 100 83 33 12 5 2 3 0 0 0 3 44 86 78
100 100 100 100 100 100 100 100 100 100 100 100 100 100 100 100 100 100 100 97 96 100 100 98 97 100 100 100 100 97 100 100 100 100 100 100 80 63 5 99 100 11 11 5 5 5 2 0 0 5 5 12 54 30
100 100 100 100 100 100 100 100 100 100 100 100 100 100 100 100 100 93 73 33 26 40 98 92 77 68 100 100 100 100 100 100 100 100 100 100 100 8 18 68 5 5 6 5 8 82 1 0 0 4 16 47 93 92
100 100 100 100 100 100 100 100 100 100 100 100 100 100 100 74 89 66 57 86 59 29 100 100 100 100 100 100 100 100 100 100 100 100 100 100 53 5 5 5 3 5 5 6 98 17 0 0 4 1 0 0 46 5
100 100 100 100 100 100 100 100 100 100 100 100 100 100 100 84 75 36 62 74 25 70 100 97 99 100 100 100 100 100 100 100 100 100 100 45 5 5 5 5 5 5 13 96 9 5 0 0 0 2 9 97 65 5
100 100 100 100 100 100 100 100 100 100 100 100 100 82 97 80 67 75 73 95 95 99 100 100 100 100 100 100 100 100 100 100 100 100 32 5 30 5 5 5 5 5 5 5 5 5 5 5 0 5 65 61 10 5
100 100 100 100 100 100 100 100 100 100 100 93 38 30 51 91 99 81 90 99 100 100 100 100 100 100 100 100 100 100 100 100 98 60 67 34 23 71 31 96 87 14 5 5 5 5 5 5 0 2 53 100 96 49
100 100 100 100 100 100 100 100 100 100 93 67 79 68 53 80 62 87 100 100 100 100 100 100 100 100 100 97 100 100 100 100 90 32 5 68 20 100 76 83 24 93 77 14 25 5 5 5 2 4 20 27 5 5
100 100 100 100 100 100 100 100 95 68 82 100 100 91 61 96 100 100 100 100 100 100 99 100 79 49 39 78 87 100 100 88 18 14 90 98 100 91 82 91 100 91 38 12 60 81 92 96 71 43 13 5 7 6
100 100 100 100 100 100 100 100 99 80 100 100 85 97 100 100 100 100 100 100 71 96 85 89 89 92 66 100 100 22 13 25 5 11 100 100 100 100 100 100 100 94 69 66 100 100 100 92 30 5 5 5 48 73
100 100 100 100 100 100 100 100 98 83 100 100 78 100 100 100 100 100 85 76 97 59 73 100 100 100 84 90 100 69 79 7 20 58 100 89 100 99 35 94 88 71 100 100 100 100 96 55 10 6 10 16 33 24
100 100 100 100 100 100 100 99 100 100 100 100 97 75 100 100 100 100 61 66 85 100 92 100 100 87 90 50 74 81 88 60 100 100 100 87 26 65 70 85 90 86 97 100 100 100 100 31 5 39 76 46 33 48
100 100 100 100 100 100 100 98 93 85 58 51 82 100 100 100 100 100 97 100 96 100 100 100 99 44 14 87 91 86 100 100 88 100 100 100 92 82 100 100 99 77 23 98 84 84 100 100 9 10 49 53 92 100
100 100 100 100 100 100 100 100 100 100 100 100 100 100 100 100 99 64 30 87 100 100 100 100 68 54 87 65 53 97 100 97 29 7 93 99 72 100 98 100 100 100 100 100 100 100 99 40 69 75 97 100 100 93
100 100 100 100 100 99 93 100 80 97 100 100 96 94 66 90 93 99 100 96 61 99 97 84 100 100 82 84 36 27 56 56 81 6 5 46 68 92 100 100 100 100 100 100 100 77 26 78 85 94 100 100 100 100
90 83 80 80 96 100 99 99 100 100 75 66 59 81 100 99 100 100 100 100 94 85 83 85 72 70 39 16 13 5 24 41 70 86 100 100 98 100 100 100 100 98 98 82 99 99 85 94 87 99 87 100 100 100
72 84 96 100 100 100 100 100 100 100 96 75 98 100 100 100 100 100 100 100 100 100 99 79 63 46 52 18 82 98 62 99 64 58 70 76 99 92 94 92 100 67 100 100 100 100 100 100 100 100 100 100 100 100
98 100 100 100 100 100 100 71 64 97 82 96 100 100 100 100 100 100 100 100 97 73 97 98 52 24 97 100 100 100 100 100 100 100 100 92 52 85 100 99 100 100 100 100 100 100 100 100 100 100 100 95 100 100
99 88 100 100 100 100 100 100 100 100 100 100 100 100 100 100 100 100 99 84 93 88 56 42 24 30 27 100 80 41 25 59 79 94 97 79 80 56 38 62 99 100 100 100 100 100 100 100 100 100 100 100 100 100
89 44 48 100 100 98 100 100 100 100 100 100 100 100 100 100 100 100 94 100 99 100 100 100 100 100 90 91 68 59 100 56 91 95 59 99 98 100 100 92 100 23 40 67 100 99 100 100 100 100 100 100 100 100
28 79 34 79 100 97 100 100 100 100 100 100 100 100 100 90 40 99 100 100 92 20 37 48 58 27 11 5 44 70 96 14 93 100 40 34 98 97 97 82 67 5 19 6 22 9 10 65 96 100 99 100 43 4
80 66 100 100 100 100 100 100 100 100 100 100 100 98 100 100 100 99 97 80 84 66 32 23 17 36 53 51 97 100 100 76 25 34 7 5 5 5 4 5 8 46 87 53 5 5 5 5 5 57 18 17 28 21

GFSWCAN_prec_cloud_114.txt.gz
Cloud_Cover
100 100 100 100 100 100 100 100 59 100 100 100 100 100 100 100 100 100 100 100 100 100 79 79 99 100 100 65 90 100 100 94 100 100 68 5 23 3 0 0 0 2 27 20 5 6 99 100 100 100 100 100 100 100
100 100 100 100 100 99 100 100 41 100 100 100 100 100 100 100 100 100 100 100 100 89 43 77 100 100 100 100 100 100 100 100 100 95 30 90 40 5 0 5 0 5 5 5 6 5 43 100 100 100 100 100 100 100
100 100 100 99 100 89 100 69 65 87 100 100 100 100 100 100 100 100 100 100 100 96 51 81 51 100 100 100 100 100 93 100 100 100 93 100 94 5 1 5 5 0 4 96 54 64 5 76 100 100 100 56 10 83
100 100 100 94 100 100 42 100 72 53 100 100 100 100 100 100 100 100 100 100 100 100 90 72 97 100 100 100 100 100 100 100 100 100 100 100 77 15 5 5 0 0 0 1 5 4 78 59 37 100 100 98 83 90
100 100 100 100 100 97 98 100 100 87 100 100 100 100 100 100 100 100 100 100 100 100 100 100 100 100 100 95 100 100 100 100 100 100 100 100 100 88 5 5 3 0 0 0 0 3 6 75 98 94 86 100 99 95
100 100 100 100 100 100 100 100 100 72 100 100 100 100 100 100 100 100 100 100 100 100 100 100 100 100 100 100 97 100 100 100 100 100 100 100 100 100 69 5 5 0 0 0 0 0 0 31 100 100 79 100 100 100
100 100 100 98 100 100 100 100 96 68 100 100 100 100 100 100 100 100 78 98 100 100 100 100 100 100 84 100 100 100 100 90 100 100 100 100 100 100 76 10 15 0 0 0 0 0 0 2 98 100 100 100 100 99
100 100 100 100 99 100 100 100 80 100 100 100 100 100 100 100 100 100 100 100 100 100 100 100 100 100 97 97 100 100 100 97 100 100 100 100 100 100 100 67 21 5 5 2 0 0 0 1 23 98 55 91 99 99
100 100 100 100 100 100 100 45 8 93 100 100 100 100 100 100 100 100 100 100 100 100 100 100 100 100 98 98 100 100 100 100 100 100 100 100 100 100 100 100 93 89 67 6 5 0 1 4 0 0 0 26 100 100
100 100 100 100 90 100 70 40 90 100 100 100 100 100 100 100 100 100 100 100 100 100 100 100 100 100 93 100 100 100 100 100 100 100 100 100 100 100 100 100 88 14 13 45 10 20 5 5 5 0 0 0 0 31
100 100 100 100 100 100 88 87 100 100 100 100 100 100 100 100 100 100 100 100 100 100 100 100 99 99 88 100 100 100 100 100 100 100 100 100 100 100 79 100 100 32 5 67 78 96 5 5 5 0 0 0 0 3
100 100 100 100 100 100 100 100 100 100 100 100 100 100 100 100 100 100 100 100 100 100 98 100 100 100 100 100 100 94 100 100 97 82 100 100 100 87 75 100 100 90 64 100 100 100 70 46 2 0 0 0 14 6
100 100 100 100 100 100 100 100 100 100 100 100 100 100 100 100 100 100 100 100 100 100 100 100 100 100 100 100 100 100 100 100 100 85 100 100 99 98 100 100 86 98 69 100 100 42 11 33 1 0 0 0 6 55
100 100 100 100 100 100 100 100 100 100 100 100 100 100 100 100 100 100 100 100 100 100 100 100 100 100 100 100 100 99 100 100 100 100 100 100 100 100 100 100 16 5 93 100 99 5 4 5 5 1 0 4 7 9
100 100 97 100 100 100 100 100 100 100 100 100 100 100 100 100 100 100 100 100 100 100 100 100 90 87 99 96 97 100 99 96 100 100 100 99 100 100 100 96 14 5 5 5 5 5 2 5 47 0 0 5 88 100
100 100 94 100 100 100 100 100 100 100 100 100 100 100 100 100 100 100 100 100 90 88 47 59 88 83 91 28 66 100 100 100 100 100 69 100 100 100 100 36 5 5 5 5 5 5 5 5 1 0 4 2 4 91
100 100 100 100 100 100 100 100 100 100 100 100 100 100 100 100 100 100 97 96 54 80 58 54 83 90 92 99 100 100 100 100 100 68 100 100 100 100 100 70 5 5 5 5 5 6 5 10 3 4 2 4 4 27
100 100 100 100 100 100 100 100 100 100 100 100 100 100 100 100 96 96 18 80 67 94 89 87 100 100 100 100 100 100 98 97 94 100 100 100 100 100 60 5 5 5 30 12 42 41 11 10 5 15 55 26 4 5
100 100 100 100 100 100 100 100 100 100 100 100 100 100 100 89 59 11 78 100 100 100 78 68 68 100 100 100 100 100 100 100 100 100 100 100 97 100 64 10 40 74 94 72 79 9 5 12 29 32 5 8 6 63
100 100 100 100 100 100 100 100 100 100 100 100 100 100 97 100 58 39 100 100 100 100 100 100 100 100 100 100 100 100 100 100 100 100 100 92 70 86 100 56 100 89 98 100 58 5 32 8 5 5 20 76 97 67
100 100 100 100 100 100 100 100 100 100 100 100 94 81 100 100 100 100 100 95 100 99 100 100 100 100 100 100 100 100 100 100 100 100 100 88 81 100 69 94 60 77 48 99 100 100 28 5 45 100 100 100 96 55
100 100 100 100 100 100 100 100 100 100 100 100 73 85 99 100 100 100 98 100 100 100 86 97 100 100 92 98 56 81 98 100 95 92 80 53 96 91 99 100 95 14 5 55 74 21 6 84 100 100 100 100 100 62
100 100 100 100 100 100 100 100 100 94 100 97 100 100 99 100 100 94 99 100 100 70 64 48 88 87 76 76 31 99 76 5 34 66 59 100 100 96 69 65 29 29 10 5 36 94 100 100 100 100 100 100 73 49
100 100 100 100 100 100 100 100 100 100 100 100 100 100 100 100 76 100 100 100 90 80 100 100 100 91 5 13 100 95 94 37 97 100 100 87 90 97 88 77 81 48 19 28 30 82 85 97 100 100 80 72 100 88
100 100 100 100 100 100 100 100 100 100 100 100 100 100 100 82 96 100 99 27 94 100 96 100 100 100 84 38 5 5 5 5 6 23 61 96 100 99 99 98 96 81 66 45 14 57 100 100 100 100 100 96 76 56
100 99 100 100 97 100 100 100 100 100 100 100 100 100 100 92 100 99 100 100 100 98 95 100 100 100 99 27 12 71 81 54 22 7 6 6 62 79 80 94 100 100 100 100 100 100 95 100 100 100 100 100 100 100
100 100 100 100 100 100 100 99 91 86 91 100 100 100 100 100 94 99 100 100 99 91 73 100 100 100 100 100 100 100 100 97 100 72 56 59 78 76 6 29 58 72 99 92 96 96 76 92 84 26 77 100 100 100
100 100 100 91 100 100 100 100 99 100 100 100 100 100 99 100 100 100 100 100 100 100 100 100 99 40 65 83 78 58 76 93 86 85 99 99 100 98 98 100 100 100 100 100 82 100 100 100 100 100 100 100 100 100
94 100 100 100 100 100 100 100 100 100 100 100 100 100 100 100 100 100 100 90 100 100 90 94 84 33 23 42 53 77 60 100 100 100 100 100 100 100 95 74 92 85 90 97 89 99 100 100 100 100 100 100 100 100
100 100 100 100 100 100 100 100 100 100 100 100 100 100 100 100 99 99 100 100 100 99 100 99 89 49 49 100 94 47 66 57 75 82 76 59 72 76 80 69 96 100 100 100 99 96 100 100 100 100 100 100 100 100
99 100 100 100 100 100 100 100 100 100 100 100 100 100 100 100 100 100 100 100 100 100 100 100 100 100 76 56 55 55 63 84 100 96 88 50 32 16 27 14 21 38 43 7 9 18 67 72 99 99 99 100 100 100
100 100 100 100 100 100 100 100 100 100 100 100 100 100 100 100 100 100 100 100 100 100 100 75 76 36 6 5 5 4 5 24 12 5 19 85 46 28 93 100 82 11 3 0 0 2 8 17 23 93 100 100 100 100
89 100 100 100 100 100 100 100 100 100 100 100 98 100 100 74 28 43 6 5 9 24 14 11 22 44 56 66 95 82 6 5 5 2 1 2 4 5 5 18 5 5 5 5 5 3 0 0 1 3 5 14 9 50

GFSWCAN_prec_cloud_117.txt.gz
Cloud_Cover
100 100 100 100 100 100 100 100 100 49 65 21 65 100 100 100 100 100 100 100 100 100 100 100 99 100 100 100 100 100 100 100 100 100 86 40 5 27 5 4 0 2 5 5 2 4 62 100 100 100 100 100 100 100
100 100 100 100 100 100 100 98 100 47 5 25 50 100 100 100 100 100 100 100 100 100 100 100 100 100 100 100 100 100 100 100 100 100 98 35 5 5 5 4 4 5 3 4 5 5 1 99 100 100 100 100 100 100
100 100 100 100 100 100 100 100 83 99 6 100 75 100 100 100 100 100 100 100 89 99 100 100 100 100 100 100 100 100 100 100 98 87 100 95 15 22 5 5 4 5 0 5 5 5 5 13 100 100 100 100 100 43
100 100 100 100 100 100 100 99 89 68 99 100 100 100 100 100 100 100 100 100 100 100 100 100 100 100 100 100 100 100 100 100 99 100 100 100 84 44 5 5 4 5 0 0 0 4 5 5 76 100 100 100 99 97
100 100 100 100 100 100 100 100 100 100 59 99 100 100 100 100 100 100 100 100 100 100 99 100 100 100 100 100 100 100 100 100 99 100 100 94 83 58 8 12 26 5 3 0 0 2 5 5 74 92 100 100 100 74
100 100 100 100 100 100 100 100 100 100 44 99 100 100 100 100 100 100 100 100 100 100 100 100 100 100 100 100 100 100 100 100 100 100 100 92 44 45 5 11 43 6 5 0 0 0 4 5 13 76 70 100 100 100
100 100 100 100 100 100 100 97 100 97 80 89 100 100 100 100 100 100 100 99 100 100 100 100 100 100 100 100 100 100 94 100 100 100 100 100 92 45 27 5 5 5 5 0 0 0 1 0 3 99 95 5 19 95
100 100 100 100 100 100 100 100 100 83 100 100 100 100 100 100 100 100 100 100 100 100 100 100 100 100 100 100 100 100 100 100 100 100 100 98 100 96 82 20 5 5 5 2 5 4 0 0 0 0 25 100 59 13
100 100 100 100 100 100 100 100 100 62 78 93 100 100 100 100 96 100 100 100 100 100 100 100 100 100 99 100 100 100 100 100 80 100 100 100 100 100 25 12 41 5 5 5 5 0 0 0 0 0 0 1 11 5
100 100 100 100 100 100 100 100 62 40 32 100 100 100 99 95 100 100 100 100 100 100 100 100 100 100 100 83 44 100 100 100 100 99 100 100 100 100 95 6 48 38 12 14 10 0 0 0 0 0 0 0 0 0
100 100 100 100 100 100 100 100 71 23 100 100 100 100 100 100 100 100 100 100 100 100 100 100 100 100 100 100 78 100 96 100 100 100 94 100 100 100 86 48 16 46 91 100 46 4 7 5 5 0 0 0 1 0
100 100 100 100 100 100 100 99 89 99 100 100 100 100 100 100 100 100 100 100 100 100 100 100 100 100 100 100 100 100 94 91 66 99 93 100 100 96 16 76 100 88 100 100 84 12 11 5 5 3 0 0 4 1
100 100 100 100 100 100 100 100 100 100 100 100 100 100 100 98 100 99 69 92 100 100 100 100 100 100 100 100 98 100 95 95 99 100 100 100 100 59 55 99 100 100 100 47 69 59 99 82 5 5 1 4 4 27
100 100 100 100 100 100 100 100 100 100 100 100 100 100 100 100 86 100 100 100 100 100 100 100 97 98 100 100 100 100 100 99 100 100 100 100 100 99 96 100 100 100 100 61 8 10 100 100 9 5 5 5 4 5
100 100 100 100 100 100 100 100 100 100 100 100 100 100 100 100 100 100 100 100 100 100 100 100 100 100 100 100 100 100 100 100 100 100 100 100 100 100 96 99 100 100 100 100 72 79 100 96 63 8 4 5 25 63
100 100 100 100 100 100 100 100 100 100 100 100 100 100 100 100 100 100 100 100 100 99 100 100 100 100 100 99 100 100 100 100 100 100 100 100 100 100 100 100 100 99 100 100 33 18 58 56 26 5 27 13 4 66
100 100 100 100 100 100 100 100 100 100 100 100 100 100 100 100 100 100 100 100 100 100 100 100 100 98 14 54 86 31 41 100 100 86 66 100 100 99 100 100 100 70 100 57 6 6 5 5 5 5 5 5 3 19
97 100 100 100 100 100 100 100 100 100 100 100 100 100 100 100 100 100 100 100 100 98 85 62 34 6 19 29 85 95 79 59 91 100 47 100 100 100 100 100 94 100 95 18 5 5 5 13 56 5 5 5 5 5
100 100 100 100 100 100 99 100 100 100 100 100 100 100 100 100 100 100 100 100 83 100 89 63 84 65 100 76 78 97 100 100 100 100 100 100 100 100 100 97 91 80 51 5 5 11 26 8 20 10 5 22 16 5
100 100 100 100 100 100 98 100 100 100 100 100 100 100 100 100 100 86 48 88 100 98 97 94 83 91 92 93 100 100 100 100 100 100 100 100 100 100 100 100 97 77 39 94 64 68 40 21 5 63 96 51 5 5
100 100 100 100 100 100 100 100 100 100 100 100 100 100 100 97 100 76 85 100 100 100 100 100 100 100 98 70 100 100 100 100 100 100 100 100 100 100 100 93 68 100 80 51 83 5 13 44 99 68 95 42 100 100
100 100 100 100 100 100 100 100 100 100 100 100 100 100 100 100 100 100 100 100 100 100 97 99 96 97 97 99 91 70 91 100 100 100 100 100 100 92 60 74 45 85 99 84 24 30 46 75 94 58 64 36 42 56
100 100 100 100 100 100 100 100 100 100 100 100 100 96 100 100 100 91 100 100 100 98 100 95 32 8 55 55 86 86 91 86 100 100 100 100 96 59 92 100 100 100 99 94 93 34 71 37 16 9 23 14 71 100
100 100 100 100 100 100 100 100 100 100 100 100 100 79 98 100 100 100 100 100 98 100 100 38 65 25 10 83 97 88 49 65 32 22 81 100 100 94 100 100 100 92 77 66 26 5 5 5 16 95 77 76 98 100
100 100 100 100 100 100 100 100 100 100 100 100 100 100 99 99 100 100 100 100 100 100 100 100 100 100 100 42 18 7 5 16 26 90 84 48 97 100 99 99 100 92 89 100 100 90 6 14 54 89 100 98 64 100
100 100 100 100 100 100 100 100 100 100 100 100 100 97 99 100 100 100 100 100 100 100 100 100 100 100 100 100 97 27 67 67 59 19 5 5 20 13 85 98 100 100 100 96 100 100 96 100 100 89 99 89 97 100
100 100 100 100 100 100 100 100 100 100 96 98 90 100 100 100 100 100 100 99 100 100 100 100 100 100 100 100 100 96 100 96 84 98 98 99 99 100 92 92 97 100 70 100 98 94 93 100 100 100 100 100 100 95
100 100 100 100 100 99 100 100 100 97 94 97 100 100 100 100 100 92 75 80 99 100 100 100 100 100 100 100 100 100 91 80 63 44 44 51 65 98 75 87 97 100 100 100 100 100 100 100 100 100 100 100 100 100
100 100 100 100 100 100 100 90 85 100 100 100 100 100 100 100 100 100 100 100 99 100 97 97 100 79 56 97 77 77 27 14 68 86 99 90 95 97 99 100 100 92 84 100 100 100 100 100 100 100 100 100 100 100
96 94 88 83 99 100 100 100 100 100 95 100 100 100 100 100 100 100 100 100 100 100 100 100 100 100 80 68 99 93 61 49 51 68 68 83 94 94 96 65 81 64 74 89 100 100 100 100 100 100 100 100 100 100
88 96 100 96 98 100 100 100 100 99 100 100 100 100 100 100 100 100 100 100 100 100 100 99 94 81 60 61 99 96 62 53 73 68 58 12 35 64 18 29 80 44 48 22 11 41 98 53 73 84 82 98 100 100
96 100 100 100 100 100 100 100 100 100 100 100 100 100 100 100 100 100 100 100 99 93 36 45 34 10 8 17 8 15 39 25 28 13 6 3 0 0 4 45 23 5 5 0 1 3 5 32 56 82 86 100 100 100
100 100 100 100 100 100 100 100 100 100 100 100 100 100 94 82 60 56 59 71 60 44 44 46 66 81 82 55 7 5 5 4 0 26 1 40 78 7 2 4 5 5 5 2 4 2 0 0 3 31 96 99 100 100

GFSWCAN_prec_cloud_120.txt.gz
Cloud_Cover
100 100 100 99 100 100 100 96 98 100 100 52 25 24 100 100 100 98 100 100 100 100 100 100 100 100 100 100 100 100 100 97 100 100 100 100 100 64 7 5 5 6 41 90 80 65 65 37 100 100 92 9 79 100
100 100 100 100 100 100 100 62 100 100 100 96 13 18 100 100 100 100 98 100 100 100 100 100 100 100 100 100 100 100 100 100 100 100 100 100 74 13 5 93 5 22 19 64 19 98 8 2 100 100 100 6 60 100
100 100 100 100 100 100 100 100 100 100 99 100 53 74 100 100 100 100 100 100 100 100 100 100 100 100 100 100 100 100 100 98 100 100 100 96 37 5 27 97 30 5 0 3 2 28 5 0 90 100 100 49 77 99
100 100 100 100 100 100 100 100 100 99 100 99 42 100 100 100 100 100 100 100 100 100 100 100 100 100 100 100 100 100 100 100 100 100 100 100 11 42 92 91 28 50 2 4 0 0 0 0 7 100 83 100 62 44
100 100 100 100 100 100 100 100 100 100 100 100 40 100 100 100 100 100 100 100 100 100 100 100 100 100 100 100 100 100 100 100 100 100 100 100 87 48 95 14 5 5 4 4 31 0 15 5 5 59 100 100 96 91
100 100 100 100 100 100 100 100 100 100 100 100 72 100 100 100 100 100 100 100 100 100 100 100 100 100 100 100 100 100 100 100 100 100 100 98 75 72 22 42 5 5 5 1 4 0 0 5 8 42 68 100 100 92
100 100 100 100 100 100 100 100 100 100 100 94 98 100 100 100 100 94 100 100 100 100 100 100 100 100 100 100 100 100 100 100 100 100 100 100 85 79 52 53 10 5 5 5 5 0 0 4 0 0 0 31 100 100
100 100 100 100 100 100 100 100 100 100 100 100 100 100 100 100 97 76 100 100 100 100 100 100 100 100 100 100 100 100 100 100 100 100 100 100 100 99 86 100 28 8 5 5 5 2 4 0 0 0 2 5 10 92
100 100 100 100 96 100 100 100 100 100 100 100 100 100 100 100 96 89 86 100 100 100 100 100 100 100 96 100 100 100 100 100 100 92 90 100 100 100 25 94 100 5 5 5 5 5 2 0 0 0 0 1 28 89
100 100 100 100 100 100 100 100 100 100 100 100 100 100 100 99 18 81 95 100 100 100 100 100 100 100 97 100 100 100 100 100 99 88 87 100 100 100 75 13 99 77 14 5 5 7 5 0 0 0 0 0 0 0
100 100 100 100 100 100 100 100 100 100 100 100 100 100 85 48 81 100 92 100 100 100 100 100 100 100 100 100 100 100 100 100 81 91 29 100 100 100 18 5 82 72 28 8 55 100 95 5 12 4 0 0 0 0
100 100 100 100 100 100 100 100 100 100 100 100 100 76 99 100 100 99 100 100 100 100 100 100 100 100 100 100 100 100 100 100 90 79 92 100 100 100 13 16 54 10 54 75 100 100 100 6 5 17 5 4 0 0
100 100 100 100 100 100 100 100 100 100 100 100 100 100 90 84 100 100 100 100 100 100 100 100 100 100 100 100 100 100 98 98 100 98 97 100 100 89 78 96 78 6 71 100 100 100 59 43 60 68 88 6 0 0
100 100 100 100 100 100 100 100 100 100 100 100 100 100 100 100 96 100 100 100 100 92 100 100 100 100 100 100 100 100 99 100 99 100 100 100 87 81 100 100 100 100 100 100 100 100 100 23 30 100 100 50 3 1
100 100 100 99 100 100 100 100 100 100 100 100 100 100 100 100 100 100 100 100 100 100 100 100 100 100 100 100 100 100 100 100 100 100 100 98 100 100 100 100 100 100 100 100 100 100 100 100 60 89 85 62 5 5
100 100 100 100 100 100 100 100 100 100 100 100 100 100 100 100 100 100 100 100 100 100 100 100 100 100 100 100 100 100 100 100 100 100 100 100 100 100 100 100 100 100 100 100 100 88 100 100 55 17 72 7 5 5
100 100 100 100 100 100 100 100 100 100 100 100 100 100 100 100 100 100 100 100 100 100 100 100 100 100 100 100 100 100 100 100 100 100 100 100 100 100 100 100 100 100 100 100 100 100 100 67 55 33 7 5 5 5
100 100 100 100 100 100 100 100 100 100 100 100 100 100 100 100 100 100 100 100 100 100 100 100 100 100 100 100 100 98 89 100 38 5 5 20 95 100 100 100 100 100 100 100 100 100 100 91 35 5 5 5 5 5
100 100 100 100 100 100 91 91 100 100 100 100 100 100 100 100 100 100 100 100 100 100 100 100 100 100 71 92 85 80 100 42 67 82 56 6 9 100 100 100 100 100 100 100 100 100 100 48 5 37 53 87 80 5
100 100 100 100 100 100 98 100 100 100 100 100 100 100 100 100 100 100 100 100 100 100 100 99 54 100 99 100 48 62 32 10 51 65 15 100 100 100 100 100 100 100 100 100 100 100 90 9 9 41 67 40 6 5
100 100 100 100 100 100 97 91 100 100 100 100 100 100 100 100 100 100 100 100 100 58 56 62 100 91 54 80 40 74 96 33 38 76 77 77 61 100 100 100 100 100 100 100 97 65 17 34 53 90 89 14 35 30
100 100 100 100 100 100 100 98 100 100 100 100 100 100 100 100 100 100 100 16 86 47 51 94 100 100 68 95 92 92 100 100 100 100 100 100 100 100 100 100 100 100 100 100 100 100 84 80 59 84 91 49 41 88
100 100 100 100 100 100 99 100 100 100 100 100 100 100 100 100 100 99 92 90 78 24 38 60 57 8 52 56 72 74 96 75 98 100 100 100 100 100 100 100 100 79 68 69 91 100 91 100 97 62 60 74 83 96
100 100 100 100 100 100 100 100 100 100 100 100 100 100 100 98 60 97 92 68 37 87 85 93 59 16 6 5 5 15 80 82 96 100 98 100 100 100 82 66 56 65 54 95 99 100 100 95 92 69 50 49 46 62
100 100 100 100 100 100 100 100 100 100 100 100 100 100 100 97 97 84 60 100 94 100 100 100 79 92 32 7 5 18 9 39 25 68 6 9 49 97 100 98 100 99 100 100 100 97 97 85 52 8 5 7 32 36
100 100 100 100 100 100 100 100 100 100 100 100 100 100 100 100 97 100 97 97 100 100 100 100 100 100 85 96 52 46 28 13 29 45 23 37 24 6 68 73 86 100 100 100 100 100 96 100 99 100 100 98 100 100
100 100 100 100 100 100 100 100 100 100 100 100 100 100 100 96 97 100 97 76 98 71 74 92 92 100 100 100 100 100 98 75 80 46 19 33 43 47 52 59 65 97 88 100 100 100 100 100 100 100 100 100 100 100
100 100 100 100 100 100 100 100 100 100 100 89 88 96 83 100 98 96 100 96 61 76 89 100 100 100 100 100 100 100 100 100 100 100 100 71 42 79 98 88 99 100 100 100 100 100 100 100 100 100 100 100 100 100
100 100 100 100 100 100 100 100 100 92 58 92 99 100 100 100 100 99 72 86 99 98 96 100 100 95 92 84 70 72 66 58 24 37 87 97 97 81 100 100 100 100 100 100 100 100 100 100 100 100 100 100 100 100
100 100 100 98 97 100 86 84 100 100 100 100 99 98 98 100 100 95 94 79 81 85 92 100 98 95 99 98 83 84 74 45 82 94 96 53 83 79 78 50 73 73 50 79 65 87 99 98 100 100 100 100 100 100
100 100 100 100 100 100 100 100 100 100 100 100 100 100 100 86 95 100 100 100 100 100 100 100 100 100 97 77 78 74 96 35 76 84 28 5 5 6 5 10 5 5 5 21 75 5 5 5 24 55 69 73 57 98
100 100 98 100 100 100 99 100 100 100 100 100 100 100 100 98 100 100 100 99 79 95 34 87 89 16 24 5 7 5 11 19 6 6 5 3 0 0 0 5 5 5 5 5 5 2 0 16 52 66 84 53 46 99
100 100 100 100 100 100 100 100 100 100 100 100 100 100 100 100 97 90 44 7 62 100 98 96 78 89 94 90 82 68 35 2 0 28 3 40 78 4 10 5 5 5 4 5 4 1 0 0 21 17 50 73 100 100

GFSWCAN_prec_cloud_123.txt.gz
Cloud_Cover
100 100 100 98 24 28 98 40 74 100 100 100 100 100 99 100 100 62 100 98 91 100 100 100 100 100 100 100 100 100 100 100 100 100 100 95 94 96 99 100 42 96 93 100 68 86 77 100 4 6 57 100 100 90
100 100 100 100 100 98 99 40 100 100 100 100 100 100 100 100 100 100 91 97 100 100 100 100 100 100 100 100 100 100 100 100 100 100 100 100 100 100 100 100 48 15 98 88 100 93 9 3 1 25 85 20 64 33
100 100 100 100 100 100 62 94 100 100 100 100 100 100 100 100 100 99 100 100 100 100 100 100 100 100 100 100 100 100 100 100 100 100 100 100 100 100 100 99 6 10 5 5 25 17 50 4 1 34 50 99 58 52
100 100 100 100 100 100 98 37 100 100 100 100 100 100 97 100 100 100 100 100 100 98 82 100 100 100 100 100 100 100 100 100 100 100 100 100 100 100 100 74 56 78 62 6 5 3 10 30 8 37 90 100 54 99
100 100 100 100 100 100 71 42 100 100 100 100 100 100 100 99 100 100 100 100 100 100 100 100 100 100 100 100 100 100 100 100 100 100 100 100 100 100 100 100 93 64 41 41 98 20 34 100 31 67 47 100 100 87
100 98 100 100 100 100 99 100 100 100 100 100 100 100 96 100 100 100 100 96 98 100 100 100 100 100 100 100 100 100 100 100 100 100 100 100 100 100 100 86 43 96 60 5 5 4 32 0 49 100 99 100 100 100
100 100 84 99 100 100 100 100 100 100 100 100 100 100 100 100 100 100 100 90 98 100 100 100 100 100 100 100 100 100 100 100 100 100 100 100 100 100 96 100 100 100 98 20 5 4 21 12 10 4 5 5 78 100
100 49 100 97 100 100 100 100 100 100 100 100 100 100 100 91 99 68 69 54 98 100 100 100 100 100 100 100 100 100 100 100 100 100 100 100 100 100 93 99 53 100 94 32 5 5 5 6 8 1 2 4 70 66
100 64 100 92 100 100 100 100 100 100 100 100 100 100 100 100 100 100 49 99 91 100 100 100 100 100 100 100 100 100 100 100 100 100 100 100 100 100 97 93 7 100 99 88 49 7 73 12 5 3 3 4 99 74
97 100 98 100 100 100 100 100 100 100 100 91 100 100 100 98 72 81 68 98 98 100 100 100 100 100 100 100 100 100 100 100 100 100 100 100 100 95 10 18 13 100 100 98 71 29 89 98 56 5 5 5 5 85
99 88 100 100 100 100 100 100 100 100 100 99 100 100 100 29 82 100 100 100 76 64 100 100 100 100 100 100 100 100 100 100 100 100 100 100 45 22 46 11 100 30 74 100 68 7 94 100 94 5 5 5 14 9
57 100 100 100 100 100 100 100 100 98 100 100 100 100 80 94 92 100 82 87 98 91 100 100 100 100 100 100 100 100 100 100 100 100 100 84 95 43 70 5 58 79 100 54 74 60 100 100 100 7 5 5 7 6
100 100 100 100 100 100 100 100 100 100 100 100 100 100 90 93 100 100 100 100 68 100 100 100 100 100 100 100 100 100 100 100 100 100 100 98 100 78 26 6 42 61 82 96 15 100 100 100 100 98 8 5 5 4
100 100 100 100 100 100 100 100 100 100 100 100 100 100 100 81 99 99 100 100 100 100 100 100 100 100 100 100 98 100 100 100 100 100 95 96 98 57 5 13 78 46 11 96 51 80 100 100 100 100 68 6 13 5
100 99 100 100 100 100 100 100 100 100 100 100 100 100 92 94 100 100 100 100 100 100 100 100 100 100 100 100 100 100 100 100 100 100 100 93 93 31 52 23 62 76 100 90 97 100 100 100 100 100 100 36 96 16
100 100 100 98 100 100 100 100 100 100 100 100 100 89 100 100 100 100 100 100 100 100 100 100 100 100 100 100 100 100 100 100 100 100 92 99 100 98 95 98 99 100 100 100 100 99 100 100 100 100 100 95 55 100
100 100 100 100 100 100 100 100 100 100 100 100 100 100 100 100 100 100 100 100 100 100 100 100 100 100 100 100 100 100 100 100 100 100 100 100 100 100 100 100 100 100 100 100 100 100 100 100 100 100 100 100 89 57
100 100 100 100 100 100 100 100 100 100 100 100 100 100 100 100 100 100 100 100 100 100 100 100 100 100 100 100 100 100 100 100 100 100 100 100 100 100 100 100 82 100 99 100 100 100 100 100 100 100 100 100 91 6
100 100 100 100 100 100 100 100 100 99 100 100 100 100 100 100 100 100 100 100 100 100 100 100 100 100 100 100 100 100 100 100 100 100 94 82 26 14 44 100 100 100 100 100 100 100 100 100 99 100 100 100 98 18
100 100 100 100 100 100 100 100 77 96 100 100 100 100 100 100 100 100 100 100 100 100 100 100 100 100 100 100 100 100 98 52 77 70 26 65 5 58 18 21 90 100 100 100 100 100 100 100 100 100 100 98 12 11
100 100 100 100 100 100 92 100 100 100 100 100 100 100 100 100 100 100 100 100 100 100 100 100 100 100 100 82 51 99 64 16 89 86 100 100 100 100 83 98 100 100 100 100 100 100 100 100 100 100 100 11 13 54
100 100 100 100 100 100 78 94 100 100 100 100 100 100 100 100 100 100 100 100 100 100 100 100 93 85 70 34 52 66 56 5 5 5 6 48 66 100 100 100 100 100 100 100 100 100 100 100 100 100 86 72 16 42
100 100 100 100 100 72 92 100 100 100 100 100 100 100 100 100 100 100 100 100 100 76 37 88 92 7 33 17 39 20 31 12 20 67 64 86 100 100 100 100 100 100 100 100 100 100 100 100 100 100 100 62 99 74
100 100 100 93 100 100 98 100 100 100 100 100 100 100 100 100 100 100 100 100 97 65 70 38 48 10 92 54 44 96 70 6 96 93 91 100 100 100 100 100 100 100 100 100 100 100 98 97 83 45 86 82 78 55
100 100 100 100 100 100 100 100 100 100 100 100 100 100 100 100 100 97 100 100 98 100 100 100 100 72 7 11 59 100 52 6 64 100 100 100 99 100 100 98 97 96 100 85 78 94 100 99 100 100 100 100 90 100
100 100 100 100 100 100 100 100 100 100 100 100 100 100 100 100 100 100 100 100 100 100 100 100 100 100 100 61 32 35 58 39 5 7 99 96 100 100 100 94 100 69 67 57 90 92 100 100 91 100 100 100 77 71
100 100 100 100 100 100 100 100 100 100 100 100 100 100 100 100 100 100 100 100 100 100 100 100 100 100 100 63 62 68 66 63 68 63 59 27 41 88 100 48 100 100 76 17 63 94 100 100 100 100 100 100 98 100
100 100 100 100 100 100 100 100 100 100 100 100 100 100 100 100 100 94 74 55 98 100 100 100 100 100 100 100 100 100 100 100 100 100 99 95 97 98 98 82 92 100 86 42 31 90 100 97 70 83 100 100 99 100
100 100 100 100 100 100 100 100 100 100 100 100 100 100 72 51 98 100 100 100 100 98 82 91 88 100 100 100 100 100 100 100 100 56 80 100 100 100 100 100 100 92 98 100 100 100 100 100 100 100 99 100 100 100
100 100 100 100 99 100 100 100 100 100 100 100 100 80 97 100 100 78 60 58 90 96 92 98 100 100 100 89 91 78 79 84 50 43 78 82 85 91 97 98 97 81 70 77 73 61 70 35 52 69 49 60 88 100
100 100 100 100 100 100 100 100 100 100 100 100 100 100 100 97 100 97 92 96 91 99 96 95 100 100 100 97 57 91 72 52 34 15 10 14 99 79 91 91 100 97 53 45 78 100 98 24 78 72 76 76 99 99
100 100 100 100 100 100 100 100 100 100 100 100 100 93 100 100 100 100 100 100 100 95 85 100 100 97 35 32 19 8 9 6 5 5 5 2 9 13 88 100 94 67 41 28 48 61 23 20 60 78 100 100 100 100
100 100 100 100 100 100 100 100 100 100 100 100 100 100 100 98 99 100 100 78 91 83 98 96 80 67 35 5 4 4 3 1 0 34 3 40 78 30 29 75 58 66 59 86 96 75 92 36 100 71 33 0 26 34